     2.11           OBSERVATION DATA    G (GPS)             RINEX VERSION / TYPE
teqc 2010Mar30 UNAVCO Archive Ops 20100804 05:51:48UTC      PGM / RUN BY / DATE
Solaris 5.10|UltraSparc IIIi|cc -m64 SS12.1|=+|*Sparc       COMMENT
BIT 2 OF LLI FLAGS DATA COLLECTED UNDER A/S CONDITION       COMMENT
JGBL                                                        MARKER NAME
                                                            MARKER NUMBER
Michael Bevis Ohio State University                         OBSERVER / AGENCY
4702127040 TRIMBLE NETRS 1.1-5                              REC # / TYPE / VERS
4735A38011 TRM29659.00 SCIS                                 ANT # / TYPE
   743645.8855  -446899.9565  6298429.9224                  APPROX POSITION XYZ
        0.0000        0.0000        0.0000                  ANTENNA: DELTA H/E/N
     1     1                                                WAVELENGTH FACT L1/2
     7    L1    L2    C1    P2    P1    S1    S2            # / TYPES OF OBSERV
    30.0000                                                 INTERVAL
    15                                                      LEAP SECONDS
RINEX file created by UNAVCO GPS Archive.                   COMMENT
For more information contact archive@unavco.org             COMMENT
Monument ID: 21957                                          COMMENT
UNAVCO 4-char name: JGBL                                    COMMENT
4-char name from Log or data file: JGBL                     COMMENT
Monument location: 82.2088 -31.0041 755.83                  COMMENT
Visit ID: 94930                                             COMMENT
                                                            COMMENT
GNET-OSU/NSF/UNAVCO/DNSC/ULUX                               COMMENT
                                                            COMMENT
End of DB comments                                          COMMENT
SNR is mapped to RINEX snr flag value [0-9]                 COMMENT
L1 & L2: min(max(int(snr_dBHz/6), 0), 9)                    COMMENT
  2010     7    31     0     0    0.0000000     GPS         TIME OF FIRST OBS
                                                            END OF HEADER
 10  7 31  0  0  0.0000000  0  9G22G14G27G11G09G17G12G20G28
   -697812.10746   -523919.73244  24735010.1094   24734999.3634
        41.5004         24.2504
 -15168738.05548 -11807990.75646  22174714.2344   22174703.9574
        48.2504         37.5004
  -7967421.97447  -6188990.85845  23351120.9844   23351112.2304
        46.0004         33.0004
 -15207951.20548 -11823922.36246  21468115.5084   21468105.0554
        52.2504         41.5004
 -11616455.89048  -9026569.01046  22034503.0084   22034493.8444
        48.5004         37.5004
 -17842426.19348 -13874290.21647  21509744.1724   21509733.7194
        52.0004         45.0004
  -1322192.10946  -1020743.22344  24662757.9064   24662748.1564
        40.2504         25.7504
  -8780291.11847  -6823935.21445  23288138.4144   23288129.0164
        44.7504         30.7504
  -5686372.65847  -4404676.15144  23831073.0634   23831062.4924
        42.7504         27.5004
 10  7 31  0  0 30.0000000  0  9G22G14G27G11G09G17G12G20G28
   -593058.62746   -442293.74743  24754944.3054   24754933.3244
        40.5004         22.5004
 -15197032.13848 -11830038.08046  22169330.1484   22169319.8134
        48.5004         37.2504
  -7907146.43547  -6142022.92645  23362591.3914   23362581.9344
        46.2504         33.7504
 -15166049.63448 -11791271.75547  21476089.0634   21476078.7854
        51.7504         42.0004
 -11566718.23148  -8987812.41446  22043967.7114   22043959.0164
        48.5004         37.5004
 -17877597.05348 -13901696.07547  21503051.3444   21503041.4774
        51.5004         45.2504
  -1429325.90846  -1104223.97344  24642370.9224   24642361.3484
        39.5004         27.5004
  -8881077.43947  -6902469.93145  23268959.3674   23268950.2034
        44.5004         31.7504
  -5591495.85447  -4330746.15644  23849127.3364   23849117.1764
        43.0004         27.5004
 10  7 31  0  1  0.0000000  0  9G22G14G27G11G09G17G12G20G28
   -488112.56546   -360517.58943  24774913.9844   24774903.5904
        39.5004         22.7504
 -15224709.70248 -11851605.01346  22164063.1954   22164052.9774
        48.5004         38.0004
  -7846435.60747  -6094715.80345  23374144.4384   23374135.3324
        46.2504         33.5004
 -15123570.70048 -11758171.25247  21484172.3444   21484162.0084
        51.5004         42.0004
 -11516298.67748  -8948524.47146  22053562.4064   22053553.3594
        48.0004         36.7504
 -17912190.85048 -13928652.25147  21496468.2664   21496458.2814
        51.7504         45.5004
  -1536225.10346  -1187522.04644  24622028.6414   24622019.3594
        41.0004         27.0004
  -8981544.05347  -6980755.57045  23249841.6884   23249831.3524
        45.0004         31.5004
  -5496335.20147  -4256595.00744  23867235.3914   23867225.1724
        42.5004         25.5004
 10  7 31  0  1 30.0000000  0  9G22G14G27G11G09G17G12G20G28
   -382976.82546   -278593.70743  24794920.8524   24794910.3984
        37.5004         21.5004
 -15251769.84248 -11872690.82746  22158913.6024   22158903.3834
        48.2504         38.0004
  -7785291.33547  -6047070.92945  23385779.3444   23385770.4734
        45.5004         33.0004
 -15080516.38248 -11724622.38247  21492365.6254   21492355.0554
        51.7504         42.0004
 -11465199.67647  -8908707.07246  22063286.1804   22063277.0164
        47.7504         36.7504
 -17946206.50248 -13955157.92847  21489995.3204   21489985.6294
        52.2504         45.5004
  -1642886.78246  -1270635.00844  24601731.6254   24601721.9344
        41.7504         27.5004
  -9081688.23547  -7058789.94945  23230784.3914   23230774.6414
        45.0004         31.5004
  -5400893.42647  -4182224.83344  23885397.1174   23885386.7234
        42.7504         25.2504
 10  7 31  0  2  0.0000000  0  9G22G14G27G11G09G17G12G20G28
   -277653.59745   -196523.69443  24814962.9144   24814952.5204
        35.7504         22.5004
 -15278211.88948 -11893295.02646  22153881.9774   22153872.1684
        49.0004         38.0004
  -7723715.27447  -5999089.61845  23397496.7274   23397487.8554
        46.0004         33.0004
 -15036887.73648 -11690625.99747  21500667.6414   21500657.3634
        51.7504         42.2504
 -11413423.15348  -8868361.74246  22073138.5634   22073129.6334
        48.2504         36.7504
 -17979642.59448 -13981212.00247  21483632.5554   21483622.7464
        52.2504         45.5004
  -1749308.34247  -1353560.90944  24581480.0704   24581470.8484
        42.5004         27.0004
  -9181507.64447  -7136571.26345  23211789.3594   23211779.4924
        44.0004         31.0004
  -5305172.41947  -4107637.04844  23903612.1644   23903602.5904
        42.5004         26.0004
 10  7 31  0  2 30.0000000  0  9G22G14G27G11G09G17G12G20G28
   -172144.67645   -114309.07743  24835041.3914   24835030.2344
        34.2504         20.0004
 -15304034.07648 -11913416.21246  22148968.6334   22148958.1214
        48.5004         37.7504
  -7661708.81447  -5950772.89245  23409296.1094   23409287.5904
        46.2504         34.0004
 -14992686.05148 -11656183.13847  21509079.0784   21509068.8594
        51.5004         42.2504
 -11360970.79348  -8827489.78646  22083120.1484   22083110.4574
        48.5004         36.2504
 -18012497.72248 -14006813.40347  21477380.6254   21477370.6414
        52.0004         46.0004
  -1855486.46446  -1436297.13244  24561274.7814   24561265.5594
        41.2504         25.5004
  -9280999.00547  -7214096.95945  23192856.3284   23192847.0474
        45.0004         32.0004
  -5209174.63547  -4032833.64044  23921880.4614   23921870.4184
        42.2504         25.0004
 10  7 31  0  3  0.0000000  0  9G22G14G27G11G09G17G12G20G28
    -66453.66545    -31952.54243  24855153.4224   24855142.6174
        34.5004         21.0004
 -15329236.34648 -11933054.34746  22144172.6564   22144162.2034
        48.5004         38.0004
  -7599274.80847  -5902122.98645  23421177.2664   23421168.2774
        46.5004         33.0004
 -14947913.55048 -11621295.49847  21517599.2194   21517588.4734
        51.7504         42.0004
 -11307845.84148  -8786093.72546  22093229.7274   22093220.5634
        48.2504         36.5004
 -18044771.58548 -14031961.85547  21471239.1804   21471228.7274
        52.2504         46.0004
  -1961419.42346  -1518842.24644  24541116.6484   24541106.8984
        41.2504         25.5004
  -9380160.55447  -7291365.65045  23173987.4614   23173977.5354
        45.7504         32.7504
  -5112903.32447  -3957817.06344  23940200.3594   23940190.1414
        42.0004         24.7504
 10  7 31  0  3 30.0000000  0  9G22G14G27G11G09G17G12G20G28
     39417.76646     50544.55344  24875300.7734   24875289.5594
        37.2504         24.2504
 -15353817.51348 -11952208.50946  22139494.1094   22139484.4184
        49.0004         37.7504
  -7536414.71447  -5853141.11045  23433139.1644   23433129.8834
        46.0004         33.2504
 -14902571.23848 -11585963.84247  21526227.4224   21526216.9694
        52.2504         42.0004
 -11254049.75348  -8744174.71446  22103466.7894   22103457.3914
        48.7504         36.7504
 -18076461.90248 -14056655.59847  21465208.5004   21465198.3404
        52.0004         45.5004
  -2067103.71046  -1601193.65144  24521005.0944   24520995.5204
        41.7504         26.5004
  -9478988.81847  -7368374.67645  23155180.6334   23155170.6484
        45.5004         32.2504
  -5016360.26047  -3882588.73244  23958571.9454   23958561.7854
        42.0004         25.2504
 10  7 31  0  4  0.0000000  0  9G22G14G27G11G09G17G12G20G28
    145467.24846    133180.41343  24895480.7814   24895470.5634
        36.7504         22.7504
 -15377776.59048 -11970877.92546  22134935.9064   22134925.4534
        49.2504         38.0004
  -7473130.54647  -5803828.78245  23445181.2034   23445172.6254
        45.0004         32.5004
 -14856660.75648 -11550189.39847  21534964.0164   21534953.2114
        52.2504         42.0004
 -11199584.67148  -8701734.38346  22113831.2664   22113821.8094
        49.0004         36.0004
 -18107568.44048 -14080894.42947  21459289.0234   21459278.8054
        53.0004         45.7504
  -2172537.01146  -1683349.42444  24500942.5554   24500932.5124
        41.2504         25.2504
  -9577481.35047  -7445122.08645  23136437.4454   23136427.9884
        44.7504         31.2504
  -4919548.05247  -3807150.67444  23976994.6804   23976984.2854
        42.5004         27.0004
 10  7 31  0  4 30.0000000  0  9G22G14G27G11G09G17G12G20G28
    251691.91046    215952.77543  24915695.2194   24915684.1804
        37.7504         22.0004
 -15401113.12148 -11989062.23246  22130494.9694   22130484.8094
        48.0004         38.2504
  -7409424.37847  -5754187.64545  23457304.8524   23457295.8054
        44.7504         33.0004
 -14810183.87948 -11513973.61746  21543807.9844   21543797.5314
        51.5004         41.5004
 -11144453.21448  -8658774.84146  22124322.4924   22124313.2114
        48.7504         36.0004
 -18138090.27848 -14104677.66547  21453481.0864   21453471.0434
        52.2504         45.7504
  -2277716.68546  -1765307.52544  24480926.8364   24480917.3794
        41.0004         25.0004
  -9675635.88147  -7521606.09245  23117759.6254   23117750.1684
        45.5004         31.5004
  -4822469.30147  -3731504.89744  23995468.3594   23995457.9654
        43.5004         27.5004
 10  7 31  0  5  0.0000000  0  9G22G14G27G11G09G17G12G20G28
    358089.50346    298859.82143  24935941.4454   24935931.4024
        36.7504         20.7504
 -15423826.13948 -12006760.67946  22126172.6094   22126162.1564
        48.7504         38.2504
  -7345298.08447  -5704219.13245  23469506.8674   23469498.9924
        43.7504         32.2504
 -14763142.27848 -11477317.64046  21552759.9774   21552749.1724
        52.5004         41.7504
 -11088657.67048  -8615297.81146  22134939.7664   22134930.4844
        48.7504         36.7504
 -18168026.18548 -14128004.33147  21447784.4304   21447774.4454
        52.0004         46.0004
  -2382639.84347  -1847065.70244  24460960.5084   24460950.9344
        42.0004         26.0004
  -9773449.78547  -7597824.67545  23099146.8134   23099136.8284
        46.0004         33.0004
  -4725126.54047  -3655653.39644  24013992.4454   24013981.5234
        44.0004         27.5004
 10  7 31  0  5 30.0000000  0  9G22G14G27G11G09G17G12G20G28
    464657.67846    381899.82143  24956221.7114   24956210.5554
        38.5004         22.7504
 -15445914.92848 -12023972.72646  22121969.0554   22121958.8364
        48.7504         38.2504
  -7280753.68147  -5653924.80545  23481789.5784   23481781.4694
        44.5004         33.0004
 -14715537.73248 -11440223.02946  21561818.4304   21561807.6844
        51.5004         41.7504
 -11032199.97448  -8571304.79946  22145683.1954   22145674.2664
        49.0004         37.0004
 -18197374.86748 -14150873.42147  21442199.5394   21442189.3204
        53.0004         45.5004
  -2487304.22747  -1928622.26544  24441044.0634   24441034.0784
        42.5004         27.7504
  -9870920.48347  -7673775.85245  23080598.6094   23080588.6254
        45.5004         32.5004
  -4627521.90447  -3579597.86344  24032566.0474   24032555.3014
        43.0004         26.0004
 10  7 31  0  6  0.0000000  0  9G22G14G27G11G09G17G12G20G28
    571394.59746    465071.32144  24976532.8364   24976522.2074
        41.0004         25.2504
 -15467378.12548 -12040697.27946  22117885.0554   22117874.7194
        49.0004         37.7504
  -7215792.67847  -5603305.82745  23494151.8834   23494142.6604
        44.7504         33.0004
 -14667371.51748 -11402690.83446  21570984.1484   21570973.5204
        52.0004         41.2504
 -10975082.11348  -8526797.38246  22156552.4304   22156543.6764
        48.2504         36.2504
 -18226134.96548 -14173283.85647  21436726.8054   21436716.5864
        53.2504         45.7504
  -2591706.66847  -2009974.82144  24421176.6564   24421167.0234
        42.5004         27.0004
  -9968044.97247  -7749457.24445  23062115.5944   23062106.0204
        45.5004         30.5004
  -4529657.83847  -3503340.15944  24051188.7814   24051178.2114
        43.2504         28.2504
 10  7 31  0  6 30.0000000  0  9G22G14G27G11G09G17G12G20G28
    678297.38846    548372.04644  24996875.6174   24996865.2234
        41.7504         25.7504
 -15488215.09248 -12056933.84546  22113919.7664   22113909.5474
        49.0004         38.5004
  -7150417.04347  -5552363.74145  23506591.9144   23506582.3984
        45.0004         33.2504
 -14618645.22948 -11364722.28546  21580256.2424   21580245.5554
        52.0004         41.7504
 -10917306.56548  -8481777.45446  22167546.7424   22167537.4614
        48.2504         36.7504
 -18254305.75148 -14195235.09347  21431365.6174   21431355.7504
        53.2504         45.7504
  -2695843.97947  -2091120.63544  24401359.9924   24401350.3594
        43.5004         28.5004
 -10064820.65647  -7824866.82845  23043700.6954   23043690.3594
        45.5004         31.7504
  -4431536.66147  -3426882.12744  24069860.0944   24069850.1684
        44.2504         28.0004
 10  7 31  0  7  0.0000000  0  9G22G14G27G11G09G17G12G20G28
    785363.24247    631799.88743  25017249.9224   25017239.2344
        42.0004         23.0004
 -15508425.84148 -12072682.50246  22110073.5554   22110063.6884
        48.7504         38.2504
  -7084629.05247  -5501100.34445  23519111.3054   23519102.3164
        44.5004         32.5004
 -14569360.99048 -11326318.96746  21589634.7114   21589624.0824
        52.0004         41.2504
 -10858876.08048  -8436247.20146  22178665.8134   22178656.5314
        48.2504         36.5004
 -18281886.74448 -14216726.76247  21426117.0784   21426106.9774
        52.5004         46.0004
  -2799714.47447  -2172058.63544  24381593.7194   24381584.4384
        42.5004         27.7504
 -10161245.00447  -7900002.66445  23025351.4774   23025341.7854
        45.7504         32.5004
  -4333161.45347  -3350226.15944  24088580.6884   24088570.0594
        43.5004         28.2504
 10  7 31  0  7 30.0000000  0  8G14G27G11G09G17G12G20G28
 -15528006.70148 -12087940.29846  22106347.8364   22106337.2664
        49.0004         38.5004
  -7018427.90347  -5449515.03045  23531708.4694   23531699.7734
        44.0004         33.0004
 -14519517.98548 -11287480.23446  21599119.4614   21599109.1844
        52.5004         41.5004
 -10799790.12948  -8390206.21946  22189909.8444   22189900.6804
        49.0004         37.0004
 -18308873.70948 -14237755.53047  21420981.8364   21420972.0864
        52.5004         45.5004
  -2903311.98646  -2252783.83944  24361879.6724   24361869.9804
        41.2504         26.5004
 -10257313.33847  -7974861.08745  23007070.0004   23007060.2504
        45.0004         32.0004
  -4234531.77847  -3273371.88844  24107349.7194   24107339.2664
        43.7504         27.5004
 10  7 31  0  8  0.0000000  0  8G14G27G11G09G17G12G20G28
 -15546960.44548 -12102709.43546  22102740.4534   22102730.8204
        49.0004         38.0004
  -6951819.22747  -5397612.15545  23544383.8674   23544374.7624
        43.5004         33.0004
 -14469121.26548 -11248210.09146  21608709.8984   21608698.9184
        52.5004         41.5004
 -10740054.77948  -8343659.20746  22201276.8204   22201267.5394
        48.0004         37.0004
 -18335269.54448 -14258323.70647  21415958.9064   21415949.1564
        53.0004         45.5004
  -3006638.14346  -2333297.52044  24342217.1414   24342207.5084
        40.5004         26.0004
 -10353026.34447  -8049442.58145  22988856.6254   22988846.5234
        46.0004         31.5004
  -4135653.75547  -3196324.11044  24126164.6804   24126154.7544
        43.2504         27.5004
 10  7 31  0  8 30.0000000  0  8G14G27G11G09G17G12G20G28
 -15565285.53248 -12116988.68946  22099253.9384   22099243.6024
        50.0004         38.5004
  -6884803.96447  -5345392.44345  23557136.9224   23557127.6994
        43.5004         33.0004
 -14418171.30748 -11208508.82346  21618405.3284   21618394.6994
        52.2504         41.5004
 -10679671.35548  -8296607.19146  22212767.3284   22212758.1054
        48.7504         37.0004
 -18361072.21948 -14278429.67847  21411048.7734   21411038.7894
        52.2504         46.0004
  -3109689.22546  -2413597.00244  24322607.5314   24322597.8404
        41.0004         27.0004
 -10448380.39747  -8123744.42345  22970711.5234   22970701.1884
        47.0004         32.2504
  -4036528.64147  -3119083.78144  24145027.6884   24145017.9964
        42.5004         26.2504
 10  7 31  0  9  0.0000000  0  8G14G27G11G09G17G12G20G28
 -15582981.60648 -12130777.84446  22095886.2344   22095876.3674
        50.0004         38.5004
  -6817384.09447  -5292857.45745  23569965.5474   23569957.3204
        44.2504         33.0004
 -14366669.92948 -11168377.85546  21628205.6484   21628194.9024
        51.5004         41.2504
 -10618642.29348  -8249052.02146  22224380.8134   22224371.7664
        48.2504         36.7504
 -18386280.70948 -14298072.61447  21406251.6094   21406241.6254
        52.5004         45.5004
  -3212462.10146  -2493679.71244  24303050.2344   24303040.7194
        40.2504         25.5004
 -10543372.73347  -8197764.40345  22952634.9694   22952624.6334
        46.7504         33.0004
  -3937159.01047  -3041652.91544  24163937.6484   24163927.2544
        42.5004         26.7504
 10  7 31  0  9 30.0000000  0  8G14G27G11G09G17G12G20G28
 -15600046.98948 -12144075.51446  22092638.5554   22092628.5124
        49.7504         38.5004
  -6749561.31047  -5240008.56345  23582872.4144   23582863.7774
        44.5004         33.2504
 -14314618.97748 -11127818.63246  21638110.7424   21638099.7624
        52.2504         41.5004
 -10556969.65348  -8200995.34246  22236116.2814   22236107.4694
        48.2504         37.0004
 -18410893.75848 -14317251.59647  21401567.6334   21401557.4734
        51.2504         45.5004
  -3314953.55246  -2573543.00744  24283546.5554   24283537.1564
        41.0004         27.7504
 -10638000.67047  -8271500.41045  22934627.5234   22934617.7734
        45.5004         32.5004
  -3837547.19947  -2964033.36344  24182892.9224   24182882.9964
        42.0004         25.2504
 10  7 31  0 10  0.0000000  0  8G14G27G11G09G17G12G20G28
 -15616481.15148 -12156881.35646  22089511.2114   22089501.4614
        50.0004         38.7504
  -6681337.63047  -5186847.32945  23595854.9384   23595846.3014
        44.5004         33.2504
 -14262019.73148 -11086832.19846  21648119.7114   21648109.1994
        52.0004         40.5004
 -10494656.06748  -8152439.28246  22247974.6954   22247965.4144
        49.0004         36.5004
 -18434910.61848 -14335966.00847  21396997.8284   21396987.9024
        50.7504         45.5004
  -3417161.20047  -2653185.29844  24264096.7344   24264087.3364
        42.5004         27.5004
 -10732261.19947  -8344950.11645  22916690.5864   22916680.4844
        46.7504         33.5004
  -3737695.38246  -2886226.78144  24201893.7974   24201883.8134
        41.0004         26.0004
 10  7 31  0 10 30.0000000  0  8G14G27G11G09G17G12G20G28
 -15632284.74548 -12169195.83546  22086504.2274   22086494.2424
        50.0004         38.5004
  -6612715.69647  -5133375.73245  23608913.1884   23608904.4924
        43.5004         33.2504
 -14208874.50548 -11045420.31046  21658232.8834   21658222.7814
        51.5004         41.2504
 -10431704.35648  -8103385.95146  22259954.0864   22259944.6294
        48.0004         36.5004
 -18458330.89848 -14354215.56747  21392540.9844   21392531.0594
        52.0004         45.7504
  -3519082.82647  -2732604.65144  24244702.1414   24244692.3324
        43.0004         29.2504
 -10826152.55747  -8418112.20145  22898824.1484   22898813.5204
        47.2504         34.0004
  -3637606.58946  -2808235.55344  24220940.3364   24220930.1764
        41.2504         25.5004
 10  7 31  0 11  0.0000000  0  8G14G27G11G09G17G12G20G28
 -15647456.02848 -12181017.61546  22083616.9064   22083607.2154
        49.5004         38.5004
  -6543696.79247  -5079594.84245  23622047.0004   23622038.5984
        43.2504         33.5004
 -14155184.59048 -11003584.04146  21668450.0084   21668439.1454
        52.5004         41.5004
 -10368116.07047  -8053836.60246  22272054.2194   22272044.9964
        46.7504         36.7504
 -18481153.16348 -14371999.10947  21388198.0314   21388187.6374
        52.0004         45.5004
  -3620714.94947  -2811798.47344  24225362.5084   24225352.4064
        43.7504         29.7504
 -10919671.41347  -8490984.02045  22881027.3444   22881017.2424
        46.5004         32.7504
  -3537282.47346  -2730060.96244  24240030.8984   24240020.8554
        40.7504         25.0004
 10  7 31  0 11 30.0000000  0  8G14G27G11G09G17G12G20G28
 -15661994.29948 -12192346.13346  22080850.4924   22080840.5664
        50.0004         38.7504
  -6474282.84847  -5025506.09645  23635256.1174   23635247.3634
        44.2504         33.0004
 -14100951.54548 -10961324.55246  21678770.2664   21678759.5204
        51.2504         41.0004
 -10303893.93247  -8003793.35746  22284275.3054   22284266.3164
        46.0004         36.2504
 -18503376.24948 -14389315.77947  21383969.2734   21383959.2894
        52.2504         45.5004
  -3722054.81747  -2890764.54845  24206077.8834   24206068.4264
        44.0004         30.0004
 -11012815.25747  -8563563.60445  22863302.7504   22863292.8834
        46.2504         34.0004
  -3436725.61146  -2651705.01144  24259167.3524   24259156.5474
        40.0004         24.5004
 10  7 31  0 12  0.0000000  0  8G14G27G11G09G17G12G20G28
 -15675899.63548 -12203181.46046  22078204.5704   22078194.5864
        49.7504         38.7504
  -6404476.01547  -4971111.19045  23648539.9924   23648531.3554
        42.0004         33.0004
 -14046177.42848 -10918643.46646  21689193.4304   21689182.6254
        51.7504         41.2504
 -10239040.69847  -7953258.32446  22296616.0314   22296606.8674
        46.7504         36.0004
 -18524999.40748 -14406164.97647  21379854.5864   21379844.1914
        51.2504         45.5004
  -3823099.75747  -2969500.81945  24186849.4774   24186840.0204
        43.5004         30.7504
 -11105581.57147  -8635849.00145  22845650.0784   22845640.0944
        47.2504         34.7504
  -3335938.86746  -2573169.93543  24278345.9384   24278335.6024
        40.2504         22.7504
 10  7 31  0 12 30.0000000  0  8G14G27G11G09G17G12G20G28
 -15689171.31648 -12213523.02346  22075679.0864   22075668.9844
        49.5004         38.7504
  -6334278.41047  -4916411.79345  23661898.1094   23661889.7664
        43.0004         33.2504
 -13990864.36848 -10875542.41346  21699719.1334   21699708.6214
        51.7504         40.7504
 -10173558.77147  -7902233.40246  22309077.4224   22309067.5554
        47.7504         36.0004
 -18546021.72648 -14422545.97247  21375853.9844   21375843.6484
        50.0004         45.7504
  -3923847.16747  -3048005.23945  24167677.9064   24167668.4494
        44.2504         30.5004
 -11197967.84747  -8707838.27445  22828069.2894   22828059.5394
        46.0004         33.5004
  -3234924.39746  -2494457.39243  24297568.3594   24297557.9654
        38.7504         22.5004
 10  7 31  0 13  0.0000000  0  8G14G27G11G09G17G12G20G28
 -15701808.92148 -12223370.48046  22073274.1024   22073264.1174
        49.5004         39.2504
  -6263692.23247  -4861409.61845  23675330.6094   23675321.5044
        42.5004         33.0004
 -13935014.05548 -10832022.72246  21710347.2344   21710336.6644
        51.5004         41.0004
 -10107451.44747  -7850721.18746  22321656.7814   22321647.5594
        46.7504         36.2504
 -18566443.23148 -14438458.79947  21371967.9534   21371957.5004
        50.0004         46.0004
  -4024294.34847  -3126275.72045  24148563.5164   24148554.0594
        43.5004         31.0004
 -11289971.60547  -8779529.48045  22810561.5474   22810551.5044
        46.0004         34.0004
  -3133684.97246  -2415569.56944  24316833.1644   24316823.4144
        38.5004         24.2504
 10  7 31  0 13 30.0000000  0  8G14G27G11G09G17G12G20G28
 -15713812.02248 -12232723.57646  22070989.9224   22070979.9384
        49.5004         39.0004
  -6192719.56247  -4806106.27745  23688836.4774   23688827.3134
        42.2504         32.0004
 -13878628.31248 -10788085.78746  21721076.9304   21721066.1254
        50.7504         40.2504
 -10040720.92347  -7798723.44345  22334355.5314   22334345.8404
        45.7504         35.5004
 -18586262.90848 -14453902.67947  21368196.2424   21368186.0234
        51.7504         45.5004
  -4124438.96947  -3204310.51745  24129506.1094   24129496.9454
        44.0004         30.0004
 -11381590.41747  -8850920.72745  22793127.2114   22793116.9924
        45.7504         34.2504
  -3032222.76446  -2336508.16043  24336141.4694   24336131.4844
        37.7504         22.7504
 10  7 31  0 14  0.0000000  0  8G14G27G11G09G17G12G20G28
 -15725180.61148 -12241582.19946  22068826.6884   22068816.1764
        49.7504         38.2504
  -6121362.59847  -4750503.51045  23702414.9534   23702406.3754
        42.2504         32.2504
 -13821709.45248 -10743733.45046  21731908.2504   21731897.5044
        51.0004         40.2504
  -9973369.87647  -7746242.17845  22347171.7814   22347162.5594
        46.2504         35.5004
 -18605480.22148 -14468877.19247  21364539.2584   21364529.1564
        51.7504         45.7504
  -4224278.31347  -3282107.39045  24110507.4614   24110497.8874
        44.0004         30.0004
 -11472821.80747  -8922010.07945  22775766.3754   22775756.3914
        44.5004         35.0004
  -2930540.85346  -2257275.54643  24355490.6414   24355480.5984
        37.7504         23.5004
 10  7 31  0 14 30.0000000  0  8G14G27G11G09G17G12G20G28
 -15735913.29448 -12249945.31546  22066784.3444   22066774.2424
        50.0004         38.7504
  -6049622.63447  -4694602.29745  23716067.0234   23716057.9184
        42.7504         31.7504
 -13764258.22848 -10698966.23846  21742840.9844   21742830.5314
        51.2504         40.5004
  -9905400.44247  -7693279.00845  22360106.1644   22360096.7074
        46.5004         34.5004
 -18624093.46448 -14483380.99847  21360997.3284   21360987.0514
        51.5004         46.2504
  -4323808.77347  -3359663.53444  24091568.3674   24091558.2074
        44.0004         29.7504
 -11563662.58447  -8992795.06045  22758480.0864   22758470.0434
        45.0004         35.2504
  -2828640.85246  -2177872.97543  24374881.4304   24374871.3284
        38.2504         23.0004
 10  7 31  0 15  0.0000000  0  8G14G27G11G09G17G12G20G28
 -15746010.71948 -12257813.42746  22064862.9844   22064852.8834
        49.7504         38.7504
  -5977502.30247  -4638404.64745  23729790.2894   23729781.5354
        42.7504         32.0004
 -13706277.48548 -10653786.39746  21753874.1644   21753863.3594
        50.2504         40.0004
  -9836815.58347  -7639836.28346  22373157.6724   22373148.0394
        46.7504         36.0004
 -18642102.75148 -14497414.18347  21357570.2114   21357559.8164
        51.7504         45.7504
  -4423028.38247  -3436977.49344  24072687.0394   24072677.1134
        44.5004         28.0004
 -11654110.66147  -9063274.04845  22741268.3524   22741258.1914
        45.5004         34.5004
  -2726525.82646  -2098302.82144  24394314.2504   24394304.0314
        38.0004         24.0004
 10  7 31  0 15 30.0000000  0  8G14G27G11G09G17G12G20G28
 -15755472.00648 -12265185.87046  22063062.2034   22063052.1604
        49.5004         38.7504
  -5905003.58947  -4581912.10545  23743586.9774   23743577.8714
        42.2504         31.2504
 -13647769.06448 -10608195.43446  21765007.8364   21764997.0904
        50.7504         40.2504
  -9767617.89047  -7585916.01845  22386325.2814   22386316.2344
        46.2504         34.5004
 -18659507.00448 -14510975.90747  21354258.0554   21354248.0124
        50.5004         45.7504
  -4521934.11047  -3514046.88544  24053865.3284   24053856.0474
        42.5004         29.0004
 -11744163.18547  -9133444.80545  22724131.8984   22724121.5634
        46.2504         35.0004
  -2624197.99046  -2018566.86244  24413786.1724   24413775.5434
        39.0004         24.0004
 10  7 31  0 16  0.0000000  0  8G14G27G11G09G17G12G20G28
 -15764296.13548 -12272061.83246  22061383.0554   22061372.8954
        50.2504         38.5004
  -5832128.03547  -4525125.99145  23757454.5864   23757445.3054
        42.0004         31.5004
 -13588733.70048 -10562193.77046  21776241.9064   21776231.3364
        51.0004         40.5004
  -9697809.79347  -7531520.14745  22399609.1884   22399600.0824
        47.0004         35.7504
 -18676304.86448 -14524065.13347  21351061.7114   21351051.6094
        50.7504         46.0004
  -4620522.64447  -3590869.08444  24035104.9144   24035094.6954
        43.0004         28.2504
 -11833817.16447  -9203304.97546  22707071.1484   22707061.1054
        45.2504         36.0004
  -2521659.23346  -1938666.54543  24433298.6484   24433288.1954
        38.5004         22.5004
 10  7 31  0 16 30.0000000  0  8G14G27G11G09G17G12G20G28
 -15772483.71448 -12278441.76046  22059825.2734   22059814.8204
        49.5004         38.7504
  -5758878.35646  -4468048.27745  23771393.3754   23771384.8554
        41.0004         30.0004
 -13529174.70848 -10515784.23746  21787575.8674   21787565.2384
        51.0004         40.7504
  -9627394.28347  -7476650.97345  22413009.0084   22412999.6684
        45.0004         35.5004
 -18692496.69148 -14536682.14247  21347980.4774   21347970.6684
        51.7504         46.0004
  -4718792.38947  -3667442.93644  24016404.7194   24016394.7934
        43.7504         27.5004
 -11923070.92247  -9272853.29946  22690086.7424   22690076.5234
        46.7504         36.0004
  -2418912.70346  -1858604.33943  24452849.8754   24452839.5394
        38.7504         21.7504
 10  7 31  0 17  0.0000000  0  8G14G27G11G09G17G12G20G28
 -15780034.32248 -12284325.41346  22058388.3134   22058378.2114
        49.2504         39.0004
  -5685256.37046  -4410680.36945  23785402.5234   23785393.8284
        41.5004         30.0004
 -13469093.66348 -10468968.03846  21799008.9144   21798998.3444
        49.7504         40.2504
  -9556373.81347  -7421310.36745  22426523.5784   22426514.2974
        46.5004         35.0004
 -18708081.46948 -14548826.14947  21345014.9924   21345004.6564
        52.5004         46.0004
  -4816739.91047  -3743765.68544  23997765.7424   23997756.1094
        42.5004         26.7504
 -12011921.90747  -9342087.83945  22673178.7194   22673168.7344
        46.0004         35.5004
  -2315960.63546  -1778381.94743  24472441.6804   24472431.1684
        39.0004         21.7504
 10  7 31  0 17 30.0000000  0  8G14G27G11G09G17G12G20G28
 -15786947.37248 -12289712.22246  22057072.5784   22057062.8874
        49.5004         38.5004
  -5611264.43046  -4353024.34444  23799483.1484   23799474.1604
        41.0004         29.5004
 -13408491.72348 -10421745.73346  21810541.0864   21810530.5744
        50.5004         40.0004
  -9484751.06247  -7365500.44145  22440152.9304   22440143.7074
        46.0004         35.0004
 -18723058.34848 -14560496.44947  21342164.8594   21342154.6414
        52.0004         46.0004
  -4914362.36746  -3819835.12544  23979189.0004   23979179.1914
        41.5004         27.0004
 -12100366.88447  -9411005.97245  22656348.2664   22656337.6374
        46.5004         34.5004
  -2212805.62246  -1698001.44143  24492071.5234   24492061.0704
        40.0004         22.7504
 10  7 31  0 18  0.0000000  0  8G14G27G11G09G17G12G20G28
 -15793223.08248 -12294602.42446  22055878.4694   22055868.5434
        49.2504         38.7504
  -5536904.77946  -4295081.77944  23813633.4924   23813624.0944
        40.7504         29.5004
 -13347370.94748 -10374118.92346  21822171.7894   21822161.0434
        50.7504         40.0004
  -9412529.45247  -7309223.97845  22453896.3674   22453886.6764
        46.0004         34.5004
 -18737427.42748 -14571693.12747  21339430.4534   21339420.4694
        52.2504         46.0004
  -5011657.56346  -3895649.55244  23960673.9924   23960664.7704
        39.0004         27.2504
 -12188404.03347  -9479606.32845  22639595.5634   22639585.0514
        46.0004         35.5004
  -2109450.06546  -1617464.64543  24511739.1954   24511729.2114
        40.5004         22.5004
 10  7 31  0 18 30.0000000  0  8G14G27G11G09G17G12G20G28
 -15798860.93748 -12298995.60246  22054805.8204   22054795.5434
        49.0004         39.0004
  -5462179.33146  -4236854.19944  23827853.5944   23827844.3134
        41.0004         29.5004
 -13285734.00748 -10326090.08046  21833900.9144   21833890.4024
        50.5004         40.2504
  -9339711.30347  -7252482.66645  22467753.4064   22467744.1844
        44.7504         34.5004
 -18751187.50548 -14582415.24147  21336812.1804   21336802.0204
        51.7504         46.0004
  -5108622.33246  -3971206.46544  23942222.7344   23942212.9844
        41.2504         26.5004
 -12276030.41647  -9547886.56745  22622920.5634   22622910.3444
        46.2504         35.5004
  -2005896.82346  -1536773.82344  24531445.5474   24531434.6254
        40.5004         24.7504
 10  7 31  0 19  0.0000000  0  8G14G27G11G09G17G12G20G28
 -15803860.74848 -12302891.61346  22053854.3754   22053844.4494
        50.2504         39.0004
  -5387090.40146  -4178343.41044  23842142.2274   23842133.4144
        40.7504         29.0004
 -13223582.96848 -10277660.65646  21845727.6954   21845717.1844
        51.5004         40.7504
  -9266299.37247  -7195278.67245  22481723.4144   22481713.9574
        44.7504         35.0004
 -18764338.19348 -14592662.53647  21334309.6564   21334299.2034
        52.5004         46.5004
  -5205254.30047  -4046504.11744  23923834.2194   23923824.1174
        42.2504         28.0004
 -12363244.04547  -9615845.19945  22606323.7974   22606313.9884
        46.7504         35.0004
  -1902147.88546  -1455930.50943  24551187.5864   24551177.3094
        40.5004         22.5004
 10  7 31  0 19 30.0000000  0  8G14G27G11G09G17G12G20G28
 -15808222.60948 -12306290.51546  22053024.6644   22053014.3284
        50.0004         38.5004
  -5311640.20546  -4119551.15444  23856500.5234   23856491.5354
        41.2504         27.0004
 -13160919.90748 -10228832.27546  21857652.2584   21857641.5704
        50.5004         39.5004
  -9192296.46547  -7137614.06545  22495805.7194   22495796.3794
        46.2504         34.2504
 -18776879.05848 -14602434.64247  21331923.1414   21331912.8054
        52.5004         45.7504
  -5301550.73447  -4121540.30744  23905509.7584   23905499.4224
        43.5004         28.5004
 -12450041.87247  -9683479.82345  22589806.7814   22589796.9144
        47.0004         35.2504
  -1798205.82746  -1374936.68243  24570967.4534   24570957.3524
        40.0004         23.7504
 10  7 31  0 20  0.0000000  0  8G14G27G11G09G17G12G20G28
 -15811946.44648 -12309192.29346  22052315.8054   22052305.9964
        50.0004         38.5004
  -5235830.70846  -4060478.84244  23870925.6414   23870917.0634
        41.5004         28.5004
 -13097746.53948 -10179606.22346  21869673.5394   21869662.7344
        51.0004         39.5004
  -9117705.47947  -7079491.23845  22509999.8674   22509990.4104
        44.2504         34.7504
 -18788809.93748 -14611731.43947  21329652.8754   21329642.7154
        53.5004         45.7504
  -5397509.05347  -4196313.01844  23887248.9454   23887239.0204
        43.5004         28.7504
 -12536421.95147  -9750788.90345  22573369.4454   22573359.5204
        47.0004         35.0004
  -1694073.49546  -1293794.61143  24590783.3364   24590772.3554
        40.5004         21.7504
 10  7 31  0 20 30.0000000  0  8G14G27G11G09G17G12G20G28
 -15815031.31948 -12311596.16546  22051728.8444   22051718.9184
        50.0004         38.7504
  -5159663.62647  -4001127.96244  23885420.0394   23885411.6374
        42.7504         28.5004
 -13034064.40248 -10129983.74146  21881792.0474   21881781.1254
        50.7504         39.2504
  -9042528.60847  -7020911.91045  22524305.0474   22524296.4104
        45.0004         34.2504
 -18800129.36648 -14620551.78647  21327498.8984   21327488.5634
        52.7504         45.7504
  -5493125.95847  -4270819.68244  23869053.3834   23869044.1604
        43.0004         29.7504
 -12622380.63647  -9817769.61445  22557011.7734   22557001.7894
        47.0004         35.2504
  -1589752.44846  -1212505.48543  24610634.2034   24610624.2774
        40.0004         21.7504
 10  7 31  0 21  0.0000000  0  8G14G27G11G09G17G12G20G28
 -15817477.27848 -12313502.16846  22051263.2734   22051253.5824
        49.5004         38.7504
  -5083141.29747  -3941500.25345  23899982.5164   23899973.0004
        43.5004         30.5004
 -12969876.19448 -10079967.00046  21894006.5084   21893995.7624
        51.0004         39.7504
  -8966768.99047  -6961878.45945  22538721.9844   22538712.7034
        44.5004         33.7504
 -18810837.33548 -14628895.64847  21325461.0004   21325450.8984
        52.5004         46.0004
  -5588399.03147  -4345058.41944  23850923.6644   23850914.2664
        43.7504         29.7504
 -12707915.95747  -9884420.43045  22540735.6484   22540725.0204
        47.0004         35.5004
  -1485245.61946  -1131071.61843  24630521.0084   24630510.9064
        38.0004         21.2504
 10  7 31  0 21 30.0000000  0  8G14G27G11G09G17G12G20G28
 -15819284.78148 -12314910.65146  22050919.4454   22050909.6954
        49.2504         39.5004
  -5006266.35547  -3881597.75544  23914611.3834   23914602.3364
        43.2504         29.7504
 -12905183.84348 -10029557.45046  21906317.1884   21906306.4414
        51.2504         39.7504
  -8890430.09547  -6902393.63045  22553248.9144   22553239.3984
        44.2504         34.0004
 -18820933.69948 -14636762.93247  21323539.8524   21323529.5164
        53.2504         46.0004
  -5683325.86247  -4419027.34445  23832859.9224   23832850.2304
        44.5004         31.7504
 -12793026.17747  -9950740.00445  22524539.4304   22524528.9184
        47.2504         35.7504
  -1380555.83746  -1049495.14243  24650443.3054   24650433.2034
        39.5004         21.0004
 10  7 31  0 22  0.0000000  0  8G14G27G11G09G17G12G20G28
 -15820453.27448 -12315821.14246  22050697.4384   22050686.8094
        50.5004         39.0004
  -4929040.37647  -3821421.72044  23929306.4384   23929298.0354
        43.5004         29.5004
 -12839988.79448  -9978756.08246  21918723.3284   21918711.8794
        51.5004         39.7504
  -8813513.96547  -6842458.96845  22567885.6954   22567876.3554
        45.0004         34.7504
 -18830417.21048 -14644152.67947  21321735.2424   21321724.9064
        52.7504         46.0004
  -5777903.44847  -4492724.20745  23814862.0634   23814853.0744
        44.7504         32.0004
 -12877707.87248 -10016725.65845  22508424.5944   22508414.6094
        48.5004         35.5004
  -1275684.84346   -967777.52743  24670399.3134   24670389.0354
        39.7504         21.0004
 10  7 31  0 22 30.0000000  0  8G14G27G11G09G17G12G20G28
 -15820983.30048 -12316234.10046  22050596.8054   22050586.1764
        50.0004         38.7504
  -4851466.11346  -3760974.31045  23944068.3364   23944059.8754
        40.2504         30.0004
 -12774293.96648  -9927565.33146  21931224.3914   21931213.5864
        51.5004         39.5004
  -8736024.54247  -6782077.63745  22582631.4064   22582622.3594
        44.7504         34.7504
 -18839288.03048 -14651065.00147  21320047.1024   21320037.0004
        53.0004         46.0004
  -5872129.18047  -4566146.80545  23796932.3754   23796922.5664
        45.0004         34.5004
 -12961959.45448 -10082376.18746  22492392.1884   22492381.9104
        49.0004         36.2504
  -1170635.63746   -885921.03343  24690390.3054   24690379.8524
        40.2504         22.0004
 10  7 31  0 23  0.0000000  0  8G14G27G11G09G17G12G20G28
 -15820874.74748 -12316149.55846  22050617.1954   22050606.7424
        49.5004         39.2504
  -4773545.41147  -3700256.96045  23958895.9844   23958887.5234
        43.2504         30.0004
 -12708100.99248  -9875986.37946  21943820.4384   21943810.3364
        50.7504         38.5004
  -8657964.04947  -6721251.32145  22597485.6724   22597476.9184
        44.0004         33.5004
 -18847545.73748 -14657499.57147  21318475.8364   21318465.5004
        52.7504         46.0004
  -5966000.39947  -4639293.23345  23779069.1954   23779059.5044
        45.2504         33.2504
 -13045778.12948 -10147689.44446  22476442.2504   22476431.5044
        48.7504         36.2504
  -1065410.37246   -803927.31143  24710413.3914   24710403.5824
        39.5004         22.5004
 10  7 31  0 23 30.0000000  0  8G14G27G11G09G17G12G20G28
 -15820127.59248 -12315567.38046  22050759.3054   22050749.2624
        49.5004         39.2504
  -4695280.61946  -3639271.42444  23973789.4454   23973781.1024
        41.7504         29.5004
 -12641412.07948  -9824021.01546  21956511.2974   21956500.0234
        50.7504         39.2504
  -8579335.50547  -6659982.36645  22612448.4774   22612439.6054
        44.7504         33.2504
 -18855190.45148 -14663456.49847  21317020.8834   21317010.7814
        53.0004         46.0004
  -6059514.49647  -4712161.33145  23761273.7194   23761264.2624
        45.7504         34.0004
 -13129161.40948 -10212663.39146  22460574.7274   22460564.0394
        48.0004         36.0004
   -960012.24746   -721798.92543  24730470.0474   24730460.0044
        39.5004         22.0004
 10  7 31  0 24  0.0000000  0  8G14G27G11G09G17G12G20G28
 -15818741.24548 -12314487.08946  22051022.9224   22051013.0554
        50.0004         38.7504
  -4616673.48547  -3578019.19245  23988748.2504   23988740.1414
        42.7504         30.5004
 -12574229.16248  -9771670.76046  21969295.7974   21969285.2854
        50.2504         39.5004
  -8500141.10747  -6598272.42945  22627518.6024   22627509.4964
        43.5004         34.7504
 -18862220.86348 -14668934.72147  21315682.7974   21315672.9884
        53.0004         46.0004
  -6152668.48347  -4784748.83745  23743547.1094   23743537.3014
        46.0004         34.2504
 -13212106.52748 -10277295.91846  22444790.9774   22444780.2894
        48.0004         36.0004
   -854442.77946   -639536.98443  24750559.4534   24750549.0004
        39.0004         22.0004
 10  7 31  0 24 30.0000000  0  8G14G27G11G09G17G12G20G28
 -15816716.36248 -12312909.30846  22051408.6954   22051398.1844
        50.2504         38.7504
  -4537726.08147  -3516501.69045  24003771.0394   24003762.8714
        43.5004         31.2504
 -12506554.53348  -9718937.35146  21982173.8674   21982163.4144
        50.0004         39.5004
  -8420384.30747  -6536124.23845  22642695.3444   22642686.7664
        44.0004         34.0004
 -18868636.96248 -14673934.25247  21314462.1334   21314451.8554
        53.7504         46.0004
  -6245459.87447  -4857053.82745  23725889.0784   23725879.8554
        45.7504         32.5004
 -13294611.11348 -10341585.12146  22429090.5474   22429079.9774
        48.0004         36.5004
   -748704.74946   -557143.74443  24770682.1094   24770670.4844
        39.0004         22.0004
 10  7 31  0 25  0.0000000  0  8G14G27G11G09G17G12G20G28
 -15814053.05248 -12310833.97946  22051915.4224   22051905.2034
        50.0004         39.5004
  -4458441.46847  -3454721.55945  24018859.0004   24018850.5394
        43.5004         30.7504
 -12438390.11448  -9665822.21746  21995145.2274   21995134.5984
        51.7504         39.5004
  -8340068.49847  -6473540.48245  22657979.4774   22657970.4884
        43.7504         34.0004
 -18874438.57248 -14678454.94947  21313357.9224   21313347.8204
        53.0004         46.0004
  -6337886.23347  -4929074.40845  23708301.6174   23708291.5744
        45.5004         32.0004
 -13376673.12748 -10405529.44945  22413474.4384   22413464.3364
        48.2504         35.5004
   -642800.87646   -474621.24843  24790834.0314   24790823.4024
        39.5004         22.0004
 10  7 31  0 25 30.0000000  0  8G14G27G11G09G17G12G20G28
 -15810751.02948 -12308261.11946  22052543.7814   22052533.2704
        50.0004         39.2504
  -4378821.00947  -3392679.74745  24034010.2814   24034001.9964
        43.2504         30.5004
 -12369737.87248  -9612326.99146  22008208.9924   22008198.6564
        50.2504         38.7504
  -8259196.37047  -6410523.31745  22673368.7814   22673360.3794
        43.7504         33.7504
 -18879624.78148 -14682496.11647  21312371.2034   21312360.8094
        53.5004         45.7504
  -6429944.01547  -5000807.75645  23690783.5554   23690773.8634
        45.5004         31.7504
 -13458289.48347 -10469126.52245  22397943.3204   22397933.2194
        47.7504         35.7504
   -536732.90746   -391970.88943  24811017.6334   24811006.8284
        40.5004         21.7504
 10  7 31  0 26  0.0000000  0  8G14G27G11G09G17G12G20G28
 -15806810.84648 -12305190.99546  22053293.8284   22053283.5514
        48.7504         39.0004
  -4298867.19846  -3330378.12245  24049224.7664   24049216.6564
        41.0004         30.7504
 -12300600.30148  -9558453.58146  22021365.5784   22021354.8914
        50.5004         39.2504
  -8177770.70347  -6347074.71945  22688863.3914   22688854.3444
        43.2504         34.7504
 -18884195.82648 -14686057.95147  21311501.1174   21311491.0164
        53.0004         46.0004
  -6521630.84347  -5072251.95945  23673335.8524   23673326.2194
        45.5004         32.7504
 -13539458.47948 -10532375.01246  22382497.5944   22382487.0234
        48.5004         36.0004
   -430504.00747   -309195.12843  24831232.1414   24831221.8634
        42.2504         22.7504
 10  7 31  0 26 30.0000000  0  8G14G27G11G09G17G12G20G28
 -15802232.84148 -12301623.86046  22054164.7194   22054154.5004
        48.0004         38.5004
  -4218582.40846  -3267818.49045  24064502.6954   24064494.2344
        41.2504         30.0004
 -12230979.51948  -9504203.60646  22034614.1094   22034603.3054
        50.5004         38.7504
  -8095794.84347  -6283197.46245  22704463.1174   22704454.1294
        43.2504         34.0004
 -18888152.01048 -14689140.66747  21310748.5394   21310738.3794
        53.0004         46.5004
  -6612944.85747  -5143405.75345  23655959.5004   23655949.7504
        45.5004         33.0004
 -13620178.05547 -10595273.33546  22367136.9534   22367126.3834
        47.2504         37.0004
   -324116.79747   -226296.00543  24851476.7504   24851466.6484
        43.5004         22.5004
 10  7 31  0 27  0.0000000  0  8G14G27G11G09G17G12G20G28
 -15797016.83848 -12297559.49646  22055157.3674   22055147.6764
        49.0004         39.5004
  -4137969.10547  -3205002.91444  24079842.7894   24079834.2704
        45.0004         29.7504
 -12160877.89048  -9449579.00846  22047953.7894   22047943.5124
        50.5004         38.5004
  -8013271.69347  -6218893.75045  22720167.1484   22720157.7504
        44.7504         35.0004
 -18891492.68148 -14691743.75947  21310113.0084   21310102.5554
        53.2504         46.2504
  -6703883.20547  -5214266.83745  23638654.3834   23638644.6334
        43.7504         33.0004
 -13700444.74748 -10657818.77346  22351862.7504   22351852.1214
        48.5004         37.0004
   -217573.66747   -143275.37843  24871751.8444   24871740.6294
        43.5004         22.2504
 10  7 31  0 27 30.0000000  0  8G14G27G11G09G17G12G20G28
 -15791162.51448 -12292997.75146  22056271.5314   22056262.5434
        49.2504         39.0004
  -4057029.06647  -3141932.82345  24095245.1174   24095236.9494
        44.5004         30.2504
 -12090296.89748  -9394580.84546  22061385.0314   22061374.4614
        50.0004         38.5004
  -7930204.11947  -6154165.86745  22735973.8984   22735965.1454
        45.0004         34.7504
 -18894217.07348 -14693866.61047  21309594.1954   21309584.0354
        53.0004         46.0004
  -6794442.38047  -5284832.44745  23621421.5634   23621411.9884
        44.2504         31.7504
 -13780256.54348 -10720009.72546  22336674.9454   22336664.9614
        48.0004         37.5004
   -110876.13247    -60134.43343  24892054.9694   24892044.8674
        43.0004         22.0004
 10  7 31  0 28  0.0000000  0  8G14G27G11G09G17G12G20G28
 -15784670.44448 -12287939.16646  22057507.1484   22057496.9884
        48.0004         38.7504
  -3975764.08447  -3078609.40144  24110709.1174   24110700.8324
        43.5004         29.5004
 -12019238.88848  -9339210.99346  22074907.1254   22074896.3204
        50.5004         38.5004
  -7846595.04147  -6089016.07045  22751884.7114   22751875.1374
        44.7504         34.5004
 -18896324.78548 -14695508.94247  21309193.0554   21309182.7194
        52.5004         46.2504
  -6884620.06146  -5355100.74745  23604261.1804   23604251.6054
        41.7504         31.2504
 -13859611.01748 -10781844.35546  22321574.2664   22321563.9304
        48.2504         37.0004
     -4027.17447     23124.53343  24912387.8364   24912377.6764
        43.2504         22.7504
 10  7 31  0 28 30.0000000  0  8G14G27G11G09G17G12G20G28
 -15777541.11348 -12282383.99246  22058864.0004   22058853.7814
        48.5004         39.2504
  -3894177.28747  -3015035.27244  24126234.6174   24126225.9804
        44.2504         29.0004
 -11947706.29748  -9283471.29646  22088519.1804   22088508.4924
        49.2504         37.7504
  -7762447.48347  -6023446.51645  22767897.4224   22767888.3164
        44.0004         35.0004
 -18897816.63148 -14696671.37747  21308909.0634   21308899.2544
        52.2504         46.0004
  -6974414.02546  -5425070.06445  23587173.5234   23587164.7704
        40.2504         30.2504
 -13938506.23948 -10843321.10046  22306561.0234   22306550.6294
        48.5004         37.5004
    102970.49447    106499.34243  24932749.7034   24932738.8984
        42.0004         22.0004
 10  7 31  0 29  0.0000000  0  8G14G27G11G09G17G12G20G28
 -15769774.83148 -12276332.34946  22060341.8984   22060331.7384
        49.5004         39.2504
  -3812270.91847  -2951212.22744  24141821.0394   24141812.4614
        43.0004         29.2504
 -11875701.60848  -9227363.74946  22102221.3444   22102210.8324
        49.5004         38.0004
  -7677765.58847  -5957460.93045  22784012.0234   22784002.9184
        44.5004         34.0004
 -18898692.45348 -14697353.80747  21308742.4454   21308731.9924
        53.5004         46.0004
  -7063821.21047  -5494737.99645  23570160.0234   23570150.8014
        42.5004         30.5004
 -14016939.55748 -10904437.93046  22291635.7504   22291625.3554
        48.7504         38.0004
    210114.48047    189988.13343  24953137.8914   24953127.4384
        42.5004         21.5004
 10  7 31  0 29 30.0000000  0  8G14G27G11G09G17G12G20G28
 -15761371.80548 -12269784.49246  22061940.8284   22061930.9614
        49.7504         39.0004
  -3730046.98747  -2887141.68744  24157467.5394   24157459.2544
        43.5004         28.0004
 -11803226.63048  -9170889.75046  22116012.6724   22116002.3954
        49.7504         37.7504
  -7592551.25747  -5891060.19645  22800227.6564   22800218.9024
        45.5004         34.7504
 -18898951.97448 -14697555.99947  21308693.0554   21308682.8364
        52.5004         46.0004
  -7152839.32846  -5564102.77745  23553221.0004   23553211.1914
        41.2504         30.0004
 -14094908.77048 -10965193.13946  22276798.7814   22276788.3284
        49.0004         38.0004
    317402.03646    273588.82643  24973553.7114   24973543.4924
        41.5004         20.0004
 10  7 31  0 30  0.0000000  0  7G14G27G11G09G17G12G20
 -15752333.96048 -12262742.05346  22063660.7274   22063650.9184
        49.7504         39.2504
  -3647509.54947  -2822826.90944  24173174.1644   24173165.5274
        44.0004         27.0004
 -11730285.38448  -9114052.42046  22129893.1024   22129882.1804
        50.0004         37.7504
  -7506809.72047  -5824248.69845  22816543.4844   22816535.1994
        44.7504         34.2504
 -18898596.76348 -14697279.20047  21308760.8594   21308750.2894
        52.7504         46.0004
  -7241467.38646  -5633163.64144  23536355.8674   23536345.6484
        40.5004         29.5004
 -14172413.24648 -11025586.21646  22262050.0314   22262039.5204
        49.0004         38.2504
 10  7 31  0 30 30.0000000  0  8G04G14G27G11G09G17G12G20
                                  24719847.680
        41.500
 -15742657.13548 -12255201.42246  22065501.8204   22065492.1294
        50.5004         39.2504
  -3564656.64347  -2758266.30244  24188940.6414   24188932.2974
        43.2504         28.0004
 -11656876.03048  -9056850.30746  22143862.4534   22143851.5904
        50.0004         37.5004
  -7420539.72347  -5757025.39345  22832960.0004   22832951.8324
        44.0004         33.5004
 -18897622.12848 -14696519.73547  21308946.1254   21308935.9064
        52.2504         46.0004
  -7329698.51146  -5701915.18644  23519565.8594   23519555.9924
        41.5004         29.7504
 -14249446.39948 -11085612.06546  22247390.9534   22247380.9694
        48.5004         37.7504
 10  7 31  0 31  0.0000000  0  8G04G14G27G11G09G17G12G20
   -126789.65446    -68728.97854  24697259.7114   24697250.9574
        40.7504         25.0004
 -15732338.49848 -12247160.93346  22067465.2194   22067455.2934
        50.2504         39.2504
  -3481486.32747  -2693458.35644  24204767.3674   24204758.5554
        42.5004         26.5004
 -11582996.70248  -8999282.03146  22157921.2974   22157910.3754
        50.0004         38.0004
  -7333740.41347  -5689389.55145  22849477.5084   22849469.2234
        43.5004         33.2504
 -18896024.04648 -14695274.47247  21309250.2894   21309240.3054
        52.5004         45.7504
  -7417525.89747  -5770352.10845  23502852.6724   23502843.2154
        42.5004         30.7504
 -14326001.73548 -11145265.60346  22232823.2194   22232812.7074
        49.0004         38.5004
 10  7 31  0 31 30.0000000  0  8G04G14G27G11G09G17G12G20
   -245356.53946   -161118.60043  24674697.7114   24674688.9574
        40.2504         23.0004
 -15721390.54548 -12238629.87946  22069548.5554   22069538.7464
        50.0004         39.5004
  -3398013.70147  -2628414.84444  24220651.5004   24220643.5664
        42.0004         26.5004
 -11508662.51148  -8941359.31846  22172066.4694   22172055.6054
        50.0004         37.5004
  -7246427.84947  -5621353.88945  22866092.7734   22866083.9024
        43.7504         33.0004
 -18893815.66048 -14693553.65447  21309670.5164   21309660.5314
        52.0004         46.0004
  -7504959.93546  -5838482.56245  23486214.4844   23486205.3794
        41.2504         31.0004
 -14402090.16448 -11204555.30946  22218344.2194   22218333.5904
        49.0004         38.5004
 10  7 31  0 32  0.0000000  0  8G04G14G27G11G09G17G12G20
   -363785.78146   -253400.96944  24652161.2114   24652152.1054
        39.5004         24.5004
 -15709808.68048 -12229605.05946  22071752.7274   22071742.5084
        50.2504         39.0004
  -3314235.29247  -2563133.09744  24236594.6484   24236585.7194
        42.7504         25.2504
 -11433869.90848  -8883079.42246  22186299.0944   22186288.3484
        49.5004         37.2504
  -7158599.08847  -5552915.94245  22882805.9694   22882797.1564
        44.0004         32.7504
 -18890991.17948 -14691352.77547  21310207.8444   21310197.7424
        52.5004         46.0004
  -7591992.18646  -5906299.95745  23469653.1414   23469642.8634
        41.7504         31.0004
 -14477703.03848 -11263474.41946  22203955.1804   22203944.8444
        48.5004         38.0004
 10  7 31  0 32 30.0000000  0  8G04G14G27G11G09G17G12G20
   -482073.92946   -345573.39844  24629651.4844   24629642.5554
        39.0004         24.0004
 -15697592.08848 -12220085.62946  22074077.3444   22074067.3594
        50.2504         39.0004
  -3230152.50747  -2497614.08044  24252594.4774   24252586.4264
        43.0004         27.2504
 -11358619.95448  -8824443.06846  22200618.7504   22200608.2384
        49.7504         37.0004
  -7070256.42547  -5484077.52945  22899617.1954   22899608.4414
        43.7504         32.5004
 -18887549.36248 -14688670.85147  21310862.8594   21310852.6414
        53.0004         45.7504
  -7678619.20747  -5973801.55445  23453168.3914   23453158.8164
        42.7504         32.0004
 -14552837.57148 -11322020.81146  22189657.7974   22189647.4024
        49.2504         38.5004
 10  7 31  0 33  0.0000000  0  8G04G14G27G11G09G17G12G20
   -600218.80346   -437634.19243  24607169.0394   24607159.8754
        38.0004         23.0004
 -15684741.19248 -12210071.89646  22076522.7274   22076512.7424
        50.0004         39.0004
  -3145767.88347  -2431859.88844  24268652.9614   24268644.8524
        43.5004         26.5004
 -11282915.37848  -8765452.45846  22215024.8134   22215014.0664
        50.5004         37.5004
  -6981403.83247  -5414841.95045  22916525.3134   22916516.9104
        45.0004         32.0004
 -18883490.63948 -14685508.23547  21311635.5084   21311625.1724
        51.5004         46.0004
  -7764838.45047  -6040985.41545  23436761.8204   23436752.1884
        43.0004         31.7504
 -14627491.68248 -11380192.84346  22175451.5944   22175441.3754
        49.0004         38.5004
 10  7 31  0 33 30.0000000  0  8G04G14G27G11G09G17G12G20
   -718217.75746   -529581.24343  24584714.4224   24584705.3754
        39.2504         22.7504
 -15671256.47448 -12199564.30446  22079088.8594   22079078.5234
        49.5004         39.0004
  -3061083.51947  -2365872.08744  24284767.8444   24284759.7344
        42.7504         26.5004
 -11206758.16848  -8706109.15246  22229517.0004   22229506.1954
        49.5004         37.2504
  -6892043.82447  -5345210.89845  22933530.4924   22933521.3874
        42.2504         31.7504
 -18878814.77448 -14681864.71947  21312525.1564   21312514.4694
        51.7504         46.2504
  -7850647.14847  -6107849.40345  23420432.7504   23420423.3524
        43.7504         32.5004
 -14701662.94948 -11437988.61746  22161337.3914   22161326.6454
        49.0004         38.5004
 10  7 31  0 34  0.0000000  0  8G04G14G27G11G09G17G12G20
   -836068.91746   -621413.27543  24562288.2274   24562279.4734
        39.0004         22.5004
 -15657138.92448 -12188563.61546  22081775.1254   22081765.1994
        49.7504         38.5004
  -2976102.12247  -2299652.80944  24300938.9774   24300930.8094
        42.2504         26.2504
 -11130151.19548  -8646415.40146  22244094.7114   22244084.3754
        49.5004         37.2504
  -6802179.86947  -5275186.98445  22950630.6884   22950622.1094
        43.7504         31.5004
 -18873522.47948 -14677740.86847  21313531.8284   21313521.6094
        51.7504         46.0004
  -7936043.14247  -6174391.72945  23404182.2894   23404173.0084
        43.0004         33.5004
 -14775349.51848 -11495406.70746  22147315.2194   22147304.5314
        49.0004         37.7504
 10  7 31  0 34 30.0000000  0  8G04G14G27G11G09G17G12G20
   -953769.51146   -713127.96543  24539890.3444   24539881.2974
        39.7504         23.0004
 -15642388.39148 -12177069.50646  22084581.9224   22084571.9964
        48.7504         38.7504
  -2890825.97247  -2233203.99044  24317166.9534   24317158.4344
        43.5004         26.2504
 -11053096.42348  -8586372.73846  22258757.8204   22258746.9574
        48.5004         37.2504
  -6711814.88547  -5204772.67745  22967826.4694   22967818.0664
        43.2504         31.5004
 -18867613.53348 -14673136.50047  21314656.2114   21314647.0474
        52.0004         46.0004
  -8021023.91947  -6240610.56045  23388010.8204   23388001.2464
        43.2504         33.7504
 -14848548.84848 -11552445.17546  22133385.5474   22133374.9774
        48.7504         38.2504
 10  7 31  0 35  0.0000000  0  8G04G14G27G11G09G17G12G20
  -1071316.99146   -804723.39943  24517521.7734   24517513.0204
        39.2504         22.7504
 -15627005.98748 -12165083.18146  22087508.7274   22087499.0354
        49.0004         38.2504
  -2805256.93547  -2166527.03344  24333450.6804   24333441.9844
        43.0004         25.7504
 -10975596.15448  -8525982.92946  22273505.5864   22273494.8404
        49.0004         37.5004
  -6620952.48247  -5133970.88845  22985117.4144   22985108.2504
        43.0004         31.0004
 -18861087.53648 -14668051.31147  21315898.4144   21315888.1954
        51.7504         45.7504
  -8105586.46247  -6306503.47645  23371919.1954   23371910.3244
        44.0004         34.7504
 -14921258.25948 -11609101.87146  22119549.6024   22119539.3244
        49.0004         38.5004
 10  7 31  0 35 30.0000000  0  8G04G14G27G11G09G17G12G20
  -1188708.72546   -896197.46444  24495183.0234   24495173.4494
        39.0004         24.2504
 -15610992.01747 -12152604.79746  22090556.5314   22090546.3714
        47.7504         39.0004
  -2719396.53547  -2099622.86444  24349788.6884   24349780.8714
        43.5004         25.7504
 -10897652.49948  -8465247.65846  22288337.9064   22288327.1604
        48.5004         37.5004
  -6529594.94347  -5062783.25445  23002501.9384   23002492.9494
        43.5004         30.5004
 -18853944.53648 -14662485.33147  21317257.7344   21317247.6914
        52.2504         45.7504
  -8189727.96947  -6372068.32045  23355907.8984   23355898.6764
        44.5004         35.0004
 -14993475.66248 -11665375.18446  22105807.1804   22105796.6094
        48.7504         38.7504
 10  7 31  0 36  0.0000000  0  8G04G14G27G11G09G17G12G20
  -1305942.88946   -987548.74243  24472874.5234   24472865.3594
        38.0004         22.5004
 -15594347.68047 -12139635.25146  22093723.8054   22093713.8204
        47.7504         39.0004
  -2633248.21247  -2032494.03244  24366182.3364   24366174.0514
        43.5004         27.7504
 -10819268.61848  -8404169.34746  22303254.0234   22303243.2194
        48.7504         37.2504
  -6437746.69347  -4991213.20545  23019980.0864   23019971.2154
        43.5004         30.0004
 -18846186.09048 -14656439.78047  21318734.0314   21318723.8714
        51.5004         46.0004
  -8273447.08547  -6437304.03045  23339976.0864   23339967.4494
        44.0004         35.0004
 -15065199.84348 -11721264.14446  22092158.4064   22092147.9534
        48.7504         38.7504
 10  7 31  0 36 30.0000000  0  8G04G14G27G11G09G17G12G20
  -1423016.61346  -1078775.00743  24450595.9224   24450586.6994
        38.5004         22.5004
 -15577073.13247 -12126174.55146  22097011.3834   22097001.1644
        47.5004         39.5004
  -2546814.33547  -1965142.70744  24382629.4844   24382621.3164
        43.5004         28.2504
 -10740446.23248  -8342749.36246  22318252.9064   22318242.6884
        48.0004         37.2504
  -6345410.51347  -4919262.97444  23037551.1254   23037541.9614
        43.0004         29.5004
 -18837811.54748 -14649914.14947  21320327.7664   21320317.3714
        52.2504         46.0004
  -8356740.30347  -6502207.84845  23324126.3524   23324116.8364
        43.7504         35.5004
 -15136427.86048 -11776766.47746  22078603.8444   22078593.5084
        49.0004         39.0004
 10  7 31  0 37  0.0000000  0  8G04G14G27G11G09G17G12G20
  -1539927.07646  -1169874.02743  24428347.9844   24428339.2894
        38.7504         20.7504
 -15559168.73248 -12112222.98646  22100418.3754   22100408.2154
        48.0004         38.7504
  -2460097.44147  -1897571.23044  24399131.3364   24399123.6374
        43.7504         27.5004
 -10661187.33348  -8280989.20346  22333335.6804   22333325.2274
        48.0004         37.2504
  -6252588.95347  -4846934.27245  23055214.7664   23055205.6024
        44.0004         30.0004
 -18828820.68348 -14642908.26247  21322038.4694   21322028.7194
        52.2504         45.7504
  -8439605.27847  -6566777.98445  23308357.6174   23308348.5124
        44.0004         35.0004
 -15207157.29848 -11831880.32346  22065144.5944   22065134.2584
        49.2504         38.5004
 10  7 31  0 37 30.0000000  0  8G04G14G27G11G09G17G12G20
  -1656671.57146  -1260843.69443  24406132.1724   24406123.3594
        38.2504         21.7504
 -15540634.76847 -12097780.83946  22103945.2894   22103935.1884
        46.0004         39.0004
  -2373098.59947  -1829780.01544  24415687.2894   24415678.9454
        43.7504         28.0004
 -10581494.03447  -8218890.53146  22348501.1804   22348490.3754
        47.5004         37.7504
  -6159285.68547  -4774230.44945  23072969.5084   23072960.5204
        43.2504         30.2504
 -18819213.39248 -14635422.05947  21323866.7894   21323856.6294
        52.0004         45.5004
  -8522039.06447  -6631012.11945  23292671.0704   23292661.4384
        43.7504         34.7504
 -15277385.64448 -11886603.69346  22051780.8364   22051770.2664
        48.0004         38.7504
 10  7 31  0 38  0.0000000  0  8G04G14G27G11G09G17G12G20
  -1773248.61546  -1351682.90843  24383949.1024   24383939.3524
        40.7504         23.0004
 -15521473.49047 -12082850.13246  22107591.4614   22107581.1254
        46.7504         39.0004
  -2285820.73547  -1761771.11944  24432295.0164   24432287.1414
        43.2504         27.0004
 -10501369.67248  -8156455.98846  22363748.2114   22363737.5824
        48.0004         37.2504
  -6065504.58347  -4701154.33645  23090815.4844   23090806.2034
        43.5004         30.0004
 -18808991.01348 -14627456.54647  21325812.2034   21325801.6334
        52.7504         45.5004
  -8604039.75847  -6694908.76945  23277066.8444   23277057.2704
        44.0004         35.2504
 -15347111.98547 -11940935.90946  22038512.4144   22038502.1954
        47.5004         38.5004
 10  7 31  0 38 30.0000000  0  8G04G14G27G11G09G17G12G20
  -1889655.18746  -1442389.24943  24361796.7974   24361788.3954
        40.7504         22.7504
 -15501684.64447 -12067430.32046  22111356.8284   22111347.0784
        46.0004         39.2504
  -2198266.66747  -1693547.20044  24448956.5864   24448947.7734
        42.0004         27.0004
 -10420816.12747  -8093687.08146  22379076.9694   22379066.2814
        47.7504         36.5004
  -5971248.44447  -4627708.09844  23108752.2974   23108743.4844
        43.5004         29.5004
 -18798153.50848 -14619011.71047  21327874.4064   21327864.2464
        53.2504         45.7504
  -8685604.73947  -6758465.86845  23261545.6724   23261536.0984
        44.0004         35.5004
 -15416333.46147 -11994874.75946  22025339.8204   22025329.3674
        47.2504         38.7504
 10  7 31  0 39  0.0000000  0  8G04G14G27G11G09G17G12G20
  -2005888.56246  -1532960.67743  24339678.3364   24339669.8164
        41.0004         22.0004
 -15481268.30047 -12051521.37646  22115242.1484   22115232.1644
        46.2504         38.5004
  -2110438.18247  -1625109.51044  24465669.2734   24465661.1644
        43.0004         26.2504
 -10339835.19848  -8030585.03446  22394487.2664   22394476.5204
        48.0004         36.5004
  -5876520.23247  -4553893.96245  23126777.9384   23126768.9494
        42.7504         30.7504
 -18786700.61848 -14610087.38147  21330053.8674   21330043.7074
        53.0004         45.5004
  -8766730.97247  -6821681.12445  23246107.3364   23246098.6994
        44.0004         35.2504
 -15485047.89647 -12048418.50346  22012263.7894   22012253.6884
        47.2504         38.5004
 10  7 31  0 39 30.0000000  0  8G04G14G27G11G09G17G12G20
  -2121946.00846  -1623394.97843  24317593.7424   24317584.1094
        41.0004         22.7504
 -15460225.73147 -12035124.48146  22119246.1724   22119236.3054
        47.5004         38.7504
  -2022337.56947  -1556459.78844  24482434.8674   24482426.4654
        43.0004         27.5004
 -10258429.76947  -7967152.34046  22409978.1334   22409967.7384
        47.5004         36.0004
  -5781323.11547  -4479714.48845  23144893.4454   23144884.1054
        44.5004         31.0004
 -18774632.67948 -14600683.78247  21332350.3834   21332340.1644
        53.7504         45.5004
  -8847415.86247  -6884552.50345  23230754.0004   23230744.9534
        43.7504         34.7504
 -15553252.90548 -12101565.27746  21999285.1644   21999274.6524
        48.5004         39.0004
 10  7 31  0 40  0.0000000  0  8G04G14G27G11G09G17G12G20
  -2237825.95347  -1713691.03243  24295542.4774   24295533.4304
        42.0004         22.7504
 -15438558.29448 -12018240.76746  22123369.5704   22123359.5274
        48.7504         38.2504
  -1933967.54147  -1487600.17944  24499251.3444   24499242.8244
        42.0004         26.7504
 -10176602.40648  -7903390.85446  22425549.2194   22425538.7074
        48.2504         36.5004
  -5685660.95547  -4405172.60845  23163097.7664   23163089.1884
        44.5004         31.7504
 -18761950.69248 -14590801.70647  21334763.4694   21334753.3674
        53.0004         45.7504
  -8927657.83447  -6947078.74645  23215484.6724   23215474.9224
        43.7504         34.7504
 -15620946.96248 -12154313.87646  21986403.1724   21986393.0124
        48.5004         40.0004
 10  7 31  0 40 30.0000000  0  8G04G14G27G11G09G17G12G20
  -2353525.57546  -1803846.56143  24273525.5164   24273516.5864
        41.2504         22.5004
 -15416266.33548 -12000870.38546  22127611.1804   22127601.7814
        49.5004         38.2504
  -1845330.10046  -1418532.16144  24516118.4614   24516110.4694
        41.5004         26.0004
 -10094355.32548  -7839302.30346  22441200.4774   22441189.6134
        48.5004         37.0004
  -5589536.90547  -4330270.84245  23181389.3524   23181380.8324
        44.0004         33.0004
 -18748654.80848 -14580441.28447  21337293.7734   21337283.5554
        53.7504         45.5004
  -9007453.96047  -7009257.50245  23200300.1884   23200290.2624
        44.0004         34.7504
 -15688128.17248 -12206662.83546  21973619.3594   21973608.4384
        49.2504         39.5004
 10  7 31  0 41  0.0000000  0  8G04G14G27G11G09G17G12G20
  -2469041.76447  -1893859.13843  24251543.4534   24251534.2304
        42.2504         22.5004
 -15393350.76548 -11983014.12046  22131972.1724   22131962.4804
        48.0004         38.5004
  -1756427.40646  -1349257.54244  24533035.7814   24533027.9654
        40.7504         26.2504
 -10011690.57947  -7774888.30045  22456931.4064   22456920.3094
        47.0004         35.7504
  -5492953.90047  -4255011.57145  23199768.6174   23199760.2734
        44.0004         31.5004
 -18734744.57548 -14569602.13447  21339940.8134   21339930.6524
        53.0004         45.7504
  -9086801.22847  -7071086.50945  23185200.6954   23185191.0044
        43.0004         33.7504
 -15754793.47848 -12258609.89046  21960933.4384   21960922.5164
        49.0004         39.2504
 10  7 31  0 41 30.0000000  0  8G04G14G27G11G09G17G12G20
  -2584372.62447  -1983727.31543  24229597.1024   24229587.1764
        43.2504         22.5004
 -15369812.54648 -11964672.67546  22136451.5944   22136441.2584
        49.0004         38.5004
  -1667262.60446  -1279778.64344  24550003.9384   24549996.0044
        41.2504         26.5004
  -9928610.84247  -7710150.87146  22472740.6414   22472730.1884
        46.7504         36.0004
  -5395915.29447  -4179397.13645  23218234.5944   23218226.0744
        44.2504         32.2504
 -18720221.13848 -14558285.14847  21342704.2894   21342694.3634
        52.7504         45.5004
  -9165698.08047  -7132564.54045  23170186.8984   23170177.7344
        44.2504         34.2504
 -15820941.37248 -12310153.73346  21948345.5084   21948334.9384
        49.0004         39.5004
 10  7 31  0 42  0.0000000  0  8G04G14G27G11G09G17G12G20
  -2699515.63447  -2073449.14543  24207686.0944   24207676.9884
        44.0004         22.7504
 -15345652.29647 -11945846.49146  22141048.9064   22141038.9224
        47.5004         38.2504
  -1577837.56946  -1210096.99043  24567020.2974   24567012.4804
        40.0004         23.7504
  -9845118.44547  -7645091.87446  22488628.8524   22488618.6914
        45.7504         36.2504
  -5298424.44647  -4103430.36445  23236786.6884   23236778.2854
        45.5004         33.0004
 -18705084.83548 -14546490.62047  21345584.7194   21345574.3834
        52.7504         45.7504
  -9244141.45447  -7193689.19645  23155259.3444   23155250.1214
        43.2504         34.5004
 -15886569.38048 -12361292.45946  21935856.9534   21935846.4414
        48.7504         39.5004
 10  7 31  0 42 30.0000000  0  8G04G14G27G11G09G17G12G20
  -2814467.62647  -2163022.07644  24185811.0634   24185802.0744
        44.5004         24.5004
 -15320870.77347 -11926536.24546  22145765.1414   22145754.9224
        47.5004         38.0004
  -1488154.39446  -1140214.24844  24584086.5634   24584078.9804
        40.2504         24.7504
  -9761215.86847  -7579713.29846  22504595.5234   22504584.6024
        45.5004         36.2504
  -5200484.60347  -4027113.78545  23255424.0944   23255416.0434
        45.7504         32.2504
 -18689335.57948 -14534218.48647  21348581.8444   21348571.8014
        52.5004         46.0004
  -9322128.48147  -7254458.24345  23140418.9694   23140409.8634
        43.5004         34.0004
 -15951675.66648 -12412024.66946  21923467.6724   21923457.1024
        48.5004         39.5004
 10  7 31  0 43  0.0000000  0  8G04G14G27G11G09G17G12G20
  -2929226.60347  -2252444.61444  24163972.8364   24163964.1994
        45.5004         25.2504
 -15295469.35847 -11906743.00646  22150598.3054   22150588.4384
        47.0004         38.0004
  -1398215.80246  -1070132.41444  24601201.6254   24601193.6914
        41.2504         25.5004
  -9676905.59147  -7514017.00545  22520638.9694   22520628.3984
        45.2504         35.5004
  -5102099.50347  -3950450.16845  23274146.4614   23274138.0004
        45.2504         32.7504
 -18672974.56348 -14521469.64747  21351695.1954   21351684.8594
        52.7504         45.7504
  -9399657.37747  -7314870.23745  23125665.7504   23125656.2934
        44.7504         34.5004
 -16016258.85648 -12462349.32346  21911178.0314   21911167.5204
        49.2504         39.2504
 10  7 31  0 43 30.0000000  0  8G04G14G27G11G09G17G12G20
  -3043789.80047  -2341714.47444  24142172.5474   24142163.1484
        44.5004         24.5004
 -15269448.61448 -11886467.12846  22155550.2814   22155540.2974
        48.0004         38.7504
  -1308023.54146   -999852.93743  24618365.2424   24618357.0744
        41.2504         23.7504
  -9592189.40147  -7448004.46545  22536760.1254   22536749.5554
        46.2504         35.7504
  -5003272.00347  -3873441.95745  23292952.8674   23292944.5234
        44.5004         31.7504
 -18656001.53848 -14508243.92447  21354925.1644   21354914.6524
        52.5004         46.0004
  -9476725.38547  -7374923.10145  23110999.9454   23110990.1374
        43.7504         35.0004
 -16080315.92348 -12512263.97546  21898988.3054   21898977.6174
        49.5004         39.2504
 10  7 31  0 44  0.0000000  0  8G04G14G27G11G09G17G12G20
  -3158154.63747  -2430829.83244  24120409.7664   24120400.1914
        44.0004         24.2504
 -15242809.26347 -11865709.21446  22160619.3364   22160608.9414
        47.7504         38.5004
  -1217580.11046   -929377.72944  24635576.3524   24635568.3014
        41.5004         24.2504
  -9507069.91847  -7381677.55745  22552957.6094   22552947.3324
        45.2504         35.5004
  -4904005.17947  -3796091.39245  23311842.1484   23311834.4494
        44.5004         31.0004
 -18638416.94648 -14494541.64647  21358271.3754   21358261.0984
        52.7504         45.5004
  -9553330.30147  -7434615.23745  23096422.4064   23096412.9494
        45.2504         34.2504
 -16143845.41148 -12561767.59846  21886899.4924   21886888.9224
        48.7504         39.7504
 10  7 31  0 44 30.0000000  0  8G04G14G27G11G09G17G12G20
  -3272318.00447  -2519788.23943  24098684.4144   24098675.1914
        43.2504         22.7504
 -15215551.54848 -11844469.46646  22165806.5314   22165796.7234
        48.0004         38.2504
  -1126887.15146   -858708.12743  24652834.8054   24652826.1684
        41.2504         22.7504
  -9421549.18747  -7315038.07945  22569231.4304   22569221.0354
        46.5004         35.7504
  -4804301.82147  -3718400.70045  23330815.5084   23330807.3404
        45.0004         30.5004
 -18620220.50948 -14480362.61547  21361734.0084   21361723.7304
        53.0004         45.7504
  -9629468.52947  -7493943.63745  23081933.7734   23081924.4924
        46.2504         34.5004
 -16206844.04348 -12610857.45846  21874911.0704   21874900.5594
        48.5004         39.5004
 10  7 31  0 45  0.0000000  0  8G04G14G27G11G09G17G12G20
  -3386278.58347  -2608588.61543  24076998.2894   24076989.1844
        42.7504         22.2504
 -15187678.11248 -11822750.01146  22171110.2894   22171100.6564
        48.0004         38.2504
  -1035948.59946   -787847.32643  24670139.8444   24670132.2624
        40.2504         22.5004
  -9335630.15747  -7248088.12645  22585581.6174   22585570.8714
        47.0004         35.2504
  -4704166.65847  -3640373.53245  23349871.0554   23349862.5354
        44.5004         30.7504
 -18601414.40748 -14465708.49947  21365312.7734   21365302.6134
        53.0004         45.5004
  -9705139.54547  -7552908.10345  23067534.0234   23067524.3324
        45.0004         35.0004
 -16269310.89648 -12659532.81446  21863023.6174   21863013.2814
        48.7504         39.7504
 10  7 31  0 45 30.0000000  0  8G04G14G27G11G09G17G12G20
  -3500033.56947  -2697228.78543  24055351.7344   24055342.0434
        43.0004         22.5004
 -15159189.60548 -11800551.27846  22176532.0164   22176521.6214
        48.0004         38.2504
   -944766.17046   -716796.46143  24687491.2424   24687483.6024
        40.5004         22.5004
  -9249315.35648  -7180829.87045  22602006.8364   22601995.5634
        48.0004         35.5004
  -4603602.50747  -3562012.03844  23369007.7034   23368998.8324
        44.0004         29.5004
 -18581998.81148 -14450579.45247  21369007.1334   21368996.9144
        52.5004         45.5004
  -9780340.00347  -7611505.86045  23053223.9774   23053214.3444
        47.0004         34.0004
 -16331244.21948 -12707792.41146  21851238.3204   21851227.8674
        49.7504         40.0004
 10  7 31  0 46  0.0000000  0  8G04G14G27G11G09G17G12G20
  -3613579.86247  -2785706.37443  24033744.3754   24033735.0944
        43.0004         22.7504
 -15130086.36548 -11777873.44446  22182070.1414   22182060.1564
        48.5004         38.0004
   -853341.61047   -645556.81944  24704889.4454   24704881.1024
        42.0004         24.5004
  -9162607.67847  -7113265.81845  22618506.2734   22618496.5234
        47.5004         35.5004
  -4502612.15647  -3483318.33844  23388225.7814   23388217.2034
        44.5004         29.0004
 -18561973.89248 -14434975.59347  21372817.9144   21372807.5784
        52.7504         45.5004
  -9855067.12747  -7669734.67745  23039004.6334   23038994.7074
        46.0004         35.0004
 -16392642.02948 -12755634.90346  21839554.6954   21839544.2424
        49.5004         39.5004
 10  7 31  0 46 30.0000000  0  8G04G14G27G11G09G17G12G20
  -3726915.84247  -2874020.04644  24012176.8984   24012168.3204
        43.5004         25.5004
 -15100370.47347 -11754718.25246  22187724.7894   22187715.0984
        47.7504         37.7504
   -761678.03047   -574130.81444  24722332.8204   24722324.8874
        43.2504         25.5004
  -9075508.97148  -7045396.76745  22635081.2734   22635070.8794
        48.2504         34.7504
  -4401200.43347  -3404296.45144  23407523.5704   23407515.5784
        43.0004         29.2504
 -18541341.17748 -14418898.14547  21376744.0704   21376733.9104
        53.0004         45.5004
  -9929319.59547  -7727593.72245  23024874.3284   23024864.1094
        47.0004         35.2504
 -16453502.76048 -12803059.02246  21827973.3674   21827962.7384
        49.2504         39.7504
 10  7 31  0 47  0.0000000  0  8G04G14G27G11G09G17G12G20
  -3840038.90247  -2962167.78644  23990650.0084   23990641.3714
        43.0004         25.7504
 -15070043.03647 -11731086.57946  22193496.0944   22193486.2274
        46.5004         38.2504
   -669777.62846   -502520.08244  24739820.9924   24739812.9414
        41.2504         24.5004
  -8988021.83448  -6977224.75345  22651729.4694   22651719.1914
        48.0004         35.5004
  -4299369.72447  -3324947.90344  23426901.5004   23426893.9184
        42.7504         28.5004
 -18520101.03448 -14402347.37747  21380785.9774   21380775.6994
        53.0004         45.5004
 -10003095.08947  -7785081.08645  23010835.2344   23010825.3674
        47.2504         35.0004
 -16513824.50148 -12850063.01446  21816494.7734   21816484.7304
        48.2504         40.7504
 10  7 31  0 47 30.0000000  0  8G04G14G27G11G09G17G12G20
  -3952944.72947  -3050146.27644  23969165.5234   23969156.1254
        43.0004         25.0004
 -15039103.10647 -11706977.53746  22199384.2344   22199373.8404
        47.2504         38.0004
   -577640.86046   -430724.92344  24757353.3914   24757345.8094
        40.7504         24.5004
  -8900148.16447  -6908752.07145  22668451.1174   22668440.6054
        47.7504         34.2504
  -4197122.13947  -3245274.47144  23446358.4304   23446350.4384
        43.2504         29.0004
 -18498252.01548 -14385322.15847  21384943.7034   21384933.3674
        52.7504         45.5004
 -10076389.17547  -7842193.26545  22996887.5394   22996877.7894
        46.2504         34.7504
 -16573603.02748 -12896643.61946  21805119.2584   21805108.8634
        49.0004         40.5004
 10  7 31  0 48  0.0000000  0  8G04G14G27G11G09G17G12G20
  -4065632.62747  -3137954.90944  23947721.3754   23947712.1524
        42.5004         25.2504
 -15007554.11947 -11682393.89446  22205387.0234   22205377.2154
        46.5004         38.0004
   -485273.78446   -358750.88444  24774931.2274   24774923.1764
        41.7504         24.5004
  -8811890.13847  -6839979.24445  22685246.0704   22685235.6174
        47.5004         35.0004
  -4094463.25747  -3165280.74644  23465894.3754   23465885.9734
        43.7504         27.5004
 -18475796.82948 -14367824.62747  21389216.8984   21389206.6214
        52.5004         46.0004
 -10149201.65647  -7898930.26345  22983031.6484   22983021.9574
        47.0004         35.5004
 -16632838.66648 -12942801.06346  21793846.7664   21793836.1954
        48.0004         40.5004
 10  7 31  0 48 30.0000000  0  8G04G14G27G11G09G17G12G20
  -4178099.27147  -3225591.13244  23926319.1414   23926310.7974
        42.0004         25.0004
 -14975395.93247 -11657335.52546  22211506.7584   22211497.0664
        47.2504         38.0004
   -392675.60246   -286596.32644  24792551.9304   24792543.5274
        40.5004         24.2504
  -8723251.30048  -6770910.02345  22702113.7114   22702103.2584
        48.2504         34.5004
  -3991394.21547  -3084967.10444  23485507.5004   23485499.3914
        44.2504         28.0004
 -18452735.60048 -14349854.84347  21393605.0394   21393595.0554
        53.0004         45.5004
 -10221529.13747  -7955289.34646  22969268.5084   22969258.7584
        47.2504         36.0004
 -16691529.28648 -12988534.12946  21782678.6564   21782667.9694
        49.0004         40.5004
 10  7 31  0 49  0.0000000  0  8G04G14G27G11G09G17G12G20
  -4290341.42647  -3313052.46444  23904960.6644   23904951.0314
        42.2504         25.5004
 -14942629.15247 -11631802.90246  22217742.1334   22217732.3834
        47.5004         37.7504
   -299849.45246   -214264.32544  24810215.9304   24810208.6414
        39.2504         24.0004
  -8634232.91648  -6701545.15245  22719052.9844   22719042.4144
        48.0004         34.2504
  -3887918.71647  -3004336.71844  23505198.6484   23505189.8954
        44.5004         28.7504
 -18429067.98948 -14331412.58147  21398108.9694   21398098.5744
        53.0004         45.5004
 -10293368.58347  -8011268.13045  22955598.0474   22955587.8874
        45.7504         35.5004
 -16749671.58248 -13033839.83146  21771614.3204   21771603.8674
        49.5004         40.5004
 10  7 31  0 49 30.0000000  0  8G04G14G27G11G09G17G12G20
  -4402357.05646  -3400337.32443  23883644.4304   23883635.8524
        41.2504         23.5004
 -14909255.69947 -11605797.52646  22224092.6174   22224082.8674
        47.7504         37.2504
   -206797.93746   -141756.78743  24827922.8834   24827915.0084
        37.7504         22.0004
  -8544838.08847  -6631887.07645  22736064.7344   22736053.9884
        47.2504         34.0004
  -3784040.66547  -2923392.65844  23524965.2894   23524957.0634
        43.5004         28.5004
 -18404795.40548 -14312498.87547  21402728.1174   21402718.0164
        53.0004         46.0004
 -10364718.65747  -8066865.59546  22942020.1724   22942010.9494
        45.7504         36.5004
 -16807264.63148 -13078717.50746  21760654.7734   21760644.3794
        49.7504         39.7504
 10  7 31  0 50  0.0000000  0  8G04G14G27G11G09G17G12G20
  -4514144.84446  -3487444.68344  23862372.1564   23862362.9924
        41.7504         24.7504
 -14875277.74447 -11579321.11446  22230558.4694   22230548.4264
        46.5004         38.2504
   -113524.21646    -69076.09844  24845672.3364   24845664.8714
        38.2504         24.7504
  -8455069.44247  -6561937.46345  22753147.0864   22753136.2234
        47.7504         34.7504
  -3679764.64747  -2842138.45944  23544808.8674   23544799.9384
        44.7504         28.2504
 -18379919.72848 -14293115.22747  21407461.7974   21407451.5204
        53.2504         45.5004
 -10435578.02947  -8122080.75046  22928536.1724   22928526.6564
        45.0004         36.0004
 -16864308.52148 -13123167.33846  21749799.5164   21749789.5314
        49.5004         41.0004
 10  7 31  0 50 30.0000000  0  8G04G14G27G11G09G17G12G20
  -4625701.00847  -3574371.52444  23841143.5944   23841134.7814
        42.5004         25.7504
 -14840695.45147 -11552373.82146  22237139.2664   22237129.0474
        46.0004         37.7504
    -20029.16746      3777.37343  24863463.9774   24863455.8674
        38.2504         22.5004
  -8364929.31247  -6491698.50545  22770300.2114   22770289.9344
        47.0004         34.5004
  -3575092.91547  -2760575.92844  23564726.5704   23564718.2854
        44.0004         27.7504
 -18354440.63148 -14273261.42247  21412310.1174   21412299.8404
        53.0004         45.5004
 -10505942.81347  -8176910.46646  22915146.1254   22915136.6684
        46.5004         36.2504
 -16920798.73348 -13167185.77446  21739050.0634   21739039.7854
        49.5004         40.7504
 10  7 31  0 51  0.0000000  0  8G04G14G27G11G09G17G12G20
  -4737022.55047  -3661115.59244  23819960.0704   23819950.9654
        42.7504         26.5004
 -14805509.73247 -11524956.33946  22243834.8054   22243824.6454
        45.5004         37.7504
     73684.60846     76801.23843  24881296.1564   24881289.4534
        36.5004         23.2504
  -8274419.58247  -6421171.53245  22787523.7194   22787513.4414
        47.2504         33.2504
  -3470028.33247  -2678707.34344  23584719.8834   23584711.3634
        43.7504         27.7504
 -18328358.19948 -14252937.40347  21417273.4144   21417263.3714
        53.0004         45.5004
 -10575810.83247  -8231353.11045  22901850.7974   22901841.0474
        46.5004         35.5004
 -16976733.69248 -13210771.38646  21728405.9774   21728395.2304
        48.2504         40.7504
 10  7 31  0 51 30.0000000  0  8G04G14G27G11G09G17G12G20
  -4848108.17647  -3747675.76644  23798821.2114   23798811.6374
        44.0004         27.7504
 -14769723.10947 -11497070.63846  22250644.5234   22250634.6564
        46.0004         37.5004
    167613.55046    149992.69044  24899170.6804   24899163.2734
        37.7504         26.2504
  -8183543.82847  -6350359.33645  22804816.8444   22804806.3324
        47.2504         33.0004
  -3364575.20347  -2596535.87844  23604786.5474   23604777.9694
        43.7504         27.5004
 -18301674.92048 -14232145.31847  21422351.0634   21422340.8444
        53.0004         45.7504
 -10645180.54347  -8285407.41745  22888649.9304   22888640.5904
        47.0004         35.5004
 -17032112.96948 -13253924.17146  21717867.7504   21717857.4734
        49.0004         41.0004
 10  7 31  0 52  0.0000000  0  8G04G14G27G11G09G17G12G20
  -4958954.81147  -3834049.78444  23777728.0394   23777718.3484
        42.0004         27.5004
 -14733336.43447 -11468717.38746  22257569.0394   22257558.8204
        45.5004         37.7504
    261755.77846    223350.28944  24917085.5864   24917077.9454
        37.5004         24.5004
  -8092303.72347  -6279263.07145  22822179.1954   22822168.8594
        45.7504         34.5004
  -3258736.52647  -2514063.84444  23624926.6724   23624918.5044
        42.7504         28.5004
 -18274391.04748 -14210885.33547  21427543.3134   21427532.9774
        50.0004         45.5004
 -10714049.53147  -8339071.55846  22875544.8134   22875535.0634
        45.5004         36.2504
 -17086933.90847 -13296641.70646  21707435.6804   21707425.5784
        47.5004         40.5004
 10  7 31  0 52 30.0000000  0  9G04G14G27G11G09G17G12G30G20
  -5069558.45647  -3920234.40344  23756680.4844   23756670.8524
        42.7504         28.5004
 -14696349.35447 -11439896.29646  22264607.3914   22264597.3484
        46.0004         38.0004
    356110.26445    296873.30043  24935040.8984   24935032.9064
        35.5004         22.7504
  -8000700.92247  -6207884.41145  22839610.8444   22839600.5664
        45.7504         34.0004
  -3152515.17047  -2431293.93144  23645139.7034   23645131.8284
        42.7504         29.7504
 -18246504.95648 -14189155.96547  21432849.7274   21432839.8594
        50.0004         45.2504
 -10782413.82447  -8392342.44746  22862535.5634   22862526.1054
        44.0004         36.5004
    -89122.08656    -47729.79253  24698928.2194   24698919.7584
        39.5004         22.7504
 -17141193.50147 -13338921.55746  21697109.7034   21697099.4844
        47.7504         41.2504
 10  7 31  0 53  0.0000000  0  9G04G14G27G11G09G17G12G30G20
  -5179924.93746  -4006234.17044  23735678.2114   23735668.9884
        40.7504         27.7504
 -14658771.65947 -11410614.99546  22271758.4144   22271748.0784
        45.5004         37.2504
    450666.55746    370553.47443  24953034.3754   24953026.3244
        36.5004         22.7504
  -7908745.88547  -6136231.20045  22857109.3984   22857098.5944
        44.5004         33.5004
  -3045922.07046  -2348234.29144  23665424.1564   23665415.9304
        41.5004         29.5004
 -18218027.08648 -14166965.40547  21438269.1414   21438258.8634
        49.7504         45.0004
 -10850279.83447  -8445225.01746  22849621.0704   22849611.6724
        44.5004         36.5004
   -205002.51746   -138026.34543  24676876.2814   24676868.4654
        38.2504         22.2504
 -17194899.00747 -13380769.98746  21686890.3134   21686879.2734
        47.5004         40.7504
 10  7 31  0 53 30.0000000  0 10G04G14G27G11G09G17G12G30G20G31
  -5290037.96346  -4092036.40744  23714724.0704   23714715.0824
        40.5004         29.0004
 -14620591.26247 -11380864.06146  22279023.9304   22279013.3014
        45.2504         37.5004
    545435.80345    444399.53143  24971068.4534   24971060.2274
        34.5004         20.0004
  -7816427.33447  -6064294.60245  22874676.6254   22874666.1724
        43.7504         34.0004
  -2938947.33846  -2264877.38244  23685780.8204   23685772.0084
        41.0004         29.0004
 -18188944.53748 -14144303.68447  21443803.2274   21443793.0084
        49.7504         45.0004
 -10917631.91247  -8497707.14246  22836804.1484   22836794.8674
        44.0004         36.2504
   -320655.94746   -228145.94543  24654868.3984   24654860.1134
        38.2504         22.7504
 -17248034.91647 -13422174.78946  21676779.2034   21676768.6914
        47.5004         40.5004
     -7018.68155     11141.06453  25001237.0164   25001227.6764
        35.5004         22.7504
 10  7 31  0 54  0.0000000  0 10G04G14G27G11G09G17G12G30G20G31
  -5399896.85146  -4177640.65944  23693819.0084   23693810.1954
        40.7504         27.5004
 -14581811.07947 -11350645.76146  22286403.1724   22286393.4224
        45.2504         37.2504
    640413.85745    518408.32243  24989141.7344   24989134.1524
        35.5004         20.5004
  -7723749.44547  -5992077.97145  22892312.9304   22892302.4184
        43.5004         33.5004
  -2831595.86346  -2181226.92744  23706209.3444   23706200.4144
        40.7504         28.7504
 -18159259.37948 -14121172.39947  21449452.0864   21449441.8674
        49.7504         45.5004
 -10984469.02847  -8549788.03446  22824085.5944   22824075.9024
        44.0004         36.2504
   -436080.97746   -318087.65643  24632904.4614   24632895.4144
        38.0004         22.5004
 -17300600.59847 -13463135.10746  21666775.9144   21666765.5784
        47.7504         41.2504
   -113298.56046    -71674.35043  24981013.2814   24981002.7704
        38.2504         22.0004
 10  7 31  0 54 30.0000000  0 10G04G14G27G11G09G17G12G30G20G31
  -5509508.87046  -4263052.57544  23672960.4694   23672950.9534
        41.7504         27.5004
 -14542442.70547 -11319969.14546  22293894.8594   22293884.8754
        46.0004         37.2504
    735588.63246    592570.44543  25007252.6884   25007245.1054
        38.0004         20.5004
  -7630725.13047  -5919591.29245  22910014.3834   22910003.9884
        44.2504         32.2504
  -2723881.19647  -2097293.57744  23726706.4924   23726698.0904
        43.0004         27.7504
 -18128982.83448 -14097580.30047  21455213.7274   21455203.4494
        49.7504         45.2504
 -11050799.54647  -8601474.19946  22811463.0234   22811454.0944
        44.5004         36.7504
   -551284.72646   -407856.81443  24610981.7664   24610972.6024
        37.2504         22.0004
 -17352604.27548 -13503657.29646  21656880.0164   21656869.3874
        48.2504         41.7504
   -219384.66746   -154338.80343  24960825.3444   24960815.9454
        37.7504         22.5004
 10  7 31  0 55  0.0000000  0 10G04G14G27G11G09G17G12G30G20G31
  -5618865.70046  -4348265.66544  23652150.6644   23652141.6174
        41.7504         28.2504
 -14502480.80147 -11288830.03846  22301499.2584   22301489.3914
        45.5004         38.0004
    830963.64846    666888.59543  25025402.2664   25025394.6844
        38.5004         22.0004
  -7537350.58647  -5846831.87945  22927782.9614   22927772.5664
        43.5004         32.7504
  -2615800.31646  -2013074.84944  23747273.9844   23747265.5824
        41.5004         29.7504
 -18098109.62348 -14073523.29047  21461088.5864   21461078.3094
        49.7504         45.0004
 -11116614.60947  -8652758.70946  22798939.1094   22798930.0634
        45.2504         37.2504
   -666257.43845   -497445.87743  24589102.5474   24589094.3204
        35.7504         22.0004
 -17404038.89247 -13543736.31546  21647092.1644   21647081.7114
        47.7504         41.2504
   -325267.91846   -236845.11744  24940675.4534   24940666.8164
        37.5004         24.5004
 10  7 31  0 55 30.0000000  0 10G04G14G27G11G09G17G12G30G20G31
  -5727965.85547  -4433278.79244  23631389.3524   23631380.1884
        42.0004         27.0004
 -14461928.66147 -11257230.98946  22309216.3524   22309206.4264
        45.5004         36.7504
    926534.78046    741359.45743  25043589.6724   25043581.5044
        40.5004         22.5004
  -7443629.53247  -5773802.39245  22945617.1024   22945607.2344
        43.2504         33.0004
  -2507358.28847  -1928574.77744  23767909.1884   23767901.3714
        43.0004         28.5004
 -18066642.15148 -14049003.17347  21467076.5554   21467066.1604
        49.7504         45.0004
 -11181913.75947  -8703641.15646  22786513.3054   22786503.9064
        44.7504         37.0004
   -780997.87045   -586853.91143  24567268.6334   24567259.8794
        35.5004         20.5004
 -17454903.56948 -13583371.17646  21637413.2424   21637402.4384
        48.0004         41.5004
   -430947.23546   -319192.50843  24920567.5004   24920557.2814
        36.5004         23.5004
 10  7 31  0 56  0.0000000  0 10G04G14G27G11G09G17G12G30G20G31
  -5836805.39147  -4518088.73544  23610677.6804   23610668.3404
        43.0004         26.7504
 -14420786.80847 -11225172.43246  22317045.2114   22317035.3444
        45.5004         37.0004
   1022301.64446    815982.97244  25061813.4064   25061805.7074
        41.5004         24.5004
  -7349563.62447  -5700504.22445  22963517.2194   22963507.2344
        43.0004         32.5004
  -2398557.20847  -1843794.93444  23788613.8444   23788605.8524
        42.7504         29.0004
 -18034580.21448 -14024019.85247  21473177.8134   21473167.4774
        50.0004         45.2504
 -11246693.60847  -8754118.96646  22774186.2114   22774176.4614
        45.0004         37.5004
   -895501.73845   -676077.57343  24545478.5314   24545470.1884
        35.5004         20.0004
 -17505195.95248 -13622560.17546  21627842.7664   21627832.6054
        48.2504         41.5004
   -536419.09046   -401378.26143  24900496.3834   24900486.6334
        36.7504         21.7504
 10  7 31  0 56 30.0000000  0 10G04G14G27G11G09G17G12G30G20G31
  -5945382.84146  -4602694.45444  23590016.0634   23590006.7814
        40.7504         26.0004
 -14379057.31547 -11192655.98346  22324985.9454   22324976.1954
        45.5004         37.2504
   1118260.53646    890756.20343  25080073.8984   25080065.2034
        39.7504         22.7504
  -7255155.95047  -5626939.72745  22981482.6644   22981471.9774
        43.0004         32.5004
  -2289400.92047  -1758738.24744  23809385.9614   23809378.0864
        42.5004         27.5004
 -18001925.41248 -13998574.53147  21479391.8674   21479381.4144
        49.7504         45.0004
 -11310952.73747  -8804191.03646  22761958.2274   22761948.4774
        45.2504         37.2504
  -1009767.09746   -765115.43743  24523735.5234   24523725.5984
        36.0004         21.7504
 -17554914.76847 -13661302.11346  21618381.2034   21618371.2774
        47.7504         41.2504
   -641681.00346   -483400.41644  24880465.3834   24880455.4574
        38.5004         24.2504
 10  7 31  0 57  0.0000000  0 10G04G14G27G11G09G17G12G30G20G31
  -6053695.51546  -4687093.96144  23569404.5164   23569395.5864
        41.5004         26.7504
 -14336741.39047 -11159682.57646  22333038.6174   22333028.8674
        45.5004         37.2504
   1214409.37646    965677.34944  25098370.5084   25098362.2814
        40.0004         24.7504
  -7160408.86847  -5553110.80445  22999512.1564   22999502.6414
        42.7504         32.7504
  -2179893.28746  -1673407.84344  23830224.7194   23830217.1954
        41.0004         27.5004
 -17968678.68448 -13972667.96747  21485718.5164   21485708.1214
        49.7504         44.7504
 -11374688.94647  -8853855.62246  22749829.4774   22749820.1374
        45.2504         37.2504
  -1123790.65746   -853964.88243  24502035.6414   24502028.4104
        36.7504         21.5004
 -17604058.61447 -13699595.95046  21609029.8914   21609019.5554
        47.7504         41.5004
   -746730.26946   -565256.91344  24860474.6564   24860465.5514
        38.2504         24.5004
 10  7 31  0 57 30.0000000  0 10G04G14G27G11G09G17G12G30G20G31
  -6161740.60046  -4771284.95944  23548844.3364   23548835.5234
        40.2504         25.5004
 -14293840.29847 -11126253.19346  22341202.7504   22341192.7664
        45.0004         37.2504
   1310745.95046   1040744.78643  25116701.9694   25116694.3874
        36.2504         22.2504
  -7065324.97447  -5479019.48445  23017606.1884   23017596.2034
        43.0004         32.5004
  -2070037.11946  -1587805.80244  23851129.5474   23851121.6134
        39.5004         27.2504
 -17934841.16048 -13946301.08247  21492157.4384   21492147.3364
        49.5004         45.0004
 -11437899.68447  -8903110.73846  22737800.8594   22737791.6374
        45.2504         37.5004
  -1237568.91346   -942623.18943  24480386.1414   24480377.7974
        36.0004         22.5004
 -17652625.84847 -13737440.55546  21599788.0474   21599777.7114
        47.7504         41.5004
   -851563.78146   -646945.27143  24840525.8284   24840516.1374
        37.7504         22.5004
 10  7 31  0 58  0.0000000  0 10G04G14G27G11G09G17G12G30G20G31
  -6269515.74246  -4855265.67044  23528335.4534   23528326.0554
        40.0004         25.5004
 -14250355.62747 -11092369.05346  22349477.2974   22349467.0204
        45.0004         37.0004
   1407267.61946   1115956.45943  25135069.5314   25135062.0664
        37.0004         22.2504
  -6969906.64147  -5404667.54545  23035762.7504   23035753.1174
        43.0004         32.5004
  -1959835.95046  -1501934.93544  23872100.7734   23872092.1954
        40.2504         27.5004
 -17900413.88148 -13919474.65647  21498708.8284   21498698.4924
        49.5004         44.5004
 -11500583.39447  -8951955.21146  22725872.6094   22725863.0354
        45.2504         37.2504
  -1351099.37946  -1031088.39643  24458781.6884   24458773.0514
        36.2504         22.7504
 -17700614.66347 -13774834.39346  21590655.7894   21590645.7464
        47.7504         41.5004
   -956179.19946   -728463.72643  24820618.4064   24820608.3054
        38.5004         23.2504
 10  7 31  0 58 30.0000000  0 10G04G14G27G11G09G17G12G30G20G31
  -6377018.24146  -4939033.77544  23507878.6724   23507869.0984
        40.2504         26.5004
 -14206289.51047 -11058031.83546  22357862.7894   22357853.0394
        44.7504         36.7504
   1503971.94746   1191310.34843  25153471.7894   25153464.2664
        36.5004         22.7504
  -6874156.84947  -5330057.43145  23053984.2974   23053974.4304
        43.2504         33.2504
  -1849293.54846  -1415798.26644  23893135.6644   23893128.0824
        41.0004         27.2504
 -17865398.06948 -13892189.63647  21505372.0474   21505362.2384
        49.5004         44.5004
 -11562737.93747  -9000387.30246  22714044.8594   22714035.4614
        45.5004         37.5004
  -1464379.05046  -1119358.17043  24437224.5004   24437216.5664
        37.0004         22.5004
 -17748023.86247 -13811776.65746  21581634.3284   21581623.8164
        47.7504         41.7504
  -1060573.82546   -809810.12644  24800752.0394   24800742.6414
        39.2504         24.7504
 10  7 31  0 59  0.0000000  0 10G04G14G27G11G09G17G12G30G20G31
  -6484245.51846  -5022587.49844  23487474.0314   23487464.1644
        41.7504         27.0004
 -14161643.18947 -11023242.54146  22366358.8524   22366348.6914
        45.0004         36.7504
   1600856.91646   1266805.06843  25171908.0554   25171900.7074
        37.5004         21.5004
  -6778077.59247  -5255190.56345  23072267.8134   23072257.5354
        44.0004         33.0004
  -1738413.15447  -1329398.19644  23914235.6484   23914228.1844
        42.2504         25.5004
 -17829794.56248 -13864446.65247  21512147.3284   21512137.1094
        49.7504         44.5004
 -11624361.16147  -9048405.38946  22702318.6644   22702308.8554
        46.0004         37.7504
  -1577404.52146  -1207429.89343  24415717.1024   24415708.4654
        37.5004         22.2504
 -17794851.67648 -13848265.85546  21572722.8444   21572713.2114
        48.0004         41.7504
  -1164745.12346   -890982.48344  24780928.7344   24780919.2774
        40.2504         25.0004
 10  7 31  0 59 30.0000000  0 10G04G14G27G11G09G17G12G30G20G31
  -6591194.72946  -5105924.54944  23467122.3204   23467112.9224
        40.5004         26.5004
 -14116417.62847 -10988001.87646  22374965.1414   22374955.4494
        45.0004         36.5004
   1697920.38046   1342438.86643  25190378.8834   25190371.4184
        36.2504         22.5004
  -6681670.78247  -5180068.35545  23090613.4614   23090602.8324
        43.5004         32.7504
  -1627197.71846  -1242736.92344  23935399.7894   23935391.9144
        40.7504         26.0004
 -17793604.21648 -13836246.36947  21519033.9224   21519023.8204
        49.5004         44.7504
 -11685450.39847  -9096007.42746  22690693.7664   22690684.1334
        45.5004         38.0004
  -1690173.04446  -1295301.53843  24394258.0704   24394249.1994
        37.0004         21.5004
 -17841096.15148 -13884300.44146  21563922.9304   21563912.8284
        48.0004         41.5004
  -1268689.69546   -971978.22744  24761148.7424   24761139.5784
        39.7504         26.7504
 10  7 31  1  0  0.0000000  0 10G04G14G27G11G09G17G12G30G20G31
  -6697863.63546  -5189043.11144  23446823.5704   23446814.5234
        41.7504         27.5004
 -14070615.07447 -10952311.59946  22383680.9614   22383670.9774
        44.5004         36.7504
   1795159.52446   1418209.61244  25208883.1724   25208875.2974
        38.5004         24.5004
  -6584939.60347  -5104693.35345  23109020.6884   23109010.6454
        43.5004         32.2504
  -1515650.89146  -1155817.36744  23956626.0084   23956618.5434
        41.2504         25.5004
 -17756828.39848 -13807589.86547  21526032.1564   21526021.9384
        49.5004         45.0004
 -11746004.50247  -9143192.46746  22679170.7034   22679160.9534
        45.5004         38.0004
  -1802681.33646  -1382970.30743  24372847.8914   24372839.8404
        37.5004         21.0004
 -17886756.58748 -13919880.01746  21555234.0394   21555223.7624
        48.0004         41.2504
  -1372405.04446  -1052795.32544  24741412.0704   24741402.6134
        39.7504         25.7504
 10  7 31  1  0 30.0000000  0 10G04G14G27G11G09G17G12G30G20G31
  -6804249.17846  -5271940.91844  23426578.9144   23426569.5744
        41.7504         27.7504
 -14024236.61547 -10916172.55846  22392506.3284   22392496.6374
        44.7504         36.5004
   1892572.48946   1494115.82643  25227420.0704   25227412.6644
        37.0004         22.0004
  -6487886.28147  -5029067.44145  23127489.3834   23127479.3984
        43.0004         32.0004
  -1403775.62646  -1068641.93344  23977915.6954   23977907.9964
        41.5004         25.0004
 -17719467.87348 -13778477.75247  21533141.7194   21533131.5004
        49.5004         44.2504
 -11806020.47747  -9189958.15246  22667749.7664   22667740.6604
        45.7504         38.2504
  -1914925.72646  -1470433.48243  24351488.4614   24351479.8834
        37.5004         21.2504
 -17931830.39948 -13955002.36046  21546656.5234   21546646.3634
        48.0004         41.5004
  -1475888.26946  -1133431.54844  24721720.3054   24721710.9064
        39.2504         24.0004
 10  7 31  1  1  0.0000000  0 10G04G14G27G11G09G17G12G30G20G31
  -6910349.49346  -5354616.41244  23406388.5944   23406380.0744
        41.5004         28.5004
 -13977284.63847 -10879586.64946  22401441.5164   22401431.5314
        45.2504         36.0004
   1990156.04946   1570154.97943  25245989.5004   25245982.2704
        40.0004         22.7504
  -6390513.93747  -4953192.96145  23146018.8364   23146008.7344
        45.0004         31.7504
  -1291575.91147   -981213.61444  23999267.1024   23999259.0514
        42.5004         25.7504
 -17681524.65248 -13748911.60347  21540362.2504   21540352.2074
        49.5004         44.5004
 -11865497.14348  -9236303.60546  22656431.7424   22656422.1094
        48.0004         38.0004
  -2026903.92746  -1557689.11743  24330179.7274   24330171.2074
        38.2504         21.7504
 -17976317.17848 -13989667.33446  21538191.4144   21538180.9614
        48.0004         41.7504
  -1579137.34346  -1213885.32444  24702072.1024   24702062.6454
        40.2504         24.2504
 10  7 31  1  1 30.0000000  0 10G04G14G27G11G09G17G12G30G20G31
  -7016161.46746  -5437067.34344  23386253.1414   23386244.6214
        41.5004         29.2504
 -13929759.85747 -10842554.39946  22410484.7034   22410474.6024
        44.5004         36.0004
   2087908.68146   1646325.90743  25264591.0084   25264583.6604
        36.7504         21.0004
  -6292824.35847  -4877071.24645  23164608.6094   23164598.5664
        43.0004         32.2504
  -1179054.81647   -893534.94344  24020678.9384   24020670.8284
        42.2504         25.7504
 -17642999.00948 -13718891.60647  21547693.0784   21547682.8014
        49.2504         44.2504
 -11924431.75847  -9282226.63346  22645216.8674   22645207.5274
        45.5004         37.7504
  -2138612.45946  -1644734.70843  24308921.9774   24308913.6914
        38.5004         22.2504
 -18020214.61348 -14023873.08246  21529837.9304   21529827.4774
        48.0004         41.7504
  -1682148.43646  -1294153.61544  24682470.7664   24682460.4304
        40.5004         24.0004
 10  7 31  1  2  0.0000000  0 10G04G14G27G11G09G17G12G30G20G31
  -7121682.44646  -5519291.46945  23366173.6174   23366164.5704
        41.2504         30.2504
 -13881664.43247 -10805077.47846  22419637.1644   22419627.2384
        44.5004         36.5004
   2185827.65646   1722626.40943  25283224.8054   25283216.8714
        39.0004         22.0004
  -6194820.23347  -4800704.48845  23183258.1334   23183247.3284
        43.0004         31.2504
  -1066215.96047   -805608.63544  24042151.2814   24042143.1724
        42.5004         25.7504
 -17603892.08148 -13688418.68047  21555135.1804   21555124.9024
        49.2504         44.5004
 -11982822.62747  -9327725.98146  22634105.2974   22634096.0164
        45.5004         38.0004
  -2250048.26946  -1731567.74143  24287717.0004   24287707.6604
        39.0004         22.5004
 -18063521.88547 -14057618.97946  21521596.4774   21521586.1994
        47.7504         41.5004
  -1784919.36546  -1374234.82143  24662913.5004   24662902.9884
        40.5004         23.5004
 10  7 31  1  2 30.0000000  0 10G04G14G27G11G09G17G12G30G20G31
  -7226909.73247  -5601286.75945  23346149.3134   23346140.3244
        43.2504         30.5004
 -13832999.70647 -10767156.93646  22428897.6334   22428887.9414
        44.7504         36.0004
   2283910.95746   1799054.93143  25301888.9144   25301881.3324
        37.5004         20.5004
  -6096503.93547  -4724094.41745  23201967.4454   23201956.9344
        43.0004         31.5004
   -953062.81747   -717437.51444  24063683.7194   24063675.7854
        43.7504         25.5004
 -17564205.40748 -13657494.01947  21562687.0084   21562677.2584
        49.2504         44.7504
 -12040667.69147  -9372800.07546  22623098.2974   22623088.6054
        45.5004         38.0004
  -2361208.08546  -1818185.72643  24266563.8204   24266554.9494
        38.7504         23.0004
 -18106237.21948 -14090903.69947  21513468.3754   21513457.9804
        48.0004         42.5004
  -1887446.94946  -1454126.37743  24643403.3134   24643392.6844
        40.2504         22.7504
 10  7 31  1  3  0.0000000  0 10G04G14G27G11G09G17G12G30G20G31
  -7331841.03147  -5683051.47245  23326181.8204   23326172.9494
        43.5004         30.2504
 -13783767.79747 -10728794.41446  22438266.2274   22438256.3594
        44.7504         36.0004
   2382156.01546   1875609.47943  25320584.8524   25320576.1564
        39.5004         20.2504
  -5997878.26647  -4647243.34745  23220735.1254   23220724.7894
        43.2504         32.0004
   -839598.30447   -629023.68044  24085275.4454   24085267.7464
        43.2504         26.0004
 -17523940.24948 -13626118.58647  21570349.2274   21570339.1254
        49.5004         44.7504
 -12097964.94847  -9417447.26846  22612194.5004   22612184.8674
        45.7504         38.0004
  -2472089.05546  -1904586.46643  24245463.7584   24245454.9454
        39.5004         22.2504
 -18148359.34048 -14123726.18347  21505452.6254   21505442.3484
        48.5004         42.5004
  -1989728.84546  -1533826.43543  24623939.6254   24623929.2304
        38.7504         23.5004
 10  7 31  1  3 30.0000000  0 10G04G14G27G11G09G17G12G30G20G31
  -7436473.91147  -5764583.53645  23306270.8984   23306261.9694
        43.2504         31.5004
 -13733970.41947 -10689991.26946  22447742.5234   22447732.5394
        44.5004         36.0004
   2480559.97746   1952287.88943  25339310.6254   25339302.9844
        38.0004         20.7504
  -5898945.73247  -4570153.17345  23239561.3444   23239550.8914
        42.7504         31.2504
   -725826.36547   -540370.23144  24106925.4064   24106917.5904
        42.5004         25.0004
 -17483098.14348 -13594293.57547  21578121.3284   21578110.9344
        49.5004         44.2504
 -12154713.00647  -9461666.55846  22601395.7274   22601386.3284
        45.7504         38.2504
  -2582688.58246  -1990767.96843  24224416.6094   24224408.6764
        38.0004         22.5004
 -18189887.04248 -14156085.44647  21497550.0084   21497539.9064
        48.2504         42.2504
  -2091762.37346  -1613333.07844  24604523.1174   24604512.8984
        39.7504         24.2504
 10  7 31  1  4  0.0000000  0  9G04G14G11G09G17G12G30G20G31
  -7540801.83547  -5845878.02045  23286417.8364   23286408.9064
        42.5004         30.5004
 -13683605.21047 -10650745.65345  22457326.2344   22457316.7774
        44.2504         35.5004
  -5799704.81847  -4492822.61645  23258446.4774   23258435.9654
        42.7504         31.5004
   -611746.42346   -451476.89344  24128634.3134   24128626.3794
        40.5004         24.5004
 -17441676.29848 -13562016.83647  21586003.4454   21585993.3444
        49.0004         44.0004
 -12210905.65447  -9505453.07546  22590702.7344   22590693.1604
        45.5004         38.0004
  -2692999.40546  -2076724.45943  24203426.0634   24203417.3094
        38.0004         22.0004
 -18230814.93648 -14187977.32346  21489762.1564   21489751.7624
        48.0004         41.7504
  -2193541.03846  -1692641.05544  24585155.1024   24585144.6484
        39.0004         24.5004
 10  7 31  1  4 30.0000000  0  9G04G14G11G09G17G12G30G20G31
  -7644829.15347  -5926938.25145  23266622.4224   23266613.0234
        42.2504         30.2504
 -13632680.88347 -10611064.35145  22467016.9844   22467007.4694
        44.5004         35.5004
  -5700164.84847  -4415259.01045  23277388.3834   23277377.9304
        42.5004         31.2504
   -497368.65646   -362351.51544  24150399.5784   24150392.0554
        41.2504         25.2504
 -17399683.02348 -13529294.84547  21593994.5784   21593984.4774
        49.2504         44.0004
 -12266547.84547  -9548810.62046  22580114.4924   22580104.6254
        45.5004         38.0004
  -2803025.39146  -2162459.05143  24182488.3594   24182480.1914
        37.7504         20.2504
 -18271148.70848 -14219406.17047  21482086.3984   21482076.4144
        48.0004         42.0004
  -2295069.02746  -1771753.68744  24565835.1334   24565824.6214
        39.2504         24.5004
 10  7 31  1  5  0.0000000  0  9G04G14G11G09G17G12G30G20G31
  -7748550.80647  -6007760.30445  23246884.4144   23246875.7194
        43.5004         31.2504
 -13581197.04347 -10570947.06345  22476814.1564   22476803.9964
        44.5004         35.0004
  -5600326.13947  -4337462.67945  23296387.1334   23296376.9144
        43.0004         30.5004
   -382693.76246   -272994.44344  24172222.2894   24172214.1214
        41.5004         25.2504
 -17357116.97748 -13496126.54047  21602094.6954   21602084.7114
        49.0004         44.0004
 -12321635.11647  -9591735.75546  22569631.3364   22569621.9384
        45.5004         37.2504
  -2912760.90246  -2247967.39443  24161606.0784   24161598.0274
        38.0004         21.5004
 -18310884.46648 -14250369.10246  21474524.9454   21474515.0204
        48.0004         41.5004
  -2396340.79546  -1850666.69644  24546562.9224   24546553.5824
        38.7504         25.0004
 10  7 31  1  5 30.0000000  0  9G04G14G11G09G17G12G30G20G31
  -7851963.35547  -6088341.45545  23227205.6484   23227196.8364
        43.0004         31.7504
 -13529154.31147 -10530394.29145  22486717.5164   22486707.4144
        44.5004         35.0004
  -5500190.17347  -4259434.64145  23315442.2974   23315431.8444
        42.7504         30.2504
   -267724.06547   -183407.60544  24194099.8444   24194091.6764
        42.2504         26.2504
 -17313978.72748 -13462512.37647  21610303.7894   21610293.9804
        49.2504         44.2504
 -12376164.98047  -9634226.49446  22559254.8754   22559245.4774
        46.5004         38.2504
  -3022201.90046  -2333246.11243  24140780.7344   24140772.6254
        39.5004         22.0004
 -18350020.35748 -14280864.54947  21467077.4694   21467067.0744
        48.5004         42.0004
  -2497352.97546  -1929377.38443  24527341.1024   24527330.9414
        39.0004         23.5004
 10  7 31  1  6  0.0000000  0  9G04G14G11G09G17G12G30G20G31
  -7955063.91147  -6168679.56145  23207586.3134   23207577.5004
        42.5004         31.2504
 -13476554.31047 -10489407.28345  22496727.1174   22496716.8984
        44.0004         35.2504
  -5399759.53147  -4181177.03945  23334553.4454   23334543.2854
        42.0004         30.0004
   -152463.09546    -93593.81244  24216033.7894   24216025.2114
        40.7504         27.5004
 -17270269.00448 -13428452.91747  21618621.3364   21618611.3524
        49.0004         44.5004
 -12430135.13347  -9676281.11546  22548984.9224   22548975.4064
        46.0004         38.7504
  -3131344.94846  -2418292.66443  24120011.7504   24120002.7624
        37.7504         22.5004
 -18388554.55648 -14310891.19047  21459744.9774   21459734.4654
        48.0004         42.2504
  -2598102.76946  -2007883.74644  24508168.6094   24508159.6214
        38.7504         25.5004
 10  7 31  1  6 30.0000000  0  9G04G14G11G09G17G12G30G20G31
  -8057850.35147  -6248772.81045  23188026.7034   23188017.6564
        43.0004         32.0004
 -13423399.35747 -10447987.83645  22506841.9384   22506832.0704
        44.5004         35.5004
  -5299036.88747  -4102691.83745  23353720.4844   23353709.9144
        42.5004         30.5004
    -36915.19246     -3556.54944  24238021.3754   24238013.4414
        41.5004         25.0004
 -17225990.03548 -13393949.87547  21627047.8134   21627037.7114
        49.5004         44.0004
 -12483544.34947  -9717898.71946  22538821.1884   22538811.4964
        46.2504         39.2504
  -3240187.58646  -2503105.05043  24099299.6644   24099290.9104
        38.5004         22.5004
 -18426486.39248 -14340448.48247  21452526.9064   21452515.9844
        48.5004         42.0004
  -2698587.61346  -2086183.55944  24489046.6024   24489037.7304
        40.2504         24.7504
 10  7 31  1  7  0.0000000  0  9G04G14G11G09G17G12G30G20G31
  -8160320.15147  -6328619.37745  23168527.4304   23168518.3834
        43.2504         30.5004
 -13369691.31947 -10406137.41846  22517062.0474   22517052.8834
        44.2504         36.0004
  -5198024.87647  -4023981.22345  23372942.2584   23372931.8634
        43.0004         30.2504
     78916.93646     86702.27644  24260063.0394   24260055.3404
        40.0004         26.5004
 -17181143.08948 -13359004.26347  21635581.8754   21635572.1254
        49.0004         44.0004
 -12536390.69247  -9759077.72246  22528765.1804   22528755.5474
        46.0004         38.5004
  -3348726.63346  -2587680.89043  24078645.0704   24078636.5514
        37.0004         22.2504
 -18463814.64548 -14369535.51447  21445423.6094   21445413.2734
        48.2504         42.7504
  -2798804.74046  -2164274.78744  24469977.1724   24469967.1884
        39.5004         25.7504
 10  7 31  1  7 30.0000000  0  9G04G14G11G09G17G12G30G20G31
  -8262470.47947  -6408217.07545  23149088.7194   23149079.7304
        42.5004         30.7504
 -13315431.45447 -10363856.99945  22527387.6484   22527377.7814
        44.2504         35.5004
  -5096725.51447  -3945046.67745  23392218.8524   23392208.3404
        42.2504         30.2504
    195030.46646    177180.33244  24282158.6174   24282150.7424
        38.2504         24.7504
 -17135729.00948 -13323616.74247  21644223.7424   21644213.8164
        49.0004         44.0004
 -12588671.77747  -9799816.20946  22518816.0864   22518806.9804
        46.0004         38.7504
  -3456958.40946  -2672017.19443  24058049.3674   24058040.8484
        37.0004         22.2504
 -18500537.34348 -14398150.70547  21438435.6094   21438425.3324
        48.2504         42.5004
  -2898750.90646  -2242154.88644  24450957.4384   24450948.4494
        38.7504         26.5004
 10  7 31  1  8  0.0000000  0  9G04G14G11G09G17G12G30G20G31
  -8364298.97047  -6487563.93945  23129711.9384   23129702.4804
        42.7504         31.0004
 -13260622.07247 -10321148.37945  22537817.6724   22537807.3954
        44.0004         35.5004
  -4995141.86947  -3865890.64245  23411549.8364   23411539.3834
        42.5004         30.0004
    311421.18646    267874.41043  24304306.9694   24304299.6804
        36.7504         22.7504
 -17089749.38748 -13287788.51947  21652973.4064   21652963.3054
        48.7504         44.0004
 -12640386.40147  -9840113.21446  22508975.2664   22508965.8094
        46.0004         39.2504
  -3564880.75146  -2756112.44643  24037512.7114   24037503.8404
        38.0004         22.5004
 -18536654.05348 -14426293.62946  21431562.4694   21431552.7774
        48.0004         41.5004
  -2998424.02846  -2319822.19344  24431990.7274   24431981.0354
        38.5004         26.0004
 10  7 31  1  8 30.0000000  0  9G04G14G11G09G17G12G30G20G31
  -8465802.65947  -6566657.70645  23110395.7664   23110386.4844
        42.2504         31.5004
 -13205265.06947 -10278013.05245  22548352.0084   22548341.9064
        44.2504         34.7504
  -4893276.05547  -3786514.67645  23430934.3284   23430923.8164
        42.2504         30.2504
    428085.89545    358782.03543  24326507.1024   24326499.5784
        35.0004         22.0004
 -17043205.88848 -13251520.90647  21661830.2814   21661820.4734
        48.7504         43.5004
 -12691532.58747  -9879967.36446  22499242.5234   22499232.9494
        46.2504         39.7504
  -3672490.15846  -2839963.93144  24017035.6414   24017026.7114
        37.7504         25.5004
 -18572163.33248 -14453963.19446  21424805.6094   21424794.9224
        48.2504         41.7504
  -3097821.00446  -2397274.34844  24413076.0704   24413066.0274
        38.5004         27.5004
 10  7 31  1  9  0.0000000  0  9G04G14G11G09G17G12G30G20G31
  -8566979.18847  -6645496.59445  23091143.1564   23091133.8754
        42.5004         30.2504
 -13149361.84647 -10234452.12545  22558989.8054   22558980.1134
        44.2504         35.2504
  -4791130.29247  -3706920.58644  23450372.1884   23450361.8524
        43.2504         29.7504
    545021.58445    449900.75243  24348759.4694   24348752.2974
        35.5004         20.7504
 -16996099.57348 -13214814.70847  21670794.5474   21670784.4454
        49.0004         43.5004
 -12742108.13247  -9919376.87846  22489618.1724   22489608.4804
        46.7504         40.2504
  -3779783.14346  -2923568.82044  23996618.1804   23996609.2504
        38.5004         26.0004
 -18607063.54548 -14481158.13947  21418164.3204   21418154.2774
        48.5004         42.0004
  -3196938.85146  -2474508.98744  24394214.3914   24394204.5234
        41.0004         28.0004
 10  7 31  1  9 30.0000000  0  9G04G14G11G09G17G12G30G20G31
  -8667826.53647  -6724079.00545  23071952.0234   23071942.8014
        42.5004         30.7504
 -13092915.31647 -10190467.85045  22569731.2344   22569721.4264
        44.0004         35.2504
  -4688707.97847  -3627111.04744  23469862.2814   23469851.5944
        42.2504         29.7504
    662224.42745    541227.77543  24371062.4614   24371054.9964
        35.5004         21.5004
 -16948432.51248 -13177671.57647  21679865.2734   21679855.2304
        48.7504         43.2504
 -12792112.04047  -9958340.87646  22480102.7814   22480092.9144
        46.5004         39.0004
  -3886757.29946  -3006925.31344  23976261.8834   23976253.1884
        38.2504         24.2504
 -18641354.58948 -14507878.54147  21411639.1884   21411628.6174
        48.5004         42.0004
  -3295776.07646  -2551524.97444  24375406.8984   24375396.9734
        40.5004         28.5004
 10  7 31  1 10  0.0000000  0  9G04G14G11G09G17G12G30G20G31
  -8768341.47447  -6802402.42345  23052825.2034   23052815.9224
        42.5004         30.7504
 -13035926.84847 -10146061.31645  22580575.9924   22580566.1254
        44.0004         35.0004
  -4586010.92146  -3547087.39744  23489404.9064   23489394.6294
        41.2504         29.2504
    779691.42945    632760.57743  24393415.6414   24393408.1174
        35.2504         22.7504
 -16900205.51848 -13140092.11147  21689042.5164   21689032.8244
        48.7504         43.2504
 -12841542.26147  -9996857.85046  22470696.0474   22470686.7664
        46.2504         39.7504
  -3993409.05046  -3090030.49743  23955965.4224   23955957.1954
        37.5004         22.2504
 -18675034.35048 -14534122.61347  21405229.9694   21405219.6914
        48.5004         42.5004
  -3394328.72746  -2628319.20244  24356652.0944   24356642.6374
        40.0004         28.0004
 10  7 31  1 10 30.0000000  0  9G04G14G11G09G17G12G30G20G31
  -8868521.49447  -6880464.87045  23033761.1724   23033752.0664
        42.5004         30.7504
 -12978397.99247 -10101233.69945  22591522.9924   22591513.4184
        44.0004         34.7504
  -4483041.82446  -3466851.73044  23508999.1484   23508988.7544
        41.7504         29.5004
    897418.93346    724496.38443  24415818.2974   24415810.5984
        37.0004         23.5004
 -16851420.57448 -13102077.87147  21698326.2114   21698315.8754
        49.0004         43.2504
 -12890397.16547 -10034926.58046  22461399.4774   22461390.1374
        46.2504         39.5004
  -4099735.38846  -3172882.06644  23935733.0394   23935724.6954
        37.5004         24.2504
 -18708102.28148 -14559889.97847  21398937.3984   21398926.7704
        48.5004         42.2504
  -3492593.96946  -2704889.51444  24337952.8984   24337943.1484
        39.7504         28.7504
 10  7 31  1 11  0.0000000  0  9G04G14G11G09G17G12G30G20G31
  -8968364.56047  -6958264.73845  23014761.7664   23014752.8954
        43.0004         30.5004
 -12920331.21947 -10055986.90045  22602572.9534   22602563.0274
        44.2504         35.0004
  -4379803.26647  -3386406.14244  23528644.7584   23528634.2464
        42.0004         28.7504
   1015403.67146    816432.56044  24438270.5704   24438262.5204
        37.7504         26.5004
 -16802079.12248 -13063629.97847  21707715.4924   21707705.2734
        49.2504         43.2504
 -12938675.33947 -10072545.94246  22452212.6254   22452202.5824
        46.5004         39.2504
  -4205733.91946  -3255478.26244  23915561.8054   23915553.0514
        39.5004         26.0004
 -18740557.05648 -14585179.37247  21392761.6094   21392751.1564
        50.0004         42.2504
  -3590569.84747  -2781234.27344  24319309.1024   24319298.8244
        42.5004         28.0004
 10  7 31  1 11 30.0000000  0  9G04G14G11G09G17G12G30G20G31
  -9067867.69247  -7035799.81245  22995827.1254   22995817.8444
        42.7504         30.0004
 -12861728.21247 -10010322.25845  22613724.8754   22613714.7734
        43.7504         33.7504
  -4276297.61946  -3305752.39144  23548341.1024   23548330.5314
        41.0004         28.2504
   1133642.53046    908566.78744  24460770.4534   24460762.5204
        37.0004         25.2504
 -16752182.47248 -13024749.47547  21717210.4694   21717200.3094
        49.0004         43.2504
 -12986374.11147 -10109713.69446  22443135.5704   22443126.0554
        46.5004         39.5004
  -4311400.53546  -3337815.85244  23895454.0554   23895445.4774
        40.2504         27.7504
 -18772397.24748 -14609989.71947  21386702.4144   21386691.9024
        48.5004         42.2504
  -3688253.18546  -2857351.11544  24300720.5864   24300710.2504
        40.0004         29.5004
 10  7 31  1 12  0.0000000  0  9G04G14G11G09G17G12G30G20G31
  -9167027.98847  -7113067.73745  22976957.8364   22976948.6724
        43.0004         30.5004
 -12802590.95947  -9964241.32245  22624978.3674   22624968.1484
        44.7504         34.7504
  -4172527.56846  -3224892.61444  23568087.8134   23568077.5944
        41.2504         28.5004
   1252132.14846   1000896.35644  24483318.3444   24483310.1764
        37.0004         26.2504
 -16701732.25948 -12985437.61247  21726810.9064   21726800.6294
        50.2504         43.5004
 -13033492.30947 -10146429.16046  22434169.5704   22434159.7624
        47.2504         39.5004
  -4416732.22946  -3419892.40644  23875410.1644   23875401.8204
        40.7504         28.2504
 -18803622.22248 -14634320.77347  21380760.4144   21380749.7274
        49.7504         42.5004
  -3785641.29946  -2933237.91244  24282187.9614   24282177.9774
        40.0004         28.2504
 10  7 31  1 12 30.0000000  0  9G04G14G11G09G17G12G30G20G31
  -9265842.94547  -7190066.51845  22958153.8594   22958144.9884
        43.5004         31.2504
 -12742921.30047  -9917745.55145  22636333.1564   22636322.9964
        44.0004         34.5004
  -4068495.17046  -3143828.42544  23587884.8834   23587874.7234
        41.0004         27.0004
   1370869.19545   1093418.74843  24505912.1094   24505905.4064
        35.0004         22.5004
 -16650729.66848 -12945695.34747  21736516.3364   21736506.4104
        49.0004         43.5004
 -13080028.13347 -10182690.77246  22425313.9924   22425304.4184
        46.5004         39.5004
  -4521725.99846  -3501705.65244  23855430.6804   23855421.8094
        40.5004         26.7504
 -18834230.88948 -14658171.62147  21374935.5164   21374925.5904
        48.7504         42.7504
  -3882731.24947  -3008892.31144  24263711.8914   24263702.6684
        42.0004         29.0004
 10  7 31  1 13  0.0000000  0  9G04G14G11G09G17G12G30G20G31
  -9364310.06347  -7266794.21845  22939416.0164   22939406.7934
        43.0004         31.7504
 -12682721.45847  -9870836.66545  22647788.6954   22647778.9454
        43.5004         34.2504
  -3964203.19846  -3062561.99444  23607731.3054   23607721.0274
        40.5004         29.0004
   1489850.16846   1186131.14243  24528555.1024   24528546.9344
        38.7504         23.5004
 -16599176.35148 -12905523.94847  21746326.4224   21746316.2624
        48.7504         43.7504
 -13125980.11747 -10218497.39846  22416569.5784   22416559.5944
        46.2504         38.7504
  -4626378.53646  -3583252.96644  23835516.1564   23835506.8164
        39.7504         26.7504
 -18864222.46848 -14681541.68147  21369228.4224   21369217.9694
        48.5004         42.5004
  -3979520.61046  -3084312.56744  24245294.3594   24245284.0234
        40.7504         29.7504
 10  7 31  1 13 30.0000000  0  9G04G14G11G09G17G12G30G20G31
  -9462426.80847  -7343248.76745  22920745.5394   22920736.0824
        43.2504         31.7504
 -12621993.46747  -9823516.22445  22659344.5704   22659334.8794
        43.5004         34.7504
  -3859654.10346  -2981095.16144  23627625.7344   23627615.9844
        40.2504         27.0004
   1609072.00546   1279031.24043  24551241.8674   24551233.2894
        36.0004         22.0004
 -16547074.34548 -12864925.01747  21756241.2114   21756231.3444
        48.7504         44.0004
 -13171346.62047 -10253847.86746  22407936.3364   22407926.5274
        46.5004         39.0004
  -4730687.05046  -3664532.20244  23815665.7664   23815657.1884
        39.0004         25.5004
 -18893595.74148 -14704429.92947  21363639.0474   21363628.8284
        48.5004         42.2504
  -4076006.50946  -3159496.28444  24226933.2344   24226923.6024
        40.2504         28.5004
 10  7 31  1 14  0.0000000  0  9G04G14G11G09G17G12G30G20G31
  -9560191.11047  -7419428.82845  22902141.7584   22902132.3014
        44.2504         32.2504
 -12560739.30347  -9775785.76945  22671001.1174   22670991.3674
        44.5004         34.2504
  -3754850.64447  -2899430.15844  23647569.0944   23647559.5204
        42.2504         28.0004
   1728531.15646   1372116.32043  24573973.6484   24573966.5354
        39.5004         22.7504
 -16494425.21048 -12823899.72247  21766259.8984   21766250.0904
        49.0004         43.5004
 -13216125.89647 -10288740.67146  22399415.1174   22399405.3094
        46.7504         39.2504
  -4834648.66046  -3745541.15144  23795883.2114   23795874.5164
        40.0004         25.5004
 -18922349.86448 -14726835.71547  21358167.0784   21358157.0944
        49.0004         42.5004
  -4172186.35646  -3234441.54244  24208631.0234   24208621.3324
        41.2504         28.0004
 10  7 31  1 14 30.0000000  0  9G04G14G11G09G17G12G30G20G31
  -9657599.63247  -7495331.65545  22883605.1884   22883596.2584
        43.2504         31.7504
 -12498960.86647  -9727646.83345  22682757.4844   22682747.7344
        43.5004         34.0004
  -3649794.90446  -2817568.63844  23667560.6174   23667550.6334
        41.2504         27.5004
   1848224.59246   1465383.93344  24596750.8914   24596742.4884
        39.7504         24.7504
 -16441230.04448 -12782448.96147  21776382.8134   21776373.0044
        48.7504         43.5004
 -13260316.58347 -10323174.92646  22391005.9304   22390996.1214
        46.5004         39.2504
  -4938259.83446  -3826277.02444  23776166.1564   23776158.0474
        40.5004         25.5004
 -18950483.81348 -14748758.28547  21352813.5784   21352803.4184
        48.5004         42.5004
  -4268057.38246  -3309146.23344  24190387.1484   24190376.8714
        40.2504         27.5004
 10  7 31  1 15  0.0000000  0  9G04G14G11G09G17G12G30G20G31
  -9754650.37247  -7570955.56445  22865136.7894   22865127.9184
        43.5004         31.0004
 -12436660.58647  -9679101.20445  22694613.1484   22694603.2234
        43.7504         34.2504
  -3544489.76546  -2735512.77644  23687599.8284   23687589.4924
        41.0004         27.7504
   1968148.63446   1558831.29144  24619571.4614   24619564.0554
        40.7504         25.0004
 -16387491.07348 -12740574.45147  21786609.0084   21786599.3754
        48.7504         43.5004
 -13303917.55447 -10357149.72346  22382708.7344   22382698.9844
        46.5004         39.2504
  -5041518.29246  -3906738.12644  23756517.0944   23756508.6914
        41.2504         27.0004
 -18977996.80148 -14770197.01747  21347577.9304   21347567.4774
        48.7504         43.0004
  -4363616.99146  -3383608.26844  24172202.3204   24172192.3954
        40.5004         28.0004
 10  7 31  1 15 30.0000000  0  9G04G14G11G09G17G12G30G20G31
  -9851341.10847  -7646299.05545  22846737.3364   22846728.5234
        43.5004         32.0004
 -12373840.44247  -9630150.50745  22706567.2114   22706557.5204
        43.2504         34.0004
  -3438937.63746  -2653264.38944  23707686.0234   23707675.9804
        41.5004         27.7504
   2088300.04046   1652455.73244  24642435.4694   24642427.6524
        40.2504         25.0004
 -16333209.81348 -12698277.34747  21796938.1804   21796928.6644
        48.5004         42.7504
 -13346927.16747 -10390663.75746  22374524.3524   22374514.6024
        46.2504         39.2504
  -5144420.69947  -3986921.83944  23736935.2584   23736926.3874
        42.0004         26.2504
 -19004887.94148 -14791151.14247  21342460.9304   21342450.7704
        48.5004         43.0004
  -4458862.55246  -3457825.54944  24154078.2584   24154068.1564
        40.5004         28.5004
 10  7 31  1 16  0.0000000  0  9G04G14G11G09G17G12G30G20G31
  -9947668.64347  -7721359.59345  22828407.0864   22828398.2734
        43.5004         32.7504
 -12310502.08547  -9580796.00245  22718620.0784   22718610.5044
        43.2504         34.5004
  -3333140.84346  -2570825.38144  23727818.2194   23727808.2344
        40.7504         28.0004
   2208675.78446   1746255.07143  24665342.5314   24665334.8914
        37.5004         21.7504
 -16278387.56848 -12655558.71647  21807370.5864   21807360.5434
        48.5004         42.7504
 -13389343.03647 -10423715.06146  22366452.7194   22366443.2624
        46.2504         39.0004
  -5246963.05346  -4066824.91743  23717422.3204   23717412.8634
        40.2504         23.7504
 -19031155.83848 -14811619.64447  21337462.2424   21337451.7304
        48.5004         42.2504
  -4553790.85946  -3531795.58844  24136013.4924   24136003.7424
        39.7504         28.0004
 10  7 31  1 16 30.0000000  0  9G04G14G11G09G17G12G30G20G31
 -10043629.80947  -7796134.37245  22810146.1254   22810137.1374
        44.0004         32.5004
 -12246648.17747  -9531039.78545  22730771.6024   22730761.5004
        44.5004         34.5004
  -3227101.57947  -2488197.43544  23747996.8674   23747986.9414
        42.5004         28.7504
   2329272.49446   1840226.52844  24688291.6804   24688283.6884
        40.0004         24.0004
 -16223025.98948 -12612419.83447  21817905.6724   21817895.3954
        48.7504         43.5004
 -13431163.78747 -10456302.71346  22358494.5704   22358484.8794
        46.0004         39.7504
  -5349142.87546  -4146445.52143  23697978.0084   23697968.4924
        41.5004         22.7504
 -19056799.80048 -14831601.92647  21332582.2114   21332571.9924
        48.5004         43.2504
  -4648399.12446  -3605516.34044  24118009.9694   24117999.7504
        40.2504         27.2504
 10  7 31  1 17  0.0000000  0  9G04G14G11G09G17G12G30G20G31
 -10139223.17747  -7870622.46145  22791955.0864   22791946.3914
        43.7504         33.0004
 -12182280.41947  -9480883.18345  22743019.8674   22743010.3524
        43.0004         34.2504
  -3120822.87247  -2405382.89144  23768221.4454   23768211.3444
        42.5004         28.5004
   2450086.32046   1934367.15743  24711281.5864   24711273.2424
        37.5004         22.5004
 -16167127.11248 -12568862.28947  21828542.8524   21828532.9844
        48.5004         42.7504
 -13472388.58747 -10488425.93546  22350650.0704   22350640.4384
        46.2504         39.5004
  -5450957.33646  -4225781.50043  23678603.0554   23678594.4184
        39.5004         22.5004
 -19081819.58148 -14851097.85347  21327821.1334   21327810.9144
        48.5004         43.0004
  -4742685.61246  -3678986.27744  24100068.3984   24100057.7704
        39.5004         27.7504
 10  7 31  1 17 30.0000000  0  9G04G14G11G09G17G12G30G20G31
 -10234445.54447  -7944821.67345  22773834.6954   22773825.7074
        43.7504         33.5004
 -12117400.45847  -9430327.40345  22755366.1804   22755356.8984
        43.0004         34.0004
  -3014306.20246  -2322382.94045  23788490.7664   23788480.6644
        41.0004         30.0004
   2571115.24446   2028675.37443  24734312.6954   24734304.9384
        38.2504         22.2504
 -16110691.99648 -12524886.89247  21839282.1334   21839272.0314
        48.5004         42.5004
 -13513015.04347 -10520082.86446  22342918.9064   22342909.2154
        46.5004         39.5004
  -5552402.32746  -4304829.57643  23659298.6174   23659290.4494
        38.7504         23.7504
 -19106213.16348 -14870105.79547  21323179.1174   21323168.6644
        48.7504         42.7504
  -4836646.16746  -3752202.28744  24082187.4384   24082177.8634
        39.5004         28.2504
 10  7 31  1 18  0.0000000  0  9G04G14G11G09G17G12G30G20G31
 -10329294.85247  -8018730.20145  22755785.5084   22755776.6374
        43.7504         33.0004
 -12052011.29047  -9379374.84245  22767809.2974   22767800.0744
        43.5004         33.5004
  -2907555.12247  -2239200.34444  23808804.8054   23808794.7624
        42.0004         28.2504
   2692354.98946   2123147.94243  24757383.0554   24757375.2974
        39.0004         22.7504
 -16053723.12348 -12480495.55247  21850122.8524   21850112.9844
        48.5004         43.0004
 -13553042.17847 -10551272.74246  22335302.0474   22335291.9454
        46.7504         39.7504
  -5653475.42446  -4383587.81944  23640065.8364   23640056.2624
        39.7504         25.0004
 -19129980.72948 -14888625.92147  21318656.1254   21318645.9654
        48.7504         42.7504
  -4930279.11346  -3825162.99944  24064369.8834   24064359.7234
        38.7504         28.2504
 10  7 31  1 18 30.0000000  0  9G04G14G11G09G17G12G30G20G31
 -10423767.97147  -8092345.53745  22737808.0944   22737798.6954
        44.0004         33.2504
 -11986114.45547  -9328026.68345  22780349.0164   22780339.2664
        42.7504         33.5004
  -2800571.62947  -2155836.64544  23829163.3364   23829152.9414
        42.0004         29.0004
   2813803.00346   2217782.73043  24780494.3594   24780486.3094
        38.5004         22.0004
 -15996221.28648 -12435688.93947  21861065.1484   21861055.1644
        48.0004         42.2504
 -13592468.35147 -10581994.34246  22327799.3834   22327789.4574
        46.5004         39.0004
  -5754173.20946  -4462053.59744  23620903.5164   23620894.5274
        40.0004         26.0004
 -19153120.93748 -14906657.20647  21314252.9064   21314242.5124
        48.7504         42.7504
  -5023581.02546  -3897865.79344  24046614.9614   24046605.5044
        38.7504         26.7504
 10  7 31  1 19  0.0000000  0  8G04G14G11G17G12G30G20G31
 -10517858.87747  -8165663.08445  22719902.8204   22719893.9494
        44.2504         34.2504
 -11919708.59647  -9276281.86345  22792985.3444   22792975.9454
        43.0004         32.2504
  -2693354.08947  -2072290.42545  23849565.9694   23849556.1024
        43.2504         30.0004
 -15938184.84648 -12390465.73247  21872109.0084   21872099.1414
        48.5004         42.5004
 -13631288.84747 -10612244.10146  22320412.1024   22320401.8244
        46.5004         39.2504
  -5854489.29546  -4540221.93744  23601813.8444   23601805.2074
        40.2504         27.2504
 -19175629.83348 -14924196.62847  21309969.4774   21309958.9654
        48.7504         42.7504
  -5116545.97546  -3970306.01244  24028924.8444   24028914.4494
        40.0004         28.0004
 10  7 31  1 19 30.0000000  0  8G04G14G11G17G12G30G20G31
 -10611572.87547  -8238686.93645  22702069.7974   22702061.2194
        44.0004         34.5004
 -11852803.66547  -9224148.13845  22805717.4924   22805707.8014
        43.2504         33.0004
  -2585913.40847  -1988570.48844  23870011.3524   23870000.8404
        43.7504         29.5004
 -15879623.72548 -12344833.68947  21883252.5944   21883242.7274
        48.5004         43.0004
 -13669509.83047 -10642026.66646  22313138.2734   22313128.9344
        47.0004         39.5004
  -5954428.23746  -4618096.43344  23582795.7424   23582787.0474
        40.5004         26.0004
 -19197513.68348 -14941248.95347  21305805.3364   21305794.5904
        48.7504         43.5004
  -5209178.80946  -4042487.40744  24011297.4614   24011287.1254
        40.2504         26.7504
 10  7 31  1 20  0.0000000  0  8G04G14G11G17G12G30G20G31
 -10704903.52447  -8311412.04645  22684309.1884   22684301.0204
        43.7504         33.7504
 -11785398.00247  -9171624.25745  22818544.0634   22818534.6054
        42.7504         32.7504
  -2478247.94547  -1904675.36244  23890499.2114   23890488.9924
        43.7504         28.2504
 -15820535.76048 -12298791.10447  21894497.1644   21894486.9454
        48.2504         43.0004
 -13707125.93347 -10671337.88846  22305980.5394   22305971.0234
        46.7504         40.2504
  -6053983.14746  -4695671.74644  23563850.6564   23563842.0204
        40.0004         25.5004
 -19218768.48648 -14957811.12247  21301760.6174   21301750.0474
        49.0004         43.2504
  -5301472.92746  -4114404.82644  23993734.0004   23993723.9574
        39.7504         27.0004
 10  7 31  1 20 30.0000000  0  8G04G14G11G17G12G30G20G31
 -10797848.19147  -8383836.42645  22666622.4844   22666613.4384
        43.7504         34.0004
 -11717493.43947  -9118711.61545  22831466.0004   22831456.5434
        42.5004         33.0004
  -2370360.11747  -1820607.16844  23911030.1334   23911019.6214
        43.2504         27.2504
 -15760922.24948 -12252339.01647  21905840.8754   21905831.3594
        48.2504         42.7504
 -13744135.80047 -10700176.75346  22298937.8524   22298928.2194
        46.5004         40.2504
  -6153150.52446  -4772944.99544  23544980.0704   23544971.3164
        40.0004         25.2504
 -19239393.34248 -14973882.39147  21297835.6334   21297825.5314
        48.7504         43.0004
  -5393425.70046  -4186056.28144  23976236.4924   23976225.9804
        40.5004         27.7504
 10  7 31  1 21  0.0000000  0  8G04G14G11G17G12G30G20G31
 -10890408.97747  -8455961.67845  22649008.9144   22648999.8674
        44.2504         34.0004
 -11649096.90947  -9065415.66145  22844481.9534   22844472.0274
        43.7504         33.5004
  -2262256.16547  -1736370.24344  23931601.4144   23931591.7234
        44.2504         27.5004
 -15700789.73748 -12205482.51847  21917283.8594   21917273.7584
        48.2504         43.0004
 -13780542.38847 -10728545.47746  22292010.0394   22292000.1134
        47.0004         40.0004
  -6251931.98546  -4849917.55544  23526182.6094   23526174.5004
        41.7504         26.2504
 -19259392.22048 -14989465.96447  21294029.9144   21294019.8134
        48.7504         43.0004
  -5485038.76746  -4257443.05345  23958802.7584   23958792.4224
        41.5004         30.7504
 10  7 31  1 21 30.0000000  0  8G04G14G11G17G12G30G20G31
 -10982574.74347  -8527779.13645  22631470.4694   22631461.2464
        44.0004         34.0004
 -11580202.27447  -9011731.51845  22857591.7734   22857582.2584
        42.7504         32.5004
  -2153931.27547  -1651961.43444  23952214.7894   23952205.3324
        42.0004         26.2504
 -15640131.46748 -12158216.33247  21928826.8134   21928816.7704
        48.0004         42.0004
 -13816336.03947 -10756436.59846  22285198.6804   22285188.8714
        46.7504         40.0004
  -6350315.61047  -4926580.06444  23507461.0864   23507452.1564
        42.0004         27.0004
 -19278755.77448 -15004554.48247  21290345.3054   21290335.2034
        48.7504         42.5004
  -5576300.92146  -4328556.38944  23941436.2034   23941426.2774
        41.0004         29.2504
 10  7 31  1 22  0.0000000  0  8G04G14G11G17G12G30G20G31
 -11074347.11047  -8599289.99145  22614006.2584   22613997.7974
        44.0004         33.7504
 -11510815.65447  -8957663.99945  22870796.1884   22870786.2034
        42.7504         32.0004
  -2045391.22046  -1567384.83844  23972869.6724   23972859.6294
        40.2504         26.0004
 -15578953.27048 -12110545.00847  21940468.4844   21940458.4414
        48.0004         42.0004
 -13851519.72847 -10783852.47246  22278503.4304   22278493.6214
        46.7504         39.5004
  -6448302.87146  -5002933.77944  23488814.9224   23488805.5234
        40.5004         28.0004
 -19297487.42648 -15019150.59247  21286780.7274   21286770.4494
        48.5004         42.7504
  -5667213.85846  -4399397.61544  23924136.1804   23924126.1954
        40.5004         29.2504
 10  7 31  1 22 30.0000000  0  8G04G14G11G17G12G30G20G31
 -11165723.46647  -8670492.31245  22596618.5314   22596609.0164
        44.2504         34.5004
 -11440939.08447  -8903214.71745  22884092.5004   22884082.7504
        43.0004         32.5004
  -1936638.43847  -1482642.45144  23993564.6254   23993554.0554
        42.0004         25.2504
 -15517257.09448 -12062470.06547  21952209.0944   21952199.2274
        48.5004         42.5004
 -13886092.07847 -10810792.00146  22271924.5634   22271914.6954
        47.0004         40.2504
  -6545890.60847  -5078976.19144  23470244.1484   23470235.8054
        42.2504         28.7504
 -19315586.39748 -15033253.61547  21283336.3674   21283326.3834
        49.0004         43.5004
  -5757774.51146  -4469964.30845  23906902.4454   23906892.4614
        41.5004         31.2504
 10  7 31  1 23  0.0000000  0  8G04G14G11G17G12G30G20G31
 -11256701.25247  -8741384.03445  22579305.5864   22579296.8324
        44.2504         34.2504
 -11370575.04047  -8848385.60045  22897482.4064   22897472.7734
        42.5004         32.2504
  -1827675.34146  -1397736.23643  24014299.2584   24014288.8634
        39.2504         22.5004
 -15455044.72348 -12013992.92847  21964047.8674   21964037.5904
        48.0004         42.2504
 -13920051.52647 -10837253.92646  22265462.1644   22265452.1214
        46.7504         39.7504
  -6643075.71047  -5154704.88145  23451750.9304   23451742.1174
        42.0004         30.0004
 -19333051.96048 -15046863.11647  21280013.0394   21280002.6454
        48.7504         42.7504
  -5847980.43746  -4540254.59245  23889737.2814   23889727.4734
        40.7504         32.0004
 10  7 31  1 23 30.0000000  0  8G04G14G11G17G12G30G20G31
 -11347277.81947  -8811963.17245  22562069.4614   22562060.5904
        44.2504         34.0004
 -11299725.51447  -8793178.16145  22910964.6254   22910955.2274
        43.7504         32.5004
  -1718504.20046  -1312667.89943  24035074.6334   24035063.4184
        41.5004         22.0004
 -15392317.78948 -11965114.80947  21975984.2274   21975973.8914
        48.0004         42.0004
 -13953396.73747 -10863237.18946  22259116.6804   22259106.6374
        47.0004         40.2504
  -6739854.91747  -5230117.33644  23433334.1644   23433325.6454
        43.5004         29.0004
 -19349883.64848 -15059978.71447  21276810.2034   21276799.3984
        49.0004         43.0004
  -5937828.52446  -4610266.04345  23872638.8054   23872629.8164
        41.2504         30.7504
 10  7 31  1 24  0.0000000  0  8G04G14G11G17G12G30G20G31
 -11437451.13347  -8882228.06345  22544910.2734   22544901.2854
        44.5004         34.2504
 -11228393.32547  -8737594.69545  22924538.9774   22924528.8754
        42.5004         32.0004
  -1609128.45047  -1227440.05743  24055887.5554   24055877.0434
        42.0004         22.7504
 -15329078.49348 -11915837.43947  21988018.0314   21988008.2814
        48.0004         42.2504
 -13986127.08147 -10888741.35146  22252888.6804   22252878.8134
        47.0004         40.2504
  -6836225.41846  -5305211.28644  23414995.5314   23414987.0124
        41.2504         29.2504
 -19366081.38848 -15072600.32347  21273727.6024   21273717.1484
        48.7504         43.0004
  -6027316.73246  -4679997.01245  23855610.5084   23855600.6994
        41.2504         32.2504
 10  7 31  1 24 30.0000000  0  8G04G14G11G17G12G30G20G31
 -11527218.52147  -8952176.65745  22527828.0554   22527818.8324
        44.7504         34.0004
 -11156580.49247  -8681636.67745  22938204.1024   22938194.6454
        44.0004         32.5004
  -1499549.80047  -1142054.19143  24076739.8134   24076729.4184
        42.0004         22.7504
 -15265328.73248 -11866162.29247  22000149.4144   22000139.6054
        48.0004         42.0004
 -14018240.99247 -10913765.18446  22246777.4694   22246767.7774
        47.0004         41.2504
  -6932183.91147  -5379984.11845  23396735.7274   23396726.3874
        43.2504         30.0004
 -19381644.35448 -15084727.29147  21270766.0234   21270755.7464
        49.5004         43.2504
  -6116442.39347  -4749445.52045  23838650.3914   23838640.4654
        42.2504         32.5004
 10  7 31  1 25  0.0000000  0  8G04G14G11G17G12G30G20G31
 -11616577.35847  -9021806.91245  22510823.7424   22510814.2274
        45.5004         34.5004
 -11084289.11947  -8625305.76545  22951960.9064   22951951.7424
        44.0004         31.7504
  -1389770.48746  -1056511.93843  24097630.1804   24097619.6094
        41.0004         22.0004
 -15201070.40548 -11816090.88047  22012377.3054   22012367.3794
        48.0004         42.0004
 -14049737.07947 -10938307.60046  22240783.8834   22240774.0744
        47.5004         40.7504
  -7027727.47747  -5454433.65144  23378553.0314   23378544.9224
        43.5004         29.0004
 -19396572.17648 -15096359.36547  21267925.5634   21267914.7584
        49.2504         43.5004
  -6205202.42646  -4818609.11845  23821759.8594   23821749.8754
        41.5004         32.5004
 10  7 31  1 25 30.0000000  0  8G04G14G11G17G12G30G20G31
 -11705525.71347  -9091117.33145  22493897.2584   22493888.3874
        45.0004         35.0004
 -11011521.89647  -8568604.08745  22965808.0004   22965798.4264
        42.2504         31.0004
  -1279793.51647   -970815.71444  24118557.9844   24118548.2934
        42.2504         24.7504
 -15136305.54447 -11765624.78447  22024701.7424   22024692.0514
        47.7504         42.0004
 -14080614.91347 -10962368.20546  22234907.9224   22234897.9964
        47.0004         40.2504
  -7122853.54246  -5528557.93844  23360452.3674   23360442.7344
        41.2504         28.7504
 -19410864.25548 -15107496.04247  21265205.9924   21265195.5394
        48.7504         43.2504
  -6293594.88046  -4887486.30545  23804939.3054   23804929.2034
        41.7504         32.0004
 10  7 31  1 26  0.0000000  0  8G04G14G11G17G12G30G20G31
 -11794061.00847  -9160105.89545  22477049.5394   22477040.4924
        45.0004         35.0004
 -10938281.32447  -8511533.57645  22979745.1564   22979735.8754
        42.5004         31.7504
  -1169621.18747   -884967.16544  24139523.0784   24139513.5044
        43.2504         26.2504
 -15071036.23147 -11714765.61546  22037121.3674   22037112.0274
        47.7504         41.5004
 -14110873.45647 -10985946.27346  22229150.2424   22229140.4344
        47.0004         40.5004
  -7217558.65347  -5602354.14744  23342430.1484   23342421.6884
        42.0004         29.2504
 -19424520.63448 -15118137.34147  21262607.1564   21262596.6454
        49.0004         44.0004
  -6381617.03247  -4956074.93645  23788189.2034   23788179.6294
        42.0004         32.7504
 10  7 31  1 26 30.0000000  0  8G04G14G11G17G12G30G20G31
 -11882180.51947  -9228770.45545  22460281.3674   22460272.2624
        45.2504         35.5004
 -10864569.42447  -8454095.77045  22993772.1644   22993762.8834
        42.5004         30.7504
  -1059255.82347   -798968.22844  24160525.4614   24160515.1844
        42.7504         24.2504
 -15005264.20447 -11663514.71846  22049638.2894   22049628.3634
        47.7504         41.5004
 -14140511.07447 -11009040.48246  22223510.1954   22223500.1524
        47.0004         40.7504
  -7311839.95647  -5675820.09444  23324489.4534   23324480.6994
        42.2504         29.2504
 -19437540.82048 -15128282.97147  21260129.3524   21260119.1914
        48.7504         43.2504
  -6469266.03646  -5024372.82945  23771510.2034   23771500.1604
        41.5004         32.0004
 10  7 31  1 27  0.0000000  0  8G04G14G11G17G12G30G20G31
 -11969881.84647  -9297109.18245  22443591.8054   22443583.0514
        45.5004         35.7504
 -10790388.64447  -8396292.66445  23007888.7274   23007878.8014
        45.0004         31.0004
   -948699.91847   -712820.83844  24181563.7034   24181553.0744
        43.2504         25.0004
 -14938991.51948 -11611873.66347  22062249.4924   22062239.3914
        48.0004         42.2504
 -14169527.02747 -11031650.29246  22217988.2894   22217979.1254
        47.0004         41.2504
  -7405694.43447  -5748953.48944  23306629.0234   23306620.9144
        43.7504         29.7504
 -19449924.17248 -15137932.38747  21257772.9304   21257762.2424
        48.7504         42.7504
  -6556539.07046  -5092377.77945  23754902.8284   23754892.2584
        41.5004         32.5004
 10  7 31  1 27 30.0000000  0  8G04G14G11G17G12G30G20G31
 -12057162.21947  -9365119.92045  22426983.0164   22426974.2624
        45.2504         35.5004
 -10715740.78747  -8338125.55945  23022093.0634   23022083.8984
        43.5004         30.7504
   -837955.50647   -626526.52744  24202637.5004   24202627.1054
        44.0004         28.0004
 -14872219.64448 -11559843.63446  22074955.7734   22074945.8484
        48.0004         41.7504
 -14197919.58347 -11053774.39046  22212585.6724   22212576.0984
        47.0004         40.2504
  -7499118.62747  -5821751.57544  23288850.8204   23288842.8874
        42.5004         28.5004
 -19461669.34548 -15147084.44847  21255537.9064   21255527.6884
        49.5004         43.7504
  -6643433.58946  -5160087.80745  23738366.9454   23738356.5514
        41.0004         32.5004
 10  7 31  1 28  0.0000000  0  8G04G14G11G17G12G30G20G31
 -12144019.45647  -9432800.92446  22410454.8754   22410445.4184
        45.5004         36.0004
 -10640628.70747  -8279596.75945  23036386.8524   23036376.9264
        42.5004         30.7504
   -727025.43446   -540087.48944  24223746.7504   24223737.2344
        41.5004         27.7504
 -14804950.96047 -11507426.50546  22087756.8364   22087746.3834
        47.5004         41.5004
 -14225688.44047 -11075412.41546  22207301.3674   22207291.7344
        47.0004         40.5004
  -7592109.79746  -5894212.17744  23271155.3204   23271147.2704
        41.0004         27.2504
 -19472777.00348 -15155739.71747  21253424.3284   21253413.6994
        48.7504         43.2504
  -6729946.92146  -5227500.77345  23721903.3284   23721893.9884
        41.0004         32.0004
 10  7 31  1 28 30.0000000  0  8G04G14G11G17G12G30G20G31
 -12230450.98047  -9500150.21846  22394007.5554   22393998.1564
        45.5004         36.0004
 -10565054.28547  -8220707.70645  23050768.4144   23050759.0164
        44.0004         31.7504
   -615911.98746   -453505.63844  24244890.8364   24244881.4964
        39.7504         26.2504
 -14737186.88347 -11454623.33046  22100651.4614   22100641.5354
        47.5004         41.7504
 -14252831.84947 -11096563.08146  22202136.2814   22202126.5314
        47.0004         40.5004
  -7684664.56547  -5966332.68244  23253542.6254   23253533.8134
        42.2504         27.5004
 -19483246.66348 -15163897.90147  21251431.9454   21251421.5514
        48.7504         43.0004
  -6816076.22246  -5294614.54045  23705514.1564   23705504.2894
        41.0004         32.0004
 10  7 31  1 29  0.0000000  0  8G04G14G11G17G12G30G20G31
 -12316454.37747  -9567165.86846  22377641.3984   22377632.3524
        45.5004         36.0004
 -10489020.41347  -8161460.59845  23065237.2424   23065227.7854
        43.0004         32.0004
   -504617.42246   -366782.59744  24266069.6644   24266060.3244
        40.2504         26.2504
 -14668930.37647 -11401436.44846  22113640.2584   22113630.3914
        47.5004         41.2504
 -14279349.19047 -11117225.89346  22197089.8984   22197080.1484
        47.0004         40.5004
  -7776780.50147  -6038111.25444  23236013.8134   23236005.4694
        42.2504         27.0004
 -19493078.04448 -15171558.69947  21249560.9224   21249550.7624
        48.7504         43.2504
  -6901819.19546  -5361427.21045  23689198.1254   23689187.7304
        41.0004         31.2504
 10  7 31  1 29 30.0000000  0  8G04G14G11G17G12G30G20G31
 -12402027.41047  -9633846.15446  22361357.6414   22361348.5354
        45.7504         36.0004
 -10412529.43847  -8101857.29545  23079793.0004   23079783.4264
        45.0004         31.2504
   -393144.64446   -279920.70344  24287282.7894   24287271.9844
        41.2504         25.5004
 -14600183.12548 -11347867.14046  22126722.5474   22126712.8554
        48.0004         41.5004
 -14305239.80147 -11137400.33746  22192163.1174   22192153.1334
        47.2504         41.2504
  -7868454.56447  -6109545.51644  23218568.7344   23218559.9804
        44.0004         27.5004
 -19502270.96848 -15178721.98847  21247811.4614   21247801.0084
        50.5004         43.2504
  -6987173.35346  -5427936.90245  23672955.6884   23672945.3524
        41.0004         30.7504
 10  7 31  1 30  0.0000000  0  8G04G14G11G17G12G30G20G31
 -12487167.30847  -9700188.92845  22345156.4144   22345146.7814
        46.0004         35.5004
 -10335583.22347  -8041899.28145  23094435.7114   23094425.9614
        44.7504         31.0004
   -281495.91846   -192921.75144  24308528.2344   24308518.8364
        41.0004         26.5004
 -14530946.39647 -11293916.43846  22139897.9844   22139887.5904
        47.5004         41.0004
 -14330501.92547 -11157085.06746  22187355.8134   22187346.1804
        47.2504         41.0004
  -7959683.36747  -6180632.85844  23201208.7194   23201199.7894
        43.5004         27.7504
 -19510824.46448 -15185387.02547  21246184.0234   21246173.9804
        50.0004         43.7504
  -7072135.91247  -5494141.43545  23656787.6334   23656777.1804
        42.0004         31.0004
 10  7 31  1 30 30.0000000  0  8G04G14G11G17G12G30G20G31
 -12571871.69547  -9766192.34246  22329037.1804   22329028.3674
        46.0004         36.0004
 -10258184.45847  -7981588.60945  23109163.8524   23109154.5124
        43.7504         31.0004
   -169672.98746   -105787.03444  24329807.6334   24329797.4734
        39.2504         25.7504
 -14461222.85948 -11239586.37446  22153165.4614   22153155.8284
        48.0004         40.7504
 -14355135.16147 -11176279.74846  22182667.9144   22182657.8134
        46.7504         41.0004
  -8050464.28247  -6251371.22444  23183933.2194   23183924.9344
        42.7504         27.0004
 -19518738.42748 -15191553.79047  21244678.0314   21244667.8714
        49.0004         43.5004
  -7156704.27646  -5560038.86045  23640694.9384   23640685.4224
        41.0004         32.2504
 10  7 31  1 31  0.0000000  0  8G04G14G11G17G12G30G20G31
 -12656138.13047  -9831854.47946  22313001.3134   22312992.0904
        46.5004         36.0004
 -10180335.42047  -7920927.10245  23123978.3054   23123968.9654
        43.5004         30.5004
    -57678.45746    -18518.67443  24351118.9694   24351109.6884
        38.0004         23.2504
 -14391014.46448 -11184878.43746  22166525.8914   22166515.9654
        48.2504         41.0004
 -14379138.65147 -11194983.77846  22178100.7974   22178091.7504
        47.0004         41.0004
  -8140793.86447  -6321757.87344  23166743.8364   23166735.4344
        43.0004         27.0004
 -19526012.96548 -15197222.23247  21243293.5634   21243283.2854
        48.7504         43.0004
  -7240875.67346  -5625626.95545  23624678.1334   23624667.0354
        41.0004         32.2504
 10  7 31  1 31 30.0000000  0  8G04G14G11G17G12G30G20G31
 -12739964.59347  -9897173.76146  22297049.8284   22297040.8984
        45.7504         36.2504
 -10102038.76247  -7859916.79945  23138877.5474   23138868.0314
        44.0004         30.2504
     54485.00246     68881.27544  24372464.0634   24372454.0204
        38.0004         24.0004
 -14320323.53447 -11129794.55946  22179977.7584   22179967.8914
        47.0004         41.0004
 -14402511.39647 -11213196.26246  22173652.7344   22173642.9844
        47.0004         40.5004
  -8230669.57247  -6391790.89044  23149641.2274   23149632.9414
        42.7504         27.5004
 -19532648.06548 -15202392.42147  21242031.2664   21242020.5204
        48.7504         43.5004
  -7324647.81946  -5690903.91745  23608736.5394   23608726.3794
        41.2504         31.7504
 10  7 31  1 32  0.0000000  0  8G04G14G11G17G12G30G20G31
 -12823349.45947  -9962148.94246  22281182.0864   22281173.1564
        45.7504         36.5004
 -10023298.09747  -7798560.50045  23153861.7974   23153852.0474
        42.7504         30.7504
    166814.39346    156410.66244  24393839.7344   24393829.3984
        41.7504         25.2504
 -14249153.16947 -11074337.16246  22193520.8444   22193511.4454
        47.2504         41.2504
 -14425253.77547 -11230917.63046  22169325.1884   22169315.3794
        47.0004         41.0004
  -8320089.40347  -6461468.66244  23132624.9534   23132616.9614
        43.0004         28.0004
 -19538644.42648 -15207064.93647  21240890.0554   21240879.7774
        49.0004         43.5004
  -7408019.08147  -5755868.51645  23592871.9304   23592861.2424
        42.0004         32.2504
 10  7 31  1 32 30.0000000  0  8G04G14G11G17G12G30G20G31
 -12906289.14947 -10026777.22046  22265399.2664   22265389.8674
        45.7504         37.0004
  -9944114.61546  -7736859.15144  23168929.1804   23168920.4844
        41.5004         29.7504
    279307.68846    244067.76444  24415245.8914   24415236.2584
        41.0004         24.5004
 -14177504.18447 -11018506.83946  22207155.6414   22207145.5984
        47.2504         40.5004
 -14447363.46547 -11248145.95146  22165117.6254   22165107.8164
        47.0004         41.0004
  -8409049.02146  -6530787.81544  23115696.6024   23115688.1994
        41.5004         28.5004
 -19544000.66048 -15211238.64947  21239870.6484   21239860.1374
        49.0004         43.2504
  -7490985.93046  -5820518.01045  23577083.1484   23577073.1054
        41.2504         31.5004
 10  7 31  1 33  0.0000000  0  8G04G14G11G17G12G30G20G31
 -12988780.88447 -10091056.46246  22249701.9384   22249692.5984
        45.7504         36.0004
  -9864489.94047  -7674814.06145  23184081.7114   23184072.1954
        45.0004         31.2504
    391963.60646    331851.56843  24436683.7424   24436674.1094
        40.7504         22.5004
 -14105378.01248 -10962304.66646  22220880.9304   22220870.7114
        48.5004         41.5004
 -14468839.07047 -11264880.14546  22161030.9454   22161021.4304
        47.5004         41.0004
  -8497545.29547  -6599745.96844  23098856.3284   23098848.1604
        44.5004         29.0004
 -19548716.08648 -15214913.02147  21238973.6094   21238963.0984
        50.7504         43.0004
  -7573544.85746  -5884849.59945  23561372.1024   23561362.4694
        41.5004         31.2504
 10  7 31  1 33 30.0000000  0  8G04G14G11G17G12G30G20G31
 -13070823.21647 -10154985.52846  22234089.6804   22234080.7504
        46.0004         36.7504
  -9784427.64847  -7612427.91745  23199317.3754   23199308.0354
        44.0004         30.0004
    504778.73646    419759.40743  24458151.4304   24458142.2074
        40.0004         22.7504
 -14032777.79947 -10905733.09246  22234696.2814   22234685.9454
        47.2504         40.5004
 -14489681.24447 -11281120.79746  22157064.8444   22157054.9774
        47.0004         41.0004
  -8585576.04547  -6668341.39344  23082105.0004   23082096.2464
        43.5004         29.2504
 -19552791.58448 -15218088.70647  21238197.7504   21238187.2384
        48.7504         43.2504
  -7655694.79947  -5948862.56845  23545740.1884   23545729.8524
        42.0004         32.5004
 10  7 31  1 34  0.0000000  0  8G04G14G11G17G12G30G20G31
 -13152414.16647 -10218562.83346  22218563.6334   22218554.3524
        46.0004         36.5004
  -9703930.46447  -7549702.94944  23214635.1724   23214626.2424
        43.7504         29.2504
    617750.23846    507789.16743  24479649.2194   24479639.4104
        41.2504         23.7504
 -13959706.14147 -10848794.13946  22248601.2814   22248590.8874
        47.2504         40.2504
 -14509889.41447 -11296867.40346  22153219.7974   22153209.9884
        47.2504         41.0004
  -8673138.67747  -6736571.99644  23065442.6804   23065433.7504
        43.5004         29.5004
 -19556227.40848 -15220765.92347  21237544.1804   21237533.7274
        49.0004         43.2504
  -7737433.32747  -6012554.91645  23530185.8594   23530175.8164
        42.2504         32.0004
 10  7 31  1 34 30.0000000  0  9G04G14G23G11G17G12G30G20G31
 -13233550.20847 -10281785.65446  22203123.8364   22203114.4384
        46.0004         36.7504
  -9622999.90147  -7486640.29444  23230036.0944   23230026.9884
        43.2504         29.7504
   -265352.39256   -177283.27953  25070573.0084   25070561.2664
        40.0004         22.5004
    730876.81246    595939.69443  24501176.2664   24501167.1024
        39.7504         23.5004
 -13886163.83447 -10791488.45646  22262596.2664   22262585.6954
        47.0004         40.5004
 -14529461.34147 -11312118.27146  22149495.2274   22149484.8324
        47.2504         41.0004
  -8760229.28147  -6804434.76645  23048869.1024   23048860.6414
        43.7504         30.0004
 -19559022.37548 -15222943.84047  21237012.2504   21237001.5634
        48.7504         43.2504
  -7818756.91147  -6075924.00645  23514710.3284   23514700.6374
        42.2504         33.0004
 10  7 31  1 35  0.0000000  0  9G04G14G23G11G17G12G30G20G31
 -13314228.48347 -10344651.77846  22187770.7894   22187762.2704
        46.2504         37.2504
  -9541637.74347  -7423241.30244  23245519.0314   23245509.6914
        44.0004         29.2504
   -381651.33746   -267905.92644  25048442.4224   25048430.2114
        39.5004         24.2504
    844156.60246    684209.62843  24522733.3984   24522723.4144
        39.5004         22.0004
 -13812152.70947 -10733817.44046  22276679.3834   22276669.5744
        47.5004         40.7504
 -14548395.89247 -11326872.41546  22145891.9774   22145881.9924
        47.5004         41.5004
  -8846844.41147  -6871927.07445  23032387.2274   23032378.2974
        44.0004         30.0004
 -19561175.94348 -15224621.93947  21236602.4774   21236592.0234
        49.0004         43.0004
  -7899662.15547  -6138966.98645  23499314.5864   23499304.4264
        43.0004         32.7504
 10  7 31  1 35 30.0000000  0  9G04G14G23G11G17G12G30G20G31
 -13394448.77447 -10407161.03646  22172505.7894   22172496.7424
        46.2504         38.0004
  -9459848.67847  -7359509.61144  23261082.9454   23261073.7814
        42.7504         29.5004
   -497848.96946   -358449.58943  25026330.4224   25026318.2704
        36.5004         22.2504
    957585.02546    772595.28843  24544317.5164   24544308.4694
        39.2504         22.0004
 -13737676.96747 -10675784.40146  22290852.3754   22290842.0984
        47.0004         40.7504
 -14566694.74947 -11341131.25146  22142409.7504   22142399.8244
        47.0004         41.2504
  -8932983.06547  -6939048.08645  23015995.7814   23015986.2074
        43.2504         30.0004
 -19562689.98448 -15225801.64847  21236314.3054   21236303.9694
        49.0004         43.5004
  -7980149.19647  -6201684.19745  23483998.0944   23483988.5204
        42.5004         33.0004
 10  7 31  1 36  0.0000000  0  9G04G14G23G11G17G12G30G20G31
 -13474207.24047 -10469310.43546  22157328.1884   22157319.1414
        46.5004         37.2504
  -9377633.88647  -7295446.22144  23276727.6644   23276718.9104
        43.2504         29.0004
   -613941.46746   -448911.30343  25004238.6094   25004226.1644
        36.7504         22.0004
   1071161.18046    861096.10543  24565931.3674   24565921.0314
        40.2504         22.5004
 -13662737.07247 -10617389.72246  22305112.6954   22305102.5944
        46.7504         40.2504
 -14584355.76947 -11354893.11246  22139048.8984   22139039.2074
        47.0004         40.5004
  -9018640.97647  -7005794.46245  22999695.7424   22999686.8134
        43.0004         31.5004
 -19563563.32948 -15226482.15147  21236148.4534   21236137.5904
        49.0004         43.5004
  -8060213.94847  -6264072.34945  23468762.6804   23468752.7544
        42.5004         33.5004
 10  7 31  1 36 30.0000000  0  9G04G14G23G11G17G12G30G20G31
 -13553502.79647 -10531099.15546  22142238.5234   22142229.8284
        46.5004         37.2504
  -9294996.87946  -7231053.84845  23292453.3594   23292444.0204
        41.5004         30.2504
   -729927.33946   -539289.96343  24982168.4614   24982155.6644
        37.5004         23.2504
   1184882.26146    949709.93644  24587571.8754   24587561.7734
        38.7504         24.5004
 -13587336.54447 -10558636.08746  22319460.6334   22319450.7074
        46.5004         40.2504
 -14601379.35547 -11368158.33346  22135809.4064   22135799.6564
        47.0004         40.7504
  -9103816.58147  -7072165.06645  22983486.5554   22983478.4454
        43.5004         31.0004
 -19563797.04448 -15226664.27347  21236103.4694   21236092.8404
        49.0004         43.5004
  -8139854.77647  -6326130.14345  23453607.3594   23453597.7854
        42.2504         33.5004
 10  7 31  1 37  0.0000000  0  9G04G14G23G11G17G12G30G20G31
 -13632332.31147 -10592524.72246  22127238.0394   22127228.8164
        46.7504         38.0004
  -9211939.07847  -7166333.52445  23308258.8524   23308249.6884
        44.0004         30.2504
   -845802.97146   -629582.70344  24960117.3914   24960105.4144
        39.0004         26.0004
   1298746.05946   1038434.88343  24609239.0474   24609229.5904
        39.5004         22.2504
 -13511477.00347 -10499524.76346  22333896.5864   22333886.6604
        46.5004         40.2504
 -14617763.69547 -11380925.24146  22132691.1884   22132681.5554
        47.5004         41.0004
  -9188505.94847  -7138156.79745  22967372.2814   22967363.1174
        45.0004         31.0004
 -19563390.49848 -15226347.50347  21236181.0634   21236170.4924
        49.0004         43.5004
  -8219068.34647  -6387854.99945  23438533.5784   23438524.0634
        42.7504         33.7504
 10  7 31  1 37 30.0000000  0  9G04G14G23G11G17G12G30G20G31
 -13710693.60547 -10653585.46446  22112326.1724   22112317.2424
        47.0004         38.0004
  -9128463.41447  -7101287.61545  23324143.4224   23324134.5514
        42.5004         30.5004
   -961566.16746   -719787.83444  24938088.6254   24938076.5904
        39.5004         26.0004
   1412750.18946   1127269.24743  24630933.0704   24630923.2624
        38.7504         21.5004
 -13435160.23247 -10440057.17746  22348419.2194   22348409.4694
        46.5004         39.2504
 -14633508.19947 -11393193.40746  22129695.5004   22129685.3404
        47.5004         41.0004
  -9272706.30847  -7203767.42345  22951348.1804   22951339.8364
        42.5004         31.5004
 -19562343.76148 -15225531.87847  21236380.2974   21236369.6094
        49.2504         43.5004
  -8297852.47247  -6449245.19045  23423541.2894   23423531.4804
        43.5004         33.0004
 10  7 31  1 38  0.0000000  0  9G04G14G23G11G17G12G30G20G31
 -13788584.06847 -10714279.32346  22097504.0474   22097495.2934
        46.5004         38.0004
  -9044572.13146  -7035917.83744  23340107.2194   23340098.2894
        41.2504         29.5004
  -1077214.11346   -809903.21744  24916080.4924   24916069.2774
        39.5004         24.5004
   1526892.65346   1216211.39143  24652653.8134   24652643.3594
        40.0004         19.7504
 -13358388.39747 -10380235.04446  22363028.2734   22363018.8164
        46.2504         39.0004
 -14648612.80047 -11404963.15046  22126821.0084   22126810.6724
        47.5004         41.0004
  -9356414.88447  -7268994.90345  22935419.1644   22935410.2934
        42.2504         31.5004
 -19560656.51148 -15224217.15447  21236701.3284   21236690.6414
        49.0004         43.5004
  -8376204.61447  -6510298.78745  23408631.2584   23408621.3914
        42.5004         33.7504
 10  7 31  1 38 30.0000000  0  9G04G14G23G11G17G12G30G20G31
 -13866001.57647 -10774604.63546  22082772.3134   22082762.9734
        46.7504         37.7504
  -8960267.70446  -6970226.14544  23356150.5474   23356141.2664
        40.7504         29.5004
  -1192744.31846   -899926.81943  24894096.2814   24894085.4184
        37.7504         22.7504
   1641170.88646   1305259.47243  24674400.3524   24674389.6644
        40.5004         19.7504
 -13281164.34847 -10320060.53646  22377723.6954   22377713.7114
        46.2504         39.7504
 -14663077.10547 -11416234.04246  22124068.7274   22124058.7424
        47.0004         41.5004
  -9439628.61847  -7333836.84545  22919583.9614   22919575.6764
        42.0004         30.5004
 -19558329.20848 -15222403.74747  21237144.0634   21237133.4924
        49.0004         43.0004
  -8454122.56347  -6571014.10345  23393804.4534   23393794.4694
        42.2504         33.5004
 10  7 31  1 39  0.0000000  0  9G04G14G23G11G17G12G30G20G31
 -13942943.65347 -10834559.48946  22068130.8054   22068121.3484
        46.7504         38.2504
  -8875553.02647  -6904214.75645  23372270.8754   23372261.7114
        43.5004         30.0004
  -1308154.29146   -989856.69243  24872134.1334   24872123.0354
        37.5004         21.5004
   1755582.44547   1394411.34443  24696171.8594   24696162.2274
        42.7504         22.0004
 -13203490.02047 -10259535.09646  22392504.6254   22392494.2894
        46.7504         39.5004
 -14676899.71847 -11427004.66746  22121437.9924   22121427.8324
        47.2504         41.0004
  -9522344.57447  -7398290.82045  22903843.4304   22903835.4384
        43.7504         31.2504
 -19555361.94648 -15220091.64347  21237708.7894   21237698.7464
        49.0004         43.5004
  -8531603.53447  -6631388.90145  23379060.2584   23379049.9804
        43.5004         33.5004
 10  7 31  1 39 30.0000000  0  9G04G14G23G11G17G12G30G20G31
 -14019407.48147 -10894141.67746  22053579.8674   22053570.7624
        47.0004         37.5004
  -8790429.43547  -6837884.67144  23388469.1954   23388460.2664
        43.5004         29.5004
  -1423440.68646  -1079690.28343  24850196.5234   24850184.1374
        36.7504         20.2504
   1870126.07146   1483666.08943  24717969.0234   24717959.3324
        40.7504         22.7504
 -13125366.60347 -10198659.71046  22407370.8594   22407360.9924
        46.7504         40.0004
 -14690079.97247 -11437274.88546  22118929.4064   22118919.5394
        47.2504         41.5004
  -9604559.28847  -7462354.18145  22888198.8444   22888189.9144
        44.2504         30.7504
 -19551754.16248 -15217280.41047  21238395.4924   21238385.0394
        49.0004         43.7504
  -8608644.03347  -6691420.43745  23364399.7814   23364389.9144
        44.0004         34.0004
 10  7 31  1 40  0.0000000  0  9G04G14G23G11G17G12G30G20G31
 -14095393.27247 -10953351.36546  22039119.9924   22039110.8874
        47.0004         38.2504
  -8704902.29147  -6771240.10145  23404745.0234   23404736.0944
        43.7504         30.0004
  -1538603.29446  -1169427.36543  24828281.6254   24828270.4694
        38.5004         22.5004
   1984796.60846   1573019.67443  24739789.2974   24739779.8984
        40.7504         22.5004
 -13046798.99847 -10137438.21846  22422322.0164   22422311.6214
        46.2504         39.7504
 -14702620.03447 -11447046.30146  22116543.6644   22116533.7384
        47.2504         41.5004
  -9686272.64647  -7526026.90545  22872649.3204   22872640.4494
        44.5004         31.7504
 -19547508.41648 -15213971.98547  21239203.0234   21239192.7464
        49.0004         43.7504
  -8685244.81247  -6751109.40645  23349823.1724   23349813.2464
        44.7504         34.0004
 10  7 31  1 40 30.0000000  0  9G04G14G23G11G17G12G30G20G31
 -14170896.41147 -11012184.95446  22024752.0704   22024743.0824
        46.7504         38.0004
  -8618971.97546  -6704281.42744  23421096.7344   23421087.6884
        41.7504         28.5004
  -1653637.19246  -1259064.11344  24806392.1414   24806379.4024
        40.0004         25.2504
   2099593.99046   1662472.07543  24761635.3834   24761625.8674
        38.7504         22.5004
 -12967786.87647 -10075870.34146  22437357.0864   22437347.3364
        46.0004         39.0004
 -14714516.79547 -11456316.44046  22114279.7034   22114269.4844
        47.2504         41.5004
  -9767479.38547  -7589304.85845  22857196.2114   22857187.1644
        43.0004         31.2504
 -19542622.76848 -15210164.95747  21240133.3524   21240122.4884
        48.7504         43.0004
  -8761400.84047  -6810451.82645  23335330.8754   23335321.3014
        43.0004         34.5004
 10  7 31  1 41  0.0000000  0  9G04G14G23G11G17G12G30G20G31
 -14245914.42547 -11070640.52646  22010476.9614   22010467.8554
        47.5004         38.2504
  -8532640.10546  -6637009.80344  23437525.4774   23437515.8444
        41.7504         29.2504
  -1768539.88046  -1348598.63744  24784526.0944   24784514.4694
        41.5004         26.5004
   2214516.72347   1752022.20343  24783504.3524   24783494.1914
        42.2504         21.5004
 -12888332.74747 -10013958.07646  22452477.0164   22452467.2074
        46.2504         39.0004
 -14725769.85447 -11465085.05347  22112138.2114   22112128.3444
        47.5004         42.0004
  -9848176.35747  -7652185.59445  22841839.4064   22841831.2384
        43.5004         31.5004
 -19537096.86348 -15205859.10447  21241184.3284   21241174.6374
        49.0004         43.2504
  -8837109.19447  -6869445.37445  23320924.3204   23320914.6884
        43.2504         34.7504
 10  7 31  1 41 30.0000000  0  9G04G14G23G11G17G12G30G20G31
 -14320448.27347 -11128718.84146  21996293.4534   21996284.7584
        47.0004         38.2504
  -8445912.88047  -6569430.13744  23454028.6254   23454019.8714
        42.5004         29.5004
  -1883311.35246  -1438030.91944  24762686.6644   24762674.5124
        40.5004         26.5004
   2329558.90546   1841665.49143  24805396.7194   24805386.3244
        41.0004         22.0004
 -12808441.44047  -9951705.11046  22467679.7974   22467669.8714
        46.0004         39.5004
 -14736381.47647 -11473353.83946  22110118.7504   22110108.8244
        47.2504         41.2504
  -9928364.12247  -7714669.49645  22826580.7894   22826572.0944
        43.0004         31.7504
 -19530934.10748 -15201056.85347  21242357.4064   21242347.1884
        49.0004         43.5004
  -8912370.79147  -6928090.73145  23306602.8284   23306592.5514
        44.0004         34.5004
 10  7 31  1 42  0.0000000  0  9G04G14G23G11G17G12G30G20G31
 -14394492.32347 -11186415.48846  21982203.4064   21982194.1844
        47.0004         38.5004
  -8358789.50647  -6501541.81044  23470607.9924   23470598.4184
        43.0004         29.0004
  -1997945.99046  -1527356.60244  24740871.0554   24740859.7814
        39.5004         24.7504
   2444721.75746   1931402.85043  24827311.7814   24827301.2114
        40.2504         21.7504
 -12728112.36947  -9889111.04946  22482965.9614   22482956.1524
        46.0004         39.5004
 -14746347.95847 -11481119.89146  22108222.3914   22108212.3484
        47.5004         41.7504
 -10008036.38347  -7776751.74945  22811419.5474   22811411.1454
        44.0004         31.5004
 -19524131.80448 -15195756.33347  21243651.5944   21243640.9064
        49.0004         43.5004
  -8987179.37547  -6986382.97945  23292366.3364   23292356.7034
        44.0004         34.5004
 10  7 31  1 42 30.0000000  0 10G04G14G23G11G02G17G12G30G20G31
 -14468043.83047 -11243728.33246  21968207.4144   21968198.3674
        47.0004         38.2504
  -8271272.21847  -6433346.57944  23487261.9924   23487252.9454
        42.7504         28.5004
  -2112441.17446  -1616573.64343  24719082.6094   24719071.1604
        38.7504         22.0004
   2560003.21046   2021232.59143  24849248.3594   24849238.4924
        39.0004         22.2504
    325955.40456    263819.08253  25146302.8284   25146291.9064
        40.7504         22.5004
 -12647347.08547  -9826177.09146  22498335.0234   22498325.3914
        45.7504         38.7504
 -14755668.88947 -11488382.83246  22106448.3914   22106438.2304
        47.5004         41.0004
 -10087190.14447  -7838429.95045  22796357.1414   22796348.3284
        43.7504         32.2504
 -19516689.84148 -15189957.50647  21245067.7424   21245057.7584
        48.7504         43.5004
  -9061533.13947  -7044320.93245  23278218.0234   23278207.9224
        44.2504         35.0004
 10  7 31  1 43  0.0000000  0 10G04G14G23G11G02G17G12G30G20G31
 -14541107.58847 -11300661.13646  21954303.5634   21954294.3404
        47.0004         39.0004
  -8183369.93846  -6364851.29644  23503989.2504   23503979.7344
        41.2504         28.5004
  -2226800.82446  -1705685.08143  24697322.1254   24697309.6804
        40.7504         20.5004
   2675394.44946   2111147.79043  24871206.3674   24871196.4414
        37.7504         21.2504
    210661.24046    173979.49644  25124363.0474   25124352.0084
        41.5004         24.0004
 -12566155.33547  -9762910.88646  22513785.6174   22513775.6914
        45.5004         38.7504
 -14764350.34047 -11495147.55846  22104796.8834   22104786.2544
        47.5004         41.2504
 -10165829.34347  -7899707.18945  22781392.1334   22781383.6134
        42.0004         31.0004
 -19508614.84848 -15183665.31547  21246604.4774   21246594.0234
        48.7504         43.2504
  -9135436.07247  -7101907.62645  23264154.7424   23264144.5234
        43.0004         35.0004
 10  7 31  1 43 30.0000000  0 10G04G14G23G11G02G17G12G30G20G31
 -14613671.74247 -11357204.66446  21940494.9064   21940486.1524
        47.0004         39.0004
  -8095076.20746  -6296050.99044  23520791.4844   23520782.0864
        40.0004         27.5004
  -2341012.62447  -1794681.36443  24675588.2344   24675575.9654
        42.0004         21.0004
   2790902.33546   2201153.87943  24893186.8054   24893177.5234
        38.7504         22.5004
     95457.93846     84210.68044  25102440.5004   25102429.6374
        40.7504         25.2504
 -12484529.04847  -9699306.00346  22529318.2274   22529308.5944
        45.7504         39.5004
 -14772382.79447 -11501406.61646  22103268.0554   22103258.1884
        47.5004         41.5004
 -10243941.59546  -7960573.83545  22766527.7274   22766519.6174
        41.5004         30.7504
 -19499897.97848 -15176872.95447  21248263.3054   21248253.1454
        48.7504         43.7504
  -9208875.93247  -7159133.31745  23250179.1484   23250169.3984
        43.0004         35.0004
 10  7 31  1 44  0.0000000  0 10G04G14G23G11G02G17G12G30G20G31
 -14685737.55947 -11413359.90146  21926781.2194   21926772.4064
        47.0004         38.7504
  -8006396.65346  -6226949.99944  23537665.5704   23537656.9344
        41.2504         27.0004
  -2455077.44147  -1883563.06643  24653882.7114   24653870.9104
        43.2504         23.0004
   2906521.52746   2291246.76743  24915188.2734   24915178.7584
        39.5004         22.7504
    -19655.55446     -5488.14244  25080535.1644   25080524.1254
        41.5004         27.0004
 -12402474.28747  -9635367.21546  22544932.9384   22544923.1884
        45.5004         38.7504
 -14779769.12547 -11507162.18546  22101862.2974   22101852.3134
        47.5004         41.5004
 -10321527.61947  -8021030.46345  22751763.5704   22751755.8134
        42.7504         31.2504
 -19490543.15848 -15169583.52847  21250043.6644   21250032.9774
        49.0004         43.5004
  -9281854.48247  -7215999.64745  23236292.0084   23236281.7894
        43.2504         35.2504
 10  7 31  1 44 30.0000000  0 10G04G14G23G11G02G17G12G30G20G31
 -14757306.17747 -11469127.72046  21913162.2194   21913153.5234
        47.2504         39.2504
  -7917337.37746  -6157553.14444  23554613.1724   23554604.0084
        41.5004         26.0004
  -2568995.71947  -1972330.57244  24632204.5314   24632193.0824
        42.5004         26.2504
   3022246.18946   2381421.91043  24937210.4614   24937200.0084
        39.0004         22.5004
   -134680.35846    -95117.76944  25058645.8134   25058635.5354
        41.0004         26.7504
 -12319996.75347  -9571099.04846  22560628.0704   22560618.0274
        45.7504         38.5004
 -14786512.52047 -11512416.76146  22100579.3284   22100569.4614
        47.5004         41.5004
 -10398587.72247  -8081077.24045  22737099.6484   22737091.2464
        43.5004         31.5004
 -19480553.76448 -15161799.61847  21251944.6024   21251933.5044
        49.0004         43.5004
  -9354372.13047  -7272506.87545  23222492.1954   23222481.9774
        44.0004         35.5004
 10  7 31  1 45  0.0000000  0 10G04G14G23G11G02G17G12G30G20G31
 -14828371.36947 -11524503.24646  21899639.1254   21899629.9024
        47.2504         39.5004
  -7827897.15246  -6087859.44544  23571633.3674   23571623.7344
        41.7504         25.5004
  -2682761.35246  -2060979.11344  24610555.3364   24610543.5354
        41.5004         26.0004
   3138078.25846   2471680.78743  24959251.7584   24959241.9494
        38.0004         21.5004
   -249610.23147   -184673.46544  25036776.0314   25036765.9304
        43.2504         26.0004
 -12237094.65247  -9506500.03346  22576404.0394   22576393.5864
        45.7504         38.5004
 -14792608.72347 -11517167.02546  22099419.1174   22099408.7234
        47.5004         41.5004
 -10475115.45747  -8140709.16245  22722537.1414   22722528.3284
        45.5004         32.7504
 -19469926.18248 -15153518.39947  21253966.7424   21253956.5234
        49.0004         43.5004
  -9426422.78647  -7328650.24845  23208781.1174   23208771.4844
        45.2504         35.0004
 10  7 31  1 45 30.0000000  0 10G04G14G23G11G02G17G12G30G20G31
 -14898932.92448 -11579486.33446  21886211.8054   21886202.6994
        49.5004         39.5004
  -7738080.08947  -6017872.10044  23588724.5234   23588715.5944
        42.2504         26.5004
  -2796373.39046  -2149507.92644  24588935.4694   24588925.0164
        40.7504         24.5004
   3254013.26145   2562019.78343  24981313.0314   24981304.5124
        33.0004         19.5004
   -364444.91247   -274155.03144  25014924.2114   25014913.2304
        44.0004         27.5004
 -12153772.00747  -9441573.30746  22592259.5554   22592249.5704
        45.5004         38.7504
 -14798059.04648 -11521414.07046  22098381.6644   22098371.8554
        48.2504         41.2504
 -10551109.99347  -8199925.65345  22708075.9774   22708067.2814
        45.2504         32.0004
 -19458662.69448 -15144741.66547  21256110.3444   21256099.6564
        52.7504         43.7504
  -9498005.66847  -7384429.01545  23195159.5634   23195149.5204
        45.2504         35.7504
 10  7 31  1 46  0.0000000  0 10G04G14G23G11G02G17G12G30G20G31
 -14968987.97447 -11634074.71146  21872880.8284   21872871.4304
        47.5004         39.2504
  -7647888.02246  -5947592.53744  23605886.9534   23605878.1994
        41.5004         26.2504
  -2909828.51646  -2237914.50943  24567345.7734   24567334.3244
        39.2504         22.7504
   3370049.99345   2652437.99543  25003394.3364   25003384.9964
        30.5004         18.2504
   -479181.64647   -363560.27644  24993089.4064   24993079.4224
        42.5004         25.5004
 -12070030.64347  -9376320.33046  22608194.8674   22608185.1764
        46.0004         38.5004
 -14802862.70948 -11525157.16646  22097467.7504   22097457.8244
        49.0004         41.7504
 -10626568.00047  -8258724.11345  22693716.5554   22693708.0354
        45.5004         32.0004
 -19446763.20948 -15135469.30547  21258374.7734   21258364.2624
        52.5004         43.5004
  -9569118.26847  -7439841.44546  23181627.6254   23181616.9964
        43.2504         36.0004
 10  7 31  1 46 30.0000000  0 10G04G14G23G11G02G17G12G30G20G31
 -15038535.00248 -11688267.21346  21859646.6174   21859637.0434
        50.5004         39.7504
  -7557324.20547  -5877023.31344  23623121.3914   23623112.2274
        42.2504         24.5004
  -3023124.48347  -2326197.12643  24545786.6414   24545773.8444
        42.2504         22.2504
   3486185.32245   2742933.03943  25025495.3284   25025484.1724
        33.5004         20.2504
   -593819.02247   -452888.14544  24971276.4064   24971265.0744
        43.5004         26.5004
 -11985873.39247  -9310743.23246  22624209.7034   22624199.1334
        46.0004         38.2504
 -14807020.36248 -11528396.90246  22096676.3524   22096666.3674
        48.2504         41.5004
 -10701487.19647  -8317102.65145  22679460.0004   22679451.3634
        45.0004         31.7504
 -19434228.56148 -15125701.99247  21260760.0864   21260749.5744
        52.0004         43.2504
  -9639758.72047  -7494885.97746  23168184.7274   23168174.9184
        46.2504         36.0004
 10  7 31  1 47  0.0000000  0 10G04G14G23G11G02G17G12G30G20G31
 -15107571.90848 -11742062.20646  21846509.2274   21846499.8874
        49.5004         39.0004
  -7466391.73547  -5806166.84644  23640425.2664   23640415.3984
        42.0004         25.2504
  -3136258.86347  -2414353.84843  24524258.1804   24524245.3204
        44.0004         22.5004
   3602416.68046   2833502.90543  25047613.3134   25047603.2704
        36.5004         22.2504
   -708354.61447   -542136.62844  24949480.2274   24949469.0124
        42.0004         26.5004
 -11901302.94247  -9244844.16446  22640302.5864   22640292.9534
        45.5004         38.5004
 -14810532.07648 -11531133.31447  22096008.3594   22095998.6094
        49.2504         42.0004
 -10775865.23247  -8375059.50545  22665305.8594   22665297.1054
        46.0004         31.5004
 -19421059.58848 -15115440.44147  21263265.8444   21263255.5664
        52.0004         44.0004
  -9709924.74947  -7549560.81045  23154833.0314   23154822.8134
        44.5004         35.2504
 10  7 31  1 47 30.0000000  0 10G04G14G23G11G02G17G12G30G20G31
 -15176096.20948 -11795457.76546  21833469.3444   21833460.6484
        48.2504         39.0004
  -7375092.68846  -5735024.77744  23657798.8284   23657789.8984
        41.5004         25.5004
  -3249228.54047  -2502382.14644  24502760.8984   24502748.8054
        44.0004         24.5004
   3718742.72546   2924146.59243  25069749.0084   25069738.7894
        36.5004         22.5004
   -822786.19646   -631304.13944  24927703.2664   24927693.5164
        39.7504         25.2504
 -11816321.19147  -9178624.67746  22656474.3204   22656464.8634
        45.5004         38.2504
 -14813397.19848 -11533365.89747  22095463.0004   22095453.1334
        49.5004         42.0004
 -10849699.10447  -8432592.41745  22651256.0004   22651247.0704
        46.0004         32.5004
 -19407256.35448 -15104684.68547  21265892.6564   21265882.2034
        52.7504         43.5004
  -9779613.74947  -7603863.93845  23141571.4454   23141561.6954
        43.5004         35.5004
 10  7 31  1 48  0.0000000  0 10G04G14G23G11G02G17G12G30G20G31
 -15244105.00948 -11848451.61846  21820528.0314   21820518.4574
        50.0004         39.7504
  -7283429.07947  -5663598.64044  23675242.0314   23675232.8094
        42.2504         26.5004
  -3362030.63247  -2590279.84744  24481294.9224   24481283.5314
        42.0004         25.0004
   3835161.64845   3014862.64343  25091903.3134   25091892.9184
        35.7504         22.2504
   -937110.68446   -720388.17643  24905948.7424   24905938.6414
        38.0004         22.7504
 -11730929.84647  -9112085.98146  22672723.6024   22672713.7934
        45.0004         37.5004
 -14815614.64148 -11535093.75047  22095041.1644   22095031.1804
        49.7504         42.2504
 -10922985.28647  -8489698.48245  22637310.2664   22637301.5124
        45.5004         33.0004
 -19392819.03348 -15093434.86247  21268639.9774   21268629.4064
        52.0004         43.2504
  -9848822.72847  -7657793.01645  23128401.3594   23128391.3164
        46.5004         35.5004
 10  7 31  1 48 30.0000000  0 10G04G14G23G11G02G17G12G30G20G31
 -15311599.07548 -11901044.36046  21807684.2344   21807675.0704
        51.2504         39.7504
  -7191405.64146  -5591892.11744  23692753.1414   23692744.7384
        40.7504         26.2504
  -3474664.85046  -2678046.71344  24459860.8444   24459849.3954
        39.0004         24.5004
   3951668.66145   3105647.38743  25114072.6024   25114063.4384
        34.5004         20.2504
  -1051328.37946   -809388.95944  24884213.5234   24884203.3054
        36.7504         25.7504
 -11645133.66047  -9045231.83346  22689050.2424   22689040.1994
        47.5004         38.2504
 -14817187.05148 -11536318.99047  22094741.7274   22094732.0944
        49.7504         42.0004
 -10995723.77047  -8546377.78745  22623468.8364   22623459.5554
        45.5004         33.0004
 -19377750.41248 -15081693.12747  21271507.3594   21271497.0824
        52.2504         43.0004
  -9917551.82547  -7711348.12545  23115322.4304   23115312.5634
        46.7504         35.2504
 10  7 31  1 49  0.0000000  0 10G04G14G23G11G02G17G12G30G20G31
 -15378573.29448 -11953231.99746  21794939.3834   21794930.3954
        51.7504         40.0004
  -7099022.91846  -5519905.69244  23710333.4924   23710324.2704
        41.2504         27.5004
  -3587125.62346  -2765678.34444  24438460.2664   24438449.3444
        41.0004         25.5004
   4068264.42545   3196501.24443  25136259.4694   25136250.5984
        35.0004         19.0004
  -1165434.06246   -898302.47344  24862501.0314   24862489.8164
        39.7504         26.2504
 -11558932.19348  -8978061.87246  22705454.0234   22705444.0984
        48.0004         38.0004
 -14818111.43148 -11537039.28147  22094565.8834   22094556.1334
        48.2504         42.0004
 -11067909.14147  -8602626.13645  22609731.7734   22609723.1954
        46.0004         33.5004
 -19362047.92548 -15069457.45947  21274495.3834   21274484.6374
        52.0004         43.2504
  -9985795.92347  -7764525.32145  23102335.9454   23102326.4304
        47.5004         35.5004
 10  7 31  1 49 30.0000000  0 10G04G14G23G11G02G17G12G30G20G31
 -15445025.73548 -12005013.05846  21782293.7424   21782284.5204
        50.5004         40.2504
  -7006283.10446  -5447640.95544  23727981.4774   23727972.3714
        41.0004         26.7504
  -3699410.63347  -2853173.12144  24417093.8984   24417082.3914
        43.7504         27.0004
   4184946.29646   3287422.20243  25158464.2894   25158454.8324
        36.5004         20.0004
  -1279426.00546   -987127.35544  24840808.4384   24840798.4534
        40.2504         27.5004
 -11472328.36247  -8910578.38246  22721933.9454   22721924.3134
        45.0004         37.5004
 -14818388.05948 -11537254.83247  22094513.3134   22094503.2114
        50.5004         42.2504
 -11139538.98847  -8658441.57645  22596101.5394   22596092.7274
        46.5004         33.0004
 -19345712.60548 -15056728.65647  21277603.9454   21277593.3164
        52.2504         43.2504
 -10053553.26947  -7817323.21045  23089442.1094   23089432.3014
        47.5004         35.2504
 10  7 31  1 50  0.0000000  0  9G04G14G23G02G17G12G30G20G31
 -15510954.91748 -12056386.38646  21769747.6954   21769738.7074
        51.7504         40.2504
  -6913189.15146  -5375100.25144  23745696.4144   23745687.2504
        40.5004         27.2504
  -3811517.25847  -2940528.88644  24395761.2424   24395748.7974
        45.0004         28.2504
  -1393302.12646  -1075861.97944  24819138.5784   24819128.1254
        41.5004         27.2504
 -11385324.72147  -8842783.38846  22738490.6094   22738480.5084
        47.5004         38.0004
 -14818017.30448 -11536965.93046  22094584.4304   22094574.2114
        49.2504         41.7504
 -11210610.97047  -8713822.27945  22582576.8754   22582568.0634
        46.2504         33.0004
 -19328745.42148 -15043507.47147  21280832.7034   21280821.9574
        52.2504         44.0004
 -10120821.79847  -7869740.20146  23076641.3524   23076631.3674
        47.0004         36.0004
 10  7 31  1 50 30.0000000  0  9G04G14G23G02G17G12G30G20G31
 -15576361.61348 -12107352.60246  21757301.1804   21757292.3094
        50.7504         40.5004
  -6819746.27146  -5302287.59944  23763478.4534   23763469.4064
        41.2504         28.5004
  -3923445.99847  -3027746.10644  24374461.3444   24374449.1334
        43.0004         25.7504
  -1507063.22146  -1164507.01644  24797490.9694   24797479.9884
        40.2504         26.2504
 -11297926.30547  -8774680.74546  22755121.7504   22755112.0004
        46.0004         38.5004
 -14817001.81348 -11536174.60547  22094776.9224   22094766.9964
        49.0004         42.0004
 -11281125.59647  -8768768.66045  22569158.3834   22569149.5124
        45.0004         33.2504
 -19311150.25148 -15029796.98447  21284180.9304   21284170.6524
        51.5004         43.0004
 -10187602.40847  -7921776.96746  23063933.3984   23063923.5904
        47.5004         36.0004
 10  7 31  1 51  0.0000000  0  9G04G14G23G02G17G12G30G20G31
 -15641239.73648 -12157906.92146  21744955.2894   21744946.1844
        50.0004         40.7504
  -6725953.76046  -5229202.51944  23781325.8054   23781317.4024
        41.0004         28.2504
  -4035190.26346  -3114819.51944  24353196.2114   24353184.9964
        41.0004         25.7504
  -1620702.99346  -1253057.48343  24775866.0554   24775855.0164
        39.5004         22.7504
 -11210131.55847  -8706269.29446  22771828.3204   22771818.9804
        45.0004         38.0004
 -14815337.85548 -11534878.00447  22095093.3364   22095083.3524
        49.0004         42.0004
 -11351076.43747  -8823275.75045  22555847.0084   22555837.9614
        45.7504         33.7504
 -19292923.45048 -15015594.29947  21287649.3054   21287638.9104
        52.5004         43.0004
 -10253888.85947  -7973428.68146  23051319.8984   23051309.7384
        47.2504         36.0004
 10  7 31  1 51 30.0000000  0  9G04G14G23G02G17G12G30G20G31
 -15705591.19048 -12208050.87646  21732709.5474   21732700.5004
        49.7504         40.5004
  -6631818.07446  -5155850.05144  23799239.4534   23799230.8754
        40.0004         29.2504
  -4146750.97147  -3201749.82644  24331967.0234   24331955.9264
        42.5004         26.7504
  -1734223.20446  -1341514.78443  24754263.7274   24754252.8054
        39.0004         22.7504
 -11121946.60547  -8637553.73246  22788609.3834   22788600.1604
        46.2504         38.0004
 -14813029.45748 -11533079.27046  22095532.9384   22095522.8954
        48.5004         41.5004
 -11420464.59047  -8877344.40145  22542642.7664   22542633.4264
        45.2504         33.0004
 -19274069.34648 -15000902.84147  21291237.0634   21291226.7274
        51.5004         43.0004
 -10319682.29247  -8024696.22546  23038799.2034   23038789.1604
        47.5004         36.0004
 10  7 31  1 52  0.0000000  0  9G04G14G23G02G17G12G30G20G31
 -15769410.33648 -12257780.05046  21720565.3054   21720556.0234
        50.0004         40.0004
  -6537338.25346  -5082229.44644  23817220.1024   23817209.1214
        41.0004         28.7504
  -4258122.10247  -3288532.45545  24310774.4144   24310763.1994
        44.0004         30.2504
  -1847617.75246  -1429874.14743  24732685.1564   24732674.6454
        39.7504         23.7504
 -11033371.29547  -8568534.18146  22805464.5474   22805455.4414
        47.5004         37.5004
 -14810072.88248 -11530775.49246  22096095.7034   22096085.4264
        49.5004         41.5004
 -11489284.02547  -8930969.90745  22529546.8674   22529537.9384
        45.0004         33.2504
 -19254585.19348 -14985720.37347  21294944.8914   21294934.4384
        51.2504         43.0004
 -10384977.68448  -8075575.73845  23026373.9224   23026364.1134
        48.0004         35.5004
 10  7 31  1 52 30.0000000  0  9G04G14G23G02G17G12G30G20G31
 -15832696.46848 -12307093.87446  21708522.4384   21708512.9224
        50.0004         40.0004
  -6442517.87546  -5008343.46844  23835264.0554   23835253.2504
        41.5004         27.5004
  -4369302.09347  -3375166.16545  24289617.2814   24289606.2424
        45.2504         31.7504
  -1960885.68846  -1518134.79444  24711131.0554   24711120.3094
        40.5004         24.5004
 -10944408.11947  -8499212.20446  22822394.0394   22822384.2894
        46.5004         37.7504
 -14806469.39148 -11527967.61246  22096781.1804   22096771.6644
        49.0004         41.7504
 -11557533.28247  -8984150.99845  22516559.3834   22516550.6294
        45.0004         33.7504
 -19234473.25748 -14970048.78447  21298772.0784   21298761.7424
        51.2504         43.2504
 -10449773.92948  -8126066.34746  23014044.0164   23014033.6804
        48.0004         36.0004
 10  7 31  1 53  0.0000000  0  9G04G14G23G02G17G12G30G20G31
 -15895450.14648 -12355992.79846  21696580.4774   21696571.1954
        48.2504         40.2504
  -6347362.11646  -4934196.11344  23853369.9144   23853361.5704
        41.0004         28.0004
  -4480290.70747  -3461650.72045  24268496.9614   24268485.0434
        45.2504         30.7504
  -2074027.44946  -1606297.18444  24689601.0474   24689589.9494
        41.5004         27.2504
 -10855062.44147  -8429592.22446  22839396.1024   22839386.2344
        45.7504         37.2504
 -14802221.84748 -11524657.83947  22097589.4064   22097579.3054
        49.5004         42.0004
 -11625212.65947  -9036888.14945  22503679.9924   22503671.5904
        46.5004         33.5004
 -19213736.42548 -14953890.23947  21302718.0394   21302707.8204
        52.0004         43.5004
 -10514071.11347  -8176168.01245  23001808.2424   23001798.3754
        44.0004         35.5004
 10  7 31  1 53 30.0000000  0  9G04G14G23G02G17G12G30G20G31
 -15957665.29548 -12404472.10346  21684741.5314   21684732.4264
        48.5004         41.2504
  -6251869.83246  -4859786.61544  23871541.1564   23871532.0514
        40.7504         28.2504
  -4591081.98047  -3547981.62844  24247413.9224   24247402.2384
        44.2504         27.5004
  -2187036.56546  -1694356.15044  24668095.6484   24668084.9614
        41.2504         26.7504
 -10765332.78647  -8359673.05046  22856470.7584   22856461.0084
        45.5004         37.2504
 -14797326.19748 -11520843.03046  22098521.0314   22098511.3984
        49.7504         41.7504
 -11692315.76947  -9089176.37345  22490911.3054   22490902.4344
        44.7504         34.0004
 -19192371.66348 -14937242.41647  21306783.7194   21306773.3834
        50.7504         43.0004
 -10577863.32047  -8225876.15246  22989669.2664   22989658.6374
        44.0004         36.2504
 10  7 31  1 54  0.0000000  0  9G04G14G23G02G17G12G30G20G31
 -16019340.70548 -12452530.85546  21673004.8914   21672995.4924
        49.7504         40.5004
  -6156044.19946  -4785117.35744  23889776.9064   23889767.2734
        40.5004         26.0004
  -4701673.19647  -3634156.61644  24226369.3284   24226357.2934
        44.2504         27.7504
  -2299911.30046  -1782310.36744  24646616.5004   24646605.8714
        41.0004         27.7504
 -10675221.94147  -8289456.83946  22873618.1884   22873608.9654
        46.2504         37.2504
 -14791783.67148 -11516524.29246  22099576.1174   22099565.9574
        49.0004         41.5004
 -11758840.44947  -9141013.86045  22478252.1484   22478242.8674
        45.7504         34.2504
 -19170380.37548 -14920106.40647  21310968.8204   21310958.4844
        51.0004         43.0004
 -10641148.93647  -8275189.62246  22977626.2114   22977615.8164
        47.5004         36.2504
 10  7 31  1 54 30.0000000  0  9G04G14G23G02G17G12G30G20G31
 -16080477.99648 -12500170.26946  21661370.8984   21661361.6764
        48.7504         41.0004
  -6059891.45246  -4710193.15544  23908073.7584   23908064.5944
        39.0004         25.0004
  -4812065.21447  -3720176.41744  24205362.2814   24205350.1884
        45.0004         28.0004
  -2412653.28946  -1870161.15644  24625162.3914   24625151.8794
        41.2504         27.5004
 -10584735.73547  -8218948.05246  22890837.6094   22890827.6254
        46.5004         37.2504
 -14785597.84648 -11511704.35346  22100753.2734   22100743.1724
        50.0004         41.7504
 -11824787.75547  -9192401.38445  22465702.6564   22465693.6684
        44.7504         34.7504
 -19147766.72748 -14902485.45447  21315271.7894   21315261.5124
        51.0004         43.2504
 -10703929.44847  -8324109.51246  22965679.9064   22965669.2774
        47.5004         36.5004
 10  7 31  1 55  0.0000000  0  9G04G14G23G02G17G12G30G20G31
 -16141071.93048 -12547386.28846  21649840.4454   21649830.9884
        48.5004         40.7504
  -5963410.86946  -4635013.58643  23926433.2814   23926424.2934
        39.5004         22.7504
  -4922252.03347  -3806036.30545  24184394.6414   24184382.8404
        46.0004         30.5004
  -2525256.76247  -1957904.03544  24603734.1644   24603723.6524
        42.0004         26.5004
 -10493873.87647  -8148146.59746  22908127.9924   22908118.0664
        47.0004         37.0004
 -14778765.79848 -11506380.97346  22102053.6564   22102043.9064
        49.7504         41.5004
 -11890152.17447  -9243334.69445  22453264.1484   22453255.6884
        47.0004         34.5004
 -19124528.07448 -14884377.36547  21319693.8054   21319683.8794
        51.7504         43.0004
 -10766199.44047  -8372631.57446  22953829.9534   22953819.8524
        44.5004         37.2504
 10  7 31  1 55 30.0000000  0  9G04G14G23G02G17G12G30G20G31
 -16201120.31048 -12594177.21646  21638413.5474   21638404.0314
        48.7504         41.5004
  -5866604.68246  -4559580.21044  23944855.8364   23944845.7934
        39.2504         24.7504
  -5032231.00747  -3891734.21745  24163466.1414   24163454.6334
        44.5004         30.7504
  -2637719.32546  -2045537.07944  24582333.1254   24582322.3204
        41.5004         26.0004
 -10402638.54747  -8077054.16646  22925489.8134   22925479.5354
        46.5004         36.7504
 -14771286.89548 -11500553.40046  22103476.7584   22103466.5984
        50.5004         41.7504
 -11954930.78047  -9293811.56045  22440937.3134   22440928.2074
        44.5004         34.0004
 -19100665.32048 -14865782.94547  21324234.8524   21324224.6334
        51.0004         42.7504
 -10827956.38547  -8420753.82546  22942077.9304   22942067.7704
        47.5004         36.7504
 10  7 31  1 56  0.0000000  0  9G04G14G23G02G17G12G30G20G31
 -16260624.35948 -12640543.98646  21627090.0234   21627080.8014
        50.2504         41.0004
  -5769478.86246  -4483897.75443  23963337.7114   23963328.4884
        38.0004         22.5004
  -5142002.69647  -3977270.61644  24142577.3134   24142565.8634
        42.5004         28.5004
  -2750041.85647  -2133061.09744  24560959.5634   24560948.5234
        42.5004         27.0004
 -10311034.79847  -8005674.60946  22942921.1414   22942911.6844
        45.7504         36.2504
 -14763164.48548 -11494224.22447  22105022.6414   22105012.7154
        49.5004         42.0004
 -12019124.43947  -9343832.59645  22428721.7344   22428712.9804
        45.2504         34.0004
 -19076182.66448 -14846705.56047  21328893.8834   21328883.7234
        50.5004         42.7504
 -10889201.75747  -8468477.47646  22930423.7274   22930413.2734
        47.2504         36.7504
 10  7 31  1 56 30.0000000  0  9G04G14G23G02G17G12G30G20G31
 -16319578.44648 -12686482.19446  21615871.3444   21615862.3554
        49.5004         41.2504
  -5672032.45646  -4407965.50143  23981880.6174   23981872.1564
        38.0004         22.5004
  -5251560.19247  -4062640.04544  24121728.9924   24121717.7774
        43.5004         27.5004
  -2862218.54647  -2220471.41344  24539612.8134   24539601.4224
        42.0004         25.5004
 -10219062.11747  -7934007.63046  22960422.9534   22960413.3794
        45.0004         36.7504
 -14754395.16848 -11487390.97446  22106691.5314   22106681.3134
        50.2504         41.5004
 -12082727.00747  -9393392.96945  22416618.3834   22416609.8054
        46.0004         34.5004
 -19051077.15648 -14827142.85147  21333671.3594   21333661.3754
        51.2504         43.2504
 -10949929.73448  -8515797.92246  22918867.1174   22918857.1914
        48.0004         37.0004
 10  7 31  1 57  0.0000000  0  9G04G14G23G02G17G12G30G20G31
 -16377982.18348 -12731991.56146  21604757.8134   21604748.5314
        50.2504         41.0004
  -5574269.40246  -4331786.52443  24000484.6724   24000475.9184
        38.5004         22.7504
  -5360902.45947  -4147841.88844  24100922.3364   24100910.1254
        42.5004         27.0004
  -2974247.89847  -2307766.92644  24518294.4064   24518283.4264
        43.7504         27.5004
 -10126723.93447  -7862055.84246  22977994.3134   22977984.1524
        45.5004         36.5004
 -14744981.54548 -11480055.72746  22108482.7814   22108472.7974
        51.0004         41.2504
 -12145737.47847  -9442491.94345  22404628.1484   22404618.8094
        46.2504         33.7504
 -19025350.81448 -14807096.23147  21338566.5554   21338555.9844
        51.5004         43.0004
 -11010139.54447  -8562714.63946  22907409.7424   22907399.2894
        47.7504         37.2504
 10  7 31  1 57 30.0000000  0  9G04G14G23G02G17G12G30G20G31
 -16435836.75248 -12777073.01846  21593748.0394   21593738.9924
        48.5004         41.2504
  -5476195.33546  -4255365.20043  24019148.7194   24019137.5634
        39.5004         22.0004
  -5470029.45747  -4232875.93444  24080156.4144   24080143.9694
        43.7504         28.2504
  -3086130.55447  -2394948.03344  24497003.2584   24496992.1024
        42.7504         26.5004
 -10034025.74847  -7789823.53945  22995634.0864   22995624.3954
        44.5004         35.7504
 -14734926.16448 -11472220.33346  22110395.9304   22110386.0044
        50.7504         41.7504
 -12208156.60747  -9491130.16345  22392749.4694   22392740.6564
        45.0004         34.5004
 -18999008.21148 -14786569.65847  21343579.7664   21343569.5474
        50.7504         42.7504
 -11069832.18248  -8609228.37346  22896050.4614   22896040.0084
        48.0004         36.7504
 10  7 31  1 58  0.0000000  0  9G04G14G23G02G17G12G30G20G31
 -16493136.12648 -12821721.89746  21582844.7274   21582835.2114
        49.0004         41.0004
  -5377809.15446  -4178700.58243  24037870.0164   24037860.2664
        40.2504         22.0004
  -5578935.22447  -4317737.61644  24059432.3674   24059420.0394
        44.0004         27.5004
  -3197860.56947  -2482010.09244  24475741.1414   24475730.5124
        42.7504         27.0004
  -9940966.04147  -7717309.50745  23013342.8054   23013333.1724
        43.7504         35.5004
 -14724225.75248 -11463882.34846  22112432.2274   22112422.4774
        50.0004         41.7504
 -12269978.11847  -9539302.72345  22380985.7424   22380976.6954
        46.2504         34.7504
 -18972045.78048 -14765560.07347  21348710.5704   21348700.1764
        50.7504         42.7504
 -11129001.67647  -8655334.52846  22884790.9774   22884781.2854
        46.5004         37.0004
 10  7 31  1 58 30.0000000  0  9G04G14G23G02G17G12G30G20G31
 -16549878.44348 -12865936.65646  21572046.8444   21572037.9144
        49.0004         41.2504
  -5279113.08846  -4101794.54443  24056651.2274   24056641.0664
        40.0004         22.0004
  -5687616.62347  -4402424.40944  24038750.9304   24038738.9534
        42.2504         27.7504
  -3309435.66547  -2568951.53244  24454509.0704   24454498.1484
        42.5004         25.5004
  -9847546.83547  -7644515.32645  23031119.6254   23031110.0514
        43.5004         35.2504
 -14712880.61448 -11455042.15447  22114591.3914   22114581.4064
        49.5004         42.0004
 -12331199.68147  -9587007.85145  22369335.5704   22369326.5234
        46.5004         34.7504
 -18944464.43548 -14744068.31047  21353959.1804   21353948.8444
        51.0004         43.2504
 -11187645.46047  -8701030.92746  22873631.2344   22873620.8984
        44.7504         37.2504
 10  7 31  1 59  0.0000000  0  9G04G14G23G02G17G12G30G20G31
 -16606065.59048 -12909718.80846  21561354.6414   21561345.2424
        50.2504         41.7504
  -5180113.54546  -4024652.04643  24075490.2344   24075480.5434
        40.7504         22.5004
  -5796074.47146  -4486936.96444  24018111.3594   24018100.0864
        41.5004         27.5004
  -3420857.28447  -2655773.47644  24433306.4694   24433295.6054
        43.0004         25.5004
  -9753774.72947  -7571446.17645  23048965.2894   23048954.0164
        44.0004         35.0004
 -14700894.51548 -11445702.30946  22116871.9694   22116862.6294
        50.2504         41.7504
 -12391822.44647  -9634246.33645  22357799.3444   22357790.2974
        44.5004         34.2504
 -18916268.71548 -14722097.69047  21359324.8134   21359314.4184
        50.2504         43.5004
 -11245765.84847  -8746319.52746  22862571.1254   22862561.1414
        47.0004         37.0004
 10  7 31  1 59 30.0000000  0  9G04G14G23G02G17G12G30G20G31
 -16661692.48148 -12953064.40646  21550769.3204   21550760.2734
        51.5004         41.5004
  -5080809.86146  -3947272.58143  24094386.6644   24094378.2034
        41.0004         23.7504
  -5904302.64046  -4571270.54444  23997516.5004   23997504.9344
        40.5004         28.0004
  -3532119.51346  -2742471.21844  24412133.8914   24412122.8524
        41.7504         25.7504
  -9659648.67547  -7498101.19645  23066875.2584   23066866.2114
        44.5004         34.5004
 -14688264.85448 -11435860.97046  22119275.5004   22119265.2814
        49.7504         41.5004
 -12451840.68147  -9681013.69345  22346378.2504   22346369.2624
        44.5004         35.2504
 -18887456.06548 -14699646.20747  21364807.8364   21364797.5004
        50.0004         43.2504
 -11303357.13647  -8791195.81946  22851612.2194   22851602.2344
        46.7504         37.0004
 10  7 31  2  0  0.0000000  0  9G04G14G23G02G17G12G30G20G31
 -16716757.66948 -12995972.30346  21540290.6954   21540281.5314
        51.2504         41.2504
  -4981205.20246  -3869658.50743  24113341.0864   24113331.9224
        41.0004         23.5004
  -6012299.08647  -4655423.57044  23976965.0234   23976953.3984
        42.5004         27.5004
  -3643220.37146  -2829043.19244  24390991.6254   24390981.2894
        41.0004         27.5004
  -9565171.74347  -7424482.83445  23084853.0474   23084844.5274
        43.2504         35.0004
 -14674992.46748 -11425518.86346  22121801.2734   22121790.9384
        50.2504         41.5004
 -12511252.99247  -9727308.94345  22335071.8364   22335063.5514
        45.7504         35.5004
 -18858028.35948 -14676715.43047  21370407.4614   21370397.0664
        51.2504         43.0004
 -11360418.03847  -8835658.79346  22840753.7274   22840743.5084
        46.2504         37.5004
 10  7 31  2  0 30.0000000  0  9G04G14G23G02G17G12G30G20G31
 -16771262.52448 -13038443.58546  21529918.6644   21529909.6174
        50.7504         41.5004
  -4881305.50946  -3791814.58443  24132351.8134   24132341.7114
        40.0004         22.7504
  -6120064.34246  -4739396.50944  23956458.1564   23956446.2384
        41.7504         27.0004
  -3754161.14046  -2915490.50044  24369880.8524   24369869.6374
        40.7504         26.0004
  -9470349.54247  -7350595.41245  23102898.8594   23102889.4024
        43.5004         35.5004
 -14661080.99348 -11414678.83747  22124448.8054   22124438.7034
        50.0004         42.0004
 -12570060.01547  -9773132.53545  22323881.2344   22323872.3634
        45.7504         35.0004
 -18827989.84248 -14653308.71747  21376123.5634   21376113.4614
        50.5004         43.2504
 -11416949.84847  -8879709.51546  22829996.4304   22829986.0354
        44.7504         37.2504
 10  7 31  2  1  0.0000000  0  9G04G14G23G02G17G12G30G20G31
 -16825201.88048 -13080474.21447  21519654.3444   21519645.3554
        51.0004         42.0004
  -4781109.60646  -3713739.86743  24151417.7344   24151408.4534
        39.7504         22.0004
  -6227592.13547  -4823184.49344  23935996.0314   23935985.2274
        42.7504         28.7504
  -3864935.64946  -3001808.26844  24348800.8754   24348790.0124
        40.5004         26.0004
  -9375181.02647  -7276438.14145  23121007.9224   23120998.7584
        43.5004         35.2504
 -14646527.07548 -11403338.12946  22127218.0784   22127208.1524
        49.7504         41.7504
 -12628255.87247  -9818479.97445  22312807.3054   22312798.6684
        46.5004         35.7504
 -18797337.82648 -14629423.98047  21381956.3204   21381945.8674
        50.5004         43.0004
 -11472946.66347  -8923343.36246  22819339.8914   22819330.4924
        46.2504         38.0004
 10  7 31  2  1 30.0000000  0  9G04G14G23G02G17G12G30G20G31
 -16878574.37048 -13122063.12546  21509497.7894   21509488.6844
        49.7504         41.7504
  -4680620.54046  -3635436.66143  24170540.4224   24170531.1994
        41.0004         22.7504
  -6334880.01447  -4906785.40445  23915580.2034   23915568.9884
        44.0004         30.2504
  -3975541.96346  -3087994.88344  24327753.2504   24327741.8014
        40.0004         26.5004
  -9279668.84347  -7202013.04345  23139183.7194   23139173.9694
        43.0004         34.5004
 -14631332.25648 -11391498.13446  22130109.5474   22130099.5634
        50.0004         41.5004
 -12685838.93747  -9863349.93045  22301849.7424   22301840.8134
        45.0004         35.5004
 -18766074.09348 -14605062.56147  21387905.2664   21387894.9884
        49.5004         42.5004
 -11528407.33547  -8966559.44746  22808784.6024   22808775.6134
        45.0004         38.0004
 10  7 31  2  2  0.0000000  0  9G04G14G23G02G17G12G30G20G31
 -16931381.24448 -13163211.31346  21499448.7034   21499439.6564
        51.5004         41.7504
  -4579844.28447  -3556909.75344  24189717.7814   24189708.3244
        42.2504         25.5004
  -6441928.52747  -4990199.89745  23895209.5004   23895197.9924
        44.7504         30.0004
  -4085980.94646  -3174051.13944  24306737.5634   24306726.2894
        40.0004         28.0004
  -9183818.80247  -7127324.73745  23157422.9774   23157413.6374
        43.2504         34.5004
 -14615499.60348 -11379161.02646  22133122.3984   22133112.7074
        49.2504         41.5004
 -12742809.89147  -9907742.90145  22291008.6644   22290999.6764
        45.7504         35.5004
 -18734202.69448 -14580227.72347  21393970.6024   21393960.1484
        50.2504         42.5004
 -11583332.95847  -9009358.59946  22798334.8984   22798324.8554
        46.5004         38.0004
 10  7 31  2  2 30.0000000  0  9G04G14G23G02G17G12G30G20G31
 -16983617.70848 -13203915.01847  21489508.8674   21489499.5864
        52.5004         42.0004
  -4478780.37047  -3478158.63444  24208949.5944   24208940.2544
        42.2504         26.0004
  -6548731.68047  -5073423.09745  23874885.8524   23874874.1094
        45.5004         30.5004
  -4196247.09646  -3259972.69644  24285754.6174   24285743.5204
        40.0004         28.5004
  -9087630.41247  -7052372.80745  23175727.7194   23175717.3834
        43.0004         34.0004
 -14599026.53148 -11366324.90746  22136257.3364   22136247.4694
        50.7504         41.7504
 -12799163.70347  -9951654.98745  22280284.7894   22280275.9184
        45.0004         35.5004
 -18701721.69648 -14554917.87147  21400151.5084   21400140.8204
        49.5004         42.5004
 -11637718.68947  -9051737.08846  22787985.0234   22787975.0984
        46.2504         38.0004
 10  7 31  2  3  0.0000000  0  9G04G14G23G02G17G12G30G20G31
 -17035282.02548 -13244172.88747  21479677.4454   21479667.8714
        50.5004         42.0004
  -4377431.10646  -3399185.19544  24228235.2814   24228226.3524
        40.0004         24.2504
  -6655286.32247  -5156452.66345  23854609.2034   23854596.9924
        44.2504         30.2504
  -4306337.35746  -3345757.13644  24264804.2894   24264793.7194
        41.0004         29.0004
  -8991105.80147  -6977158.91945  23194095.9224   23194085.8794
        43.0004         34.5004
 -14581913.54048 -11352990.15246  22139513.8594   22139503.9344
        48.5004         41.7504
 -12854897.70947  -9995084.08446  22269679.2664   22269669.9264
        46.7504         36.0004
 -18668631.78648 -14529133.55847  21406448.3524   21406438.0164
        49.5004         42.0004
 -11691562.33747  -9093693.22946  22777739.0864   22777728.9264
        46.0004         38.2504
 10  7 31  2  3 30.0000000  0  9G04G14G23G02G17G12G30G20G31
 -17086375.65248 -13283986.07047  21469954.7664   21469945.1334
        50.7504         42.0004
  -4275802.42846  -3319994.04543  24247575.2344   24247565.6604
        39.2504         22.5004
  -6761593.56347  -5239289.46245  23834379.3284   23834367.8204
        45.0004         30.2504
  -4416253.38746  -3431405.83845  24243888.3754   24243877.6884
        40.7504         30.5004
  -8894251.03147  -6901687.76445  23212526.6024   23212516.8524
        43.5004         35.0004
 -14564164.81948 -11339160.00346  22142891.3914   22142881.4654
        49.7504         41.5004
 -12910013.40347 -10038031.41746  22259190.7194   22259181.9654
        45.0004         36.0004
 -18634937.67848 -14502878.41447  21412859.8204   21412849.4264
        48.7504         42.5004
 -11744865.54447  -9135228.30146  22767595.8594   22767585.8754
        47.0004         37.7504
 10  7 31  2  4  0.0000000  0  9G04G14G23G02G17G12G30G20G31
 -17136893.29648 -13323350.44147  21460341.4694   21460331.7194
        51.0004         42.0004
  -4173893.50346  -3240584.49043  24266967.5084   24266958.0514
        39.0004         22.7504
  -6867647.06047  -5321928.55845  23814197.8054   23814186.5904
        46.0004         31.5004
  -4525988.97147  -3516913.94345  24223006.0704   24222995.3834
        42.0004         31.0004
  -8797064.56347  -6825958.10145  23231020.4144   23231010.6054
        43.0004         34.2504
 -14545777.31948 -11324832.06246  22146390.2584   22146380.1564
        50.2504         41.7504
 -12964504.79247 -10080492.25145  22248821.4924   22248812.4454
        45.0004         35.2504
 -18600636.83948 -14476150.50647  21419387.1804   21419376.9614
        50.2504         42.2504
 -11797622.46447  -9176337.64046  22757556.3914   22757546.2304
        47.2504         38.0004
 10  7 31  2  4 30.0000000  0  9G04G14G23G02G17G12G30G20G31
 -17186834.31048 -13362265.51247  21450837.9304   21450828.4144
        51.0004         42.5004
  -4071707.86446  -3160959.33343  24286413.2814   24286403.2384
        39.0004         22.2504
  -6973444.81147  -5404368.50845  23794065.8054   23794054.2384
        45.7504         32.5004
  -4635542.89146  -3602280.60245  24202158.8054   24202147.6484
        41.2504         31.2504
  -8699549.71847  -6749972.55845  23249576.8674   23249567.0594
        43.2504         34.2504
 -14526752.47048 -11310007.51247  22150010.5084   22150000.8164
        50.5004         42.0004
 -13018370.88147 -10122465.89046  22238570.9384   22238562.1254
        45.0004         36.5004
 -18565731.19648 -14448951.27747  21426029.5704   21426019.0594
        49.0004         42.2504
 -11849832.24247  -9217020.61146  22747621.5394   22747611.2034
        46.0004         38.2504
 10  7 31  2  5  0.0000000  0  9G04G14G23G02G17G12G30G20G31
 -17236200.24248 -13400732.47947  21441443.6024   21441434.4384
        50.7504         42.5004
  -3969251.26746  -3081122.99844  24305910.2584   24305900.6844
        39.0004         24.2504
  -7078986.87547  -5486609.06345  23773981.9384   23773969.9024
        45.7504         31.2504
  -4744915.54147  -3687506.03845  24181345.5234   24181334.8954
        42.0004         31.5004
  -8601712.61147  -6673735.82345  23268194.5314   23268184.8984
        43.2504         34.0004
 -14507094.25348 -11294689.43447  22153751.7734   22153741.7304
        49.2504         42.2504
 -13071612.66647 -10163952.98546  22228439.3364   22228431.0514
        45.2504         36.0004
 -18530225.47148 -14421284.52447  21432786.2584   21432776.2154
        48.5004         42.5004
 -11901496.43347  -9257278.45646  22737790.0474   22737779.9454
        45.5004         37.7504
 10  7 31  2  5 30.0000000  0  9G04G14G23G02G17G12G30G20G31
 -17284985.85648 -13438747.25547  21432160.2344   21432150.7774
        51.0004         42.2504
  -3866522.83346  -3001074.83544  24325458.0004   24325448.9534
        38.5004         24.0004
  -7184267.33647  -5568645.76245  23753947.2584   23753935.5744
        45.2504         30.0004
  -4854100.92147  -3772585.57345  24160568.4844   24160557.2704
        42.0004         30.5004
  -8503552.25247  -6597247.24345  23286873.5554   23286863.9224
        43.2504         34.7504
 -14486799.78948 -11278875.62847  22157613.6414   22157603.7154
        49.5004         42.2504
 -13124224.46147 -10204949.17346  22218428.0944   22218419.3984
        45.5004         36.5004
 -18494117.79248 -14393149.08647  21439657.3674   21439647.1484
        49.5004         42.5004
 -11952609.51447  -9297106.84746  22728063.5474   22728053.6804
        45.7504         37.7504
 10  7 31  2  6  0.0000000  0  9G04G14G23G02G17G12G30G20G31
 -17333190.49448 -13476309.33247  21422987.2814   21422978.0594
        50.5004         42.7504
  -3763525.98946  -2920817.54243  24345057.5004   24345048.6294
        36.0004         22.0004
  -7289284.07847  -5650476.84745  23733963.3444   23733951.7194
        45.7504         30.7504
  -4963097.71447  -3857518.10145  24139827.2274   24139816.1884
        42.0004         31.7504
  -8405071.66647  -6520509.14845  23305614.4224   23305604.9654
        43.5004         35.2504
 -14465870.27948 -11262566.98346  22161596.2034   22161586.5124
        49.2504         41.5004
 -13176204.87547 -10245453.33046  22208535.9924   22208527.7074
        45.5004         36.5004
 -18457409.30148 -14364545.38847  21446642.7114   21446632.8444
        50.0004         42.2504
 -12003170.53347  -9336505.04446  22718442.1024   22718432.0004
        45.0004         38.2504
 10  7 31  2  6 30.0000000  0  9G04G14G23G02G17G12G30G20G31
 -17380812.27448 -13513417.22747  21413925.0164   21413915.9104
        51.0004         42.7504
  -3660263.56245  -2840353.39943  24364708.1414   24364698.6254
        34.7504         22.0004
  -7394034.61747  -5732100.54345  23714029.7424   23714018.0004
        46.0004         30.2504
  -5071903.70247  -3942301.94245  24119122.1644   24119110.5394
        42.5004         31.0004
  -8306273.47547  -6443523.57745  23324415.0634   23324405.0204
        43.0004         34.5004
 -14444307.03148 -11245764.44947  22165699.6094   22165690.2704
        49.2504         42.0004
 -13227552.27747 -10285464.26246  22198764.8674   22198756.2894
        45.0004         36.5004
 -18420101.09548 -14335474.03047  21453742.5784   21453732.7114
        50.0004         42.5004
 -12053177.82247  -9375471.75046  22708925.7894   22708916.0394
        45.0004         37.7504
 10  7 31  2  7  0.0000000  0  9G04G14G23G02G17G12G30G20G31
 -17427850.27648 -13550070.23447  21404973.8524   21404965.0984
        51.2504         42.5004
  -3556738.42545  -2759684.47743  24384408.7894   24384399.2734
        35.7504         21.7504
  -7498516.84847  -5813515.13144  23694146.9384   23694135.6644
        44.5004         28.7504
  -5180516.47947  -4026935.14545  24098453.2114   24098442.1134
        43.5004         30.7504
  -8207160.65247  -6366292.82845  23343275.5164   23343265.9414
        43.0004         33.2504
 -14422111.02248 -11228468.94546  22169923.2584   22169913.6844
        50.5004         41.2504
 -13278264.89047 -10324980.56046  22189114.8914   22189106.0784
        45.7504         36.0004
 -18382195.03548 -14305936.71847  21460955.7034   21460945.6604
        50.5004         42.5004
 -12102630.21747  -9414006.08746  22699515.2734   22699505.2894
        45.2504         38.0004
 10  7 31  2  7 30.0000000  0  9G04G14G23G02G17G12G30G20G31
 -17474303.21448 -13586267.35447  21396134.0554   21396125.1254
        51.0004         43.0004
  -3452953.63246  -2678813.19543  24404157.9774   24404148.9884
        38.0004         23.0004
  -7602728.16947  -5894718.70444  23674316.3594   23674304.7934
        44.5004         28.2504
  -5288934.36447  -4111416.61744  24077822.5474   24077810.8634
        43.5004         29.5004
  -8107735.65847  -6288818.79545  23362195.7664   23362185.9574
        43.2504         33.7504
 -14399283.17148 -11210681.04646  22174267.4144   22174257.6644
        49.5004         41.5004
 -13328341.02947 -10364000.92146  22179585.9064   22179576.9184
        45.7504         37.0004
 -18343693.23448 -14275935.33647  21468282.4384   21468272.3954
        48.5004         42.5004
 -12151525.84047  -9452106.56946  22690211.1644   22690201.0044
        45.7504         39.0004
 10  7 31  2  8  0.0000000  0  9G04G14G23G02G17G12G30G20G31
 -17520169.43048 -13622007.29747  21387406.3674   21387397.1454
        50.7504         42.7504
  -3348911.75846  -2597741.61443  24423956.2734   24423946.7584
        36.2504         22.7504
  -7706665.47247  -5975708.79844  23654537.9614   23654525.8094
        43.7504         29.7504
  -5397154.69747  -4195744.12644  24057228.9144   24057216.5864
        42.2504         28.2504
  -8008001.39047  -6211103.80945  23381174.2114   23381164.8714
        42.7504         34.0004
 -14375824.33347 -11192401.44746  22178731.3834   22178722.0434
        47.5004         41.0004
 -13377778.66547 -10402523.71045  22170178.2424   22170169.1954
        45.5004         35.7504
 -18304596.39548 -14245470.15947  21475722.2274   21475712.3594
        50.2504         42.5004
 -12199863.08947  -9489771.92846  22681012.8364   22681003.0274
        45.5004         38.5004
 10  7 31  2  8 30.0000000  0  9G04G14G23G02G17G12G30G20G31
 -17565447.18248 -13657288.69447  21378790.3754   21378781.3284
        51.5004         42.7504
  -3244615.08045  -2516471.51143  24443803.0554   24443793.4804
        35.5004         21.5004
  -7810325.71747  -6056482.99144  23634811.9774   23634800.1764
        44.5004         29.0004
  -5505174.92647  -4279915.70644  24036673.2814   24036661.4804
        42.0004         28.5004
  -7907960.17447  -6133149.69245  23400211.1024   23400201.8794
        43.0004         34.5004
 -14351735.00448 -11173630.58746  22183315.7504   22183305.9414
        49.7504         41.7504
 -13426575.67847 -10440547.30546  22160892.2114   22160883.4574
        46.2504         36.5004
 -18264906.06148 -14214542.67147  21483275.0234   21483264.8634
        50.0004         42.5004
 -12247640.36347  -9527000.96846  22671920.9774   22671911.1684
        46.5004         38.5004
 10  7 31  2  9  0.0000000  0  9G04G14G23G02G17G12G30G20G31
 -17610134.07148 -13692109.69147  21370286.7734   21370277.6684
        50.5004         43.0004
  -3140065.42145  -2435004.26443  24463697.7734   24463689.1954
        35.5004         20.5004
  -7913706.04747  -6137039.01844  23615139.4224   23615127.5634
        42.0004         29.2504
  -5612991.92846  -4363928.94444  24016155.4774   24016144.3794
        40.2504         27.0004
  -7807613.66547  -6054957.68245  23419307.0164   23419297.4414
        43.7504         33.7504
 -14327015.17047 -11154368.42046  22188019.7034   22188010.0124
        47.7504         41.2504
 -13474729.35847 -10478069.61746  22151729.0394   22151719.8754
        46.2504         36.7504
 -18224622.03148 -14183152.22847  21490940.7344   21490930.3404
        50.0004         42.0004
 -12294854.89047  -9563791.48246  22662936.3284   22662926.1094
        45.5004         39.0004
 10  7 31  2  9 30.0000000  0  9G04G14G23G02G17G12G30G20G31
 -17654230.24948 -13726470.37347  21361895.5394   21361886.2584
        51.5004         42.5004
  -3035267.19045  -2353343.33643  24483640.6484   24483632.0124
        35.2504         21.5004
  -8016804.73147  -6217375.53045  23595520.5314   23595508.5554
        43.0004         31.2504
  -5720604.49846  -4447782.87144  23995678.2424   23995666.6174
        40.0004         26.7504
  -7706965.67447  -5976530.71345  23438459.6484   23438450.1914
        43.0004         33.0004
 -14301667.23148 -11134616.72146  22192843.1724   22192833.3054
        48.5004         41.5004
 -13522239.41247 -10515090.39246  22142687.8754   22142679.0634
        46.0004         36.7504
 -18183748.10648 -14151302.35347  21498718.7114   21498708.0234
        49.7504         42.0004
 -12341506.47247  -9600143.36646  22654058.6644   22654049.0314
        46.5004         38.7504
 10  7 31  2 10  0.0000000  0  9G04G14G23G02G17G12G30G20G31
 -17697733.57848 -13760369.08747  21353617.1484   21353607.8094
        52.5004         43.0004
  -2930222.16846  -2271490.07943  24503630.2114   24503621.3404
        36.2504         21.7504
  -8119618.83747  -6297490.46145  23575955.4064   23575943.6644
        45.0004         31.0004
  -5828009.78746  -4531475.28644  23975239.0004   23975227.7274
        40.0004         27.5004
  -7606018.21747  -5897870.36945  23457669.4144   23457659.7814
        43.5004         33.2504
 -14275691.72948 -11114376.02146  22197785.9144   22197776.0474
        48.2504         41.5004
 -13569103.36947 -10551607.73746  22133769.8984   22133760.9104
        46.2504         36.5004
 -18142285.15048 -14118993.58447  21506608.9304   21506598.5944
        49.5004         42.2504
 -12387593.09947  -9636055.05146  22645288.7504   22645278.7074
        46.2504         39.0004
 10  7 31  2 10 30.0000000  0  9G04G14G23G02G17G12G30G20G31
 -17740643.48648 -13793805.38747  21345451.2814   21345442.2344
        50.7504         43.0004
  -2824933.82346  -2189447.22043  24523665.5634   24523657.1604
        37.2504         20.7504
  -8222145.85347  -6377381.54745  23556445.1804   23556433.0274
        44.7504         31.0004
  -5935206.07946  -4615004.80644  23954840.6724   23954828.7544
        40.5004         28.2504
  -7504774.81947  -5818979.43045  23476935.6024   23476925.6764
        43.7504         34.7504
 -14249090.43348 -11093647.66146  22202848.2114   22202838.3444
        49.7504         41.0004
 -13615320.13447 -10587620.82546  22124975.5164   22124966.3524
        46.0004         36.7504
 -18100235.32648 -14086227.69747  21514611.0164   21514600.5044
        49.0004         42.2504
 -12433114.00547  -9671525.90046  22636626.6024   22636616.7934
        45.5004         38.5004
 10  7 31  2 11  0.0000000  0  9G04G14G23G02G17G12G30G20G31
 -17782957.63048 -13826777.44847  21337399.6094   21337390.3284
        51.5004         43.2504
  -2719404.01846  -2107216.19343  24543748.0704   24543737.9694
        37.5004         21.2504
  -8324382.86947  -6457046.70545  23536990.0314   23536978.3484
        44.2504         31.0004
  -6042190.09446  -4698368.90144  23934481.9774   23934470.8204
        40.5004         28.5004
  -7403237.23047  -5739859.29345  23496257.3674   23496247.7934
        44.0004         34.0004
 -14221863.31848 -11072431.74546  22208029.0084   22208019.4344
        49.0004         41.5004
 -13660886.75247 -10623127.22346  22116304.2504   22116295.1454
        46.5004         37.5004
 -18057598.60048 -14053004.40147  21522724.5164   21522714.5904
        48.5004         42.0004
 -12478066.38047  -9706553.71946  22628072.1024   22628062.5274
        46.0004         38.2504
 10  7 31  2 11 30.0000000  0  9G04G14G23G02G17G12G30G20G31
 -17824674.52148 -13859284.14647  21329460.8984   21329451.7934
        51.5004         43.0004
  -2613635.37746  -2024799.08943  24563875.7034   24563865.9534
        37.2504         20.0004
  -8426326.65847  -6536483.46245  23517590.9304   23517579.7734
        44.7504         33.0004
  -6148959.61946  -4781565.82544  23914164.7034   23914153.1374
        41.0004         28.0004
  -7301407.46447  -5660511.46345  23515635.2584   23515625.2734
        43.0004         33.0004
 -14194010.93548 -11050728.56446  22213329.2114   22213319.4024
        49.2504         41.7504
 -13705801.49147 -10658125.68446  22107757.1254   22107748.1954
        47.7504         37.5004
 -18014376.09548 -14019324.51447  21530949.3054   21530939.2624
        48.5004         42.0004
 -12522448.59347  -9741137.26446  22619626.6484   22619616.7814
        46.5004         38.5004
 10  7 31  2 12  0.0000000  0  9G04G14G23G02G17G12G30G20G31
 -17865792.99548 -13891324.56347  21321636.4304   21321627.4414
        51.5004         43.0004
  -2507630.75746  -1942198.20343  24584046.8284   24584037.9574
        38.2504         20.2504
  -8527974.78047  -6615689.68945  23498247.9844   23498236.5944
        44.5004         33.0004
  -6255512.74646  -4864594.14344  23893888.1174   23893876.7274
        41.0004         28.5004
  -7199288.51246  -5580938.27445  23535067.3134   23535057.7384
        41.7504         31.7504
 -14165535.22948 -11028539.73546  22218748.1804   22218738.3134
        48.0004         41.7504
 -13750062.79447 -10692614.98546  22099334.5164   22099325.6454
        46.5004         37.0004
 -17970570.13548 -13985190.04647  21539285.2504   21539275.0904
        48.5004         42.0004
 -12566259.29247  -9775275.44246  22611289.7584   22611279.9494
        46.7504         38.2504
 10  7 31  2 12 30.0000000  0  9G04G14G23G02G17G12G30G20G31
 -17906311.97648 -13922897.82347  21313926.2664   21313916.8094
        51.5004         42.7504
  -2401393.06046  -1859415.57343  24604263.4384   24604254.9774
        37.5004         20.7504
  -8629324.61547  -6694663.51845  23478961.4454   23478949.7624
        44.0004         33.2504
  -6361846.51346  -4947451.60345  23873653.5314   23873641.9654
        41.5004         30.2504
  -7096883.21447  -5501141.93045  23554554.3524   23554545.0124
        43.7504         31.7504
 -14136437.09648 -11005865.90546  22224285.3364   22224275.3524
        49.7504         41.2504
 -13793669.50247 -10726594.24646  22091036.4614   22091027.4144
        47.5004         36.7504
 -17926181.95548 -13950601.58447  21547732.1254   21547721.4964
        48.0004         42.0004
 -12609497.50647  -9808967.50446  22603061.7274   22603051.9774
        45.7504         39.0004
 10  7 31  2 13  0.0000000  0  9G04G14G23G02G17G12G30G20G31
 -17946230.06948 -13954002.87347  21306329.8984   21306320.7344
        52.0004         43.5004
  -2294924.72246  -1776453.24243  24624524.0234   24624514.4494
        38.0004         21.2504
  -8730373.62647  -6773402.92445  23459732.3754   23459720.6914
        43.0004         31.7504
  -6467958.89547  -5030136.55145  23853460.8984   23853449.8014
        43.0004         31.2504
  -6994194.17047  -5421124.53845  23574096.0784   23574086.2114
        43.2504         32.5004
 -14106717.65048 -10982707.96846  22229940.9454   22229931.0784
        48.7504         41.0004
 -13836619.52347 -10760061.77546  22082863.0554   22082854.1844
        46.7504         37.0004
 -17881213.86548 -13915561.52047  21556289.2734   21556279.3484
        49.0004         42.5004
 -12652161.46547  -9842212.13246  22594943.1954   22594933.1524
        46.5004         39.0004
 10  7 31  2 13 30.0000000  0  9G04G14G23G02G17G12G30G20G31
 -17985545.64448 -13984638.40347  21298848.4064   21298839.2424
        52.5004         43.2504
  -2188228.27946  -1693313.15443  24644828.1094   24644817.7734
        37.0004         21.5004
  -8831119.10847  -6851905.85545  23440560.8984   23440549.6254
        43.7504         33.2504
  -6573847.29347  -5112646.89445  23833311.4144   23833299.3204
        43.0004         32.0004
  -6891223.53947  -5340887.72945  23593690.1804   23593680.6644
        42.0004         30.5004
 -14076377.49048 -10959066.35746  22235714.0474   22235704.5314
        48.0004         41.5004
 -13878911.07947 -10793016.20146  22074815.8054   22074806.5234
        47.0004         37.0004
 -17835666.59548 -13880070.08546  21564956.6334   21564946.6484
        48.5004         41.7504
 -12694249.71047  -9875008.18046  22586934.0234   22586923.9804
        46.0004         39.0004
 10  7 31  2 14  0.0000000  0  9G04G14G23G02G17G12G30G20G31
 -18024257.97048 -14014803.87747  21291481.6954   21291472.4144
        52.5004         43.5004
  -2081306.80446  -1609997.76543  24665173.1884   24665164.4344
        37.0004         20.2504
  -8931558.35447  -6930170.17245  23421447.8594   23421436.8794
        44.2504         33.2504
  -6679509.59147  -5194981.07945  23813204.0634   23813192.7304
        44.0004         33.0004
  -6787974.36647  -5260433.84944  23613337.6094   23613327.8594
        42.7504         29.7504
 -14045418.24148 -10934942.32346  22241605.7894   22241596.1564
        49.0004         40.7504
 -13920542.59747 -10825456.31746  22066893.4384   22066884.0394
        47.5004         37.5004
 -17789542.03348 -13844128.78346  21573733.7974   21573723.2854
        48.5004         41.7504
 -12735760.86547  -9907354.54746  22579034.9384   22579024.8364
        47.5004         40.0004
 10  7 31  2 14 30.0000000  0  9G04G14G23G02G17G12G30G20G31
 -18062365.29948 -14044497.92247  21284230.1024   21284220.6454
        52.0004         43.2504
  -1974162.53746  -1526508.80243  24685562.7814   24685553.4414
        36.0004         20.0004
  -9031688.54847  -7008193.65045  23402393.8204   23402382.4304
        44.5004         33.0004
  -6784943.46647  -5277137.33245  23793141.1884   23793129.4454
        44.7504         33.7504
  -6684448.75247  -5179764.54444  23633038.4064   23633028.4224
        42.7504         29.5004
 -14013840.56247 -10910336.33346  22247614.8834   22247604.8404
        47.7504         41.0004
 -13961512.23347 -10857380.68046  22059097.1334   22059087.4414
        47.7504         38.0004
 -17742841.40948 -13807738.64346  21582620.3754   21582610.3914
        49.5004         41.5004
 -12776693.25647  -9939249.90346  22571245.5394   22571235.4384
        46.7504         39.2504
 10  7 31  2 15  0.0000000  0  9G04G14G23G02G17G12G30G20G31
 -18099866.64949 -14073719.76847  21277093.9304   21277084.9414
        54.0004         43.2504
  -1866798.28946  -1442848.36243  24705993.9614   24705984.4454
        36.7504         18.5004
  -9131507.26247  -7085974.45945  23383399.0704   23383387.1524
        45.0004         32.5004
  -6890146.18847  -5359113.45945  23773121.2664   23773109.8754
        45.0004         33.5004
  -6580649.80247  -5098882.27345  23652790.7034   23652780.8364
        42.5004         30.5004
 -13981645.69748 -10885249.39146  22253741.2814   22253731.0634
        48.7504         41.0004
 -14001818.70148 -10888788.28246  22051426.9924   22051417.9454
        49.0004         37.0004
 -17695567.04448 -13770901.49046  21591616.3674   21591606.3244
        50.0004         41.5004
 -12817045.56147  -9970693.22446  22563566.6414   22563556.5984
        47.7504         39.0004
 10  7 31  2 15 30.0000000  0  9G04G14G23G02G17G12G30G20G31
 -18136760.61248 -14102468.31447  21270073.2274   21270064.2974
        52.2504         43.5004
  -1759217.06845  -1359018.91943  24726465.7034   24726456.4224
        35.2504         19.2504
  -9231011.89747  -7163510.58145  23364464.0944   23364452.0004
        45.0004         32.7504
  -6995115.53547  -5440907.75045  23753146.4304   23753134.5704
        44.2504         33.5004
  -6476579.85147  -5017788.79645  23672594.1884   23672584.8484
        43.0004         30.7504
 -13948835.09048 -10859682.61746  22259984.6094   22259975.1524
        48.0004         40.5004
 -14041460.64648 -10919678.09646  22043883.0474   22043874.2934
        48.0004         36.7504
 -17647720.42448 -13733618.44746  21600721.3444   21600710.8914
        49.2504         41.5004
 -12856816.60048 -10001683.62846  22555998.6484   22555988.7234
        48.0004         39.0004
 10  7 31  2 16  0.0000000  0  9G04G14G23G02G17G12G30G20G31
 -18173046.19848 -14130742.77147  21263168.4614   21263159.0634
        53.0004         43.5004
  -1651421.14145  -1275022.13643  24746978.8054   24746969.3484
        35.5004         20.0004
  -9330199.56947  -7240799.66545  23345589.1024   23345577.5354
        45.0004         32.5004
  -7099849.34547  -5522518.52745  23733215.9844   23733205.0634
        45.7504         33.2504
  -6372241.46047  -4936486.12045  23692449.2504   23692440.2624
        42.7504         31.2504
 -13915410.25848 -10833637.25446  22266345.4144   22266335.7814
        48.2504         41.0004
 -14080436.39348 -10950048.82046  22036466.6024   22036457.5554
        49.0004         37.7504
 -17599303.04148 -13695890.65646  21609935.2344   21609924.8984
        50.2504         41.2504
 -12896005.04848 -10032220.04546  22548541.4224   22548531.0274
        49.0004         39.5004
 10  7 31  2 16 30.0000000  0  9G04G14G23G02G17G12G30G20G31
 -18208721.97548 -14158542.05847  21256379.5944   21256369.9614
        53.5004         43.7504
  -1543413.09645  -1190860.06243  24767532.6254   24767522.8164
        34.7504         21.2504
  -9429067.25947  -7317839.32545  23326774.8674   23326763.4774
        44.0004         33.0004
  -7204344.62547  -5603943.40745  23713331.0864   23713320.4574
        45.7504         33.7504
  -6267637.12347  -4854976.24745  23712355.2274   23712345.2424
        43.2504         31.0004
 -13881372.14747 -10807114.05346  22272822.9534   22272813.2034
        47.7504         41.0004
 -14118743.81248 -10979898.76246  22029176.8204   22029168.0664
        48.7504         37.5004
 -17550316.20048 -13657719.14046  21619256.7504   21619246.8244
        50.0004         41.0004
 -12934608.97948 -10062301.00346  22541195.4534   22541185.0594
        49.2504         39.0004
 10  7 31  2 17  0.0000000  0  9G04G14G23G02G17G12G30G20G31
 -18243786.75948 -14185865.24747  21249706.8834   21249697.4844
        53.7504         43.7504
  -1435195.58046  -1106534.68943  24788124.8134   24788115.8834
        36.0004         21.5004
  -9527612.44147  -7394627.76845  23308022.8444   23308011.3954
        44.0004         33.5004
  -7308599.14347  -5685180.69545  23693492.1644   23693481.5944
        45.2504         34.5004
  -6162769.58547  -4773261.24745  23732310.6024   23732300.5594
        43.5004         30.5004
 -13846721.84148 -10780113.82446  22279416.6804   22279406.7544
        49.5004         41.0004
 -14156381.62548 -11009226.93346  22022014.4844   22022005.6134
        49.0004         37.0004
 -17500761.41248 -13619105.03746  21628687.0554   21628676.6024
        49.5004         41.0004
 -12972627.24948 -10091925.59646  22533960.5784   22533950.5354
        48.2504         39.5004
 10  7 31  2 17 30.0000000  0  9G04G14G23G02G17G12G30G20G31
 -18278239.55848 -14212711.54047  21243150.5634   21243141.3404
        53.2504         43.5004
  -1326771.43645  -1022048.39043  24808757.7114   24808748.6054
        35.0004         20.7504
  -9625832.88047  -7471163.19945  23289332.2194   23289320.0084
        45.0004         33.7504
  -7412610.60947  -5766228.59645  23673699.7584   23673688.4844
        46.0004         33.7504
  -6057641.62547  -4691343.33245  23752315.9694   23752305.6334
        44.0004         31.2504
 -13811460.45348 -10752637.40346  22286126.8754   22286116.8914
        48.2504         41.0004
 -14193348.70048 -11038032.44846  22014979.8594   22014970.5204
        48.7504         37.5004
 -17450641.17648 -13580050.32746  21638224.2194   21638214.3524
        49.0004         41.2504
 -13010058.69948 -10121092.93846  22526837.2194   22526827.4104
        48.2504         39.2504
 10  7 31  2 18  0.0000000  0  9G04G14G23G02G17G12G30G20G31
 -18312078.89048 -14239079.81047  21236711.2424   21236701.9614
        53.0004         43.7504
  -1218142.92345   -937402.83643  24829428.4064   24829419.4184
        33.5004         19.7504
  -9723725.19847  -7547442.91545  23270703.5944   23270691.9104
        43.7504         32.7504
  -7516376.63147  -5847085.27045  23653953.6334   23653942.4184
        45.2504         33.0004
  -5952255.29847  -4609224.10145  23772370.0234   23772360.3324
        43.5004         30.0004
 -13775589.39348 -10724685.91246  22292952.5234   22292942.6564
        49.0004         41.0004
 -14229643.41247 -11066314.05246  22008073.3594   22008064.3134
        46.2504         37.2504
 -17399956.19048 -13540555.55546  21647869.4614   21647859.2424
        48.7504         41.5004
 -13046901.82547 -10149801.85546  22519826.8054   22519816.5864
        46.2504         39.2504
 10  7 31  2 18 30.0000000  0  9G04G14G23G02G17G12G30G20G31
 -18345303.82948 -14264969.35447  21230388.7584   21230379.5944
        53.0004         43.5004
  -1109312.86345   -852600.27442  24850138.5864   24850128.6024
        32.0004         17.7504
  -9821287.05747  -7623465.07945  23252138.3524   23252126.6684
        44.5004         33.7504
  -7619894.50947  -5927748.52545  23634254.9304   23634243.8324
        45.2504         32.5004
  -5846613.33647  -4526905.72045  23792473.0234   23792463.6254
        44.0004         31.0004
 -13739109.99748 -10696260.42446  22299894.2974   22299884.0784
        49.0004         40.7504
 -14265263.97047 -11094070.33646  22001295.0554   22001285.8914
        46.2504         36.7504
 -17348708.25748 -13500622.11946  21657621.7504   21657611.4734
        49.0004         41.0004
 -13083155.27847 -10178051.28846  22512927.7424   22512917.6414
        46.2504         39.5004
 10  7 31  2 19  0.0000000  0  9G04G14G23G02G17G12G30G20G31
 -18377913.64448 -14290379.59547  21224183.2504   21224173.9104
        53.5004         43.7504
  -1000284.18445   -767642.96442  24870885.4924   24870876.6804
        33.5004         16.7504
  -9918515.96247  -7699227.79745  23233636.2504   23233624.6844
        44.7504         33.7504
  -7723162.23147  -6008216.90745  23614603.5704   23614591.8874
        45.0004         33.0004
  -5740718.42447  -4444390.18545  23812623.9064   23812614.6844
        45.2504         32.2504
 -13702023.84247 -10667362.18146  22306951.7194   22306941.5594
        47.2504         41.2504
 -14300209.50147 -11121300.59146  21994645.0164   21994636.0864
        47.7504         36.5004
 -17296899.56348 -13460251.70546  21667480.3984   21667469.9454
        49.7504         40.7504
 -13118818.16947 -10205840.54746  22506141.3834   22506130.5784
        47.7504         39.5004
 10  7 31  2 19 30.0000000  0  9G04G14G23G02G17G12G30G20G31
 -18409906.42248 -14315309.02147  21218094.9694   21218085.9804
        53.0004         44.0004
   -891058.66845   -682532.20943  24891671.1644   24891661.4734
        35.5004         19.5004
 -10015408.33947  -7774728.26945  23215198.0394   23215186.2384
        44.7504         33.0004
  -7826176.51847  -6088487.79845  23595000.1564   23594989.2934
        45.0004         32.5004
  -5634572.53447  -4361679.10845  23832823.4144   23832813.6054
        44.7504         32.2504
 -13664331.22948 -10637991.31146  22314124.2424   22314114.6094
        49.0004         40.7504
 -14334477.48148 -11148002.91846  21988123.9534   21988115.4344
        50.5004         38.0004
 -17244530.96548 -13419444.99246  21677446.1254   21677436.0824
        49.2504         41.0004
 -13153888.32847 -10233167.94446  22499467.6024   22499457.5004
        47.5004         39.2504
 10  7 31  2 20  0.0000000  0  9G04G14G23G02G17G12G30G20G31
 -18441283.67648 -14339758.79647  21212124.1174   21212114.6024
        53.2504         44.0004
   -781641.78346   -597272.33043  24912492.7504   24912483.2934
        37.7504         19.2504
 -10111964.78147  -7849967.01245  23196823.9534   23196812.2114
        45.5004         34.0004
  -7928937.87847  -6168561.59345  23575445.8594   23575434.8204
        45.5004         32.5004
  -5528181.13547  -4278776.77544  23853068.6484   23853058.8404
        43.7504         29.0004
 -13626036.52248 -10608151.27446  22321411.7034   22321401.6604
        49.0004         40.7504
 -14368069.61948 -11174178.62946  21981731.7734   21981722.7854
        49.5004         36.7504
 -17191607.15948 -13378205.66246  21687517.1884   21687506.5004
        50.5004         41.0004
 -13188367.56447 -10260034.88946  22492906.3674   22492896.3834
        47.7504         39.7504
 10  7 31  2 20 30.0000000  0  9G04G14G23G02G17G12G30G20G31
 -18472041.12648 -14363725.58847  21206271.0164   21206261.9694
        52.5004         44.0004
   -672032.61746   -511862.54643  24933350.7034   24933341.8324
        39.0004         21.0004
 -10208178.96647  -7924939.06445  23178515.0234   23178503.4574
        45.5004         34.2504
  -8031440.49647  -6248433.77445  23555940.0864   23555928.8134
        46.0004         32.5004
  -5421543.26147  -4195682.38344  23873361.2344   23873351.4844
        43.0004         28.5004
 -13587137.48048 -10577840.26546  22328813.4774   22328803.9024
        48.5004         41.0004
 -14400981.07248 -11199823.89646  21975468.9694   21975459.5124
        49.0004         36.7504
 -17138126.50348 -13336532.41246  21697694.1564   21697683.7034
        49.5004         40.7504
 -13222251.08647 -10286437.64046  22486458.4694   22486448.1914
        47.7504         40.0004
 10  7 31  2 21  0.0000000  0  9G04G14G23G02G17G12G30G20G31
 -18502178.09248 -14387208.89847  21200536.2734   21200527.1094
        52.5004         43.7504
   -562234.49446   -426305.63943  24954243.6024   24954234.9064
        40.0004         21.5004
 -10304048.23747  -7999642.36545  23160271.9304   23160259.9534
        46.5004         34.5004
  -8133681.71147  -6328102.22445  23536484.5634   23536473.2304
        45.7504         33.0004
  -5314661.90147  -4112398.24045  23893700.4614   23893690.5354
        43.0004         30.5004
 -13547636.09448 -10547059.90746  22336330.3914   22336320.8164
        48.7504         41.2504
 -14433210.92347 -11224938.05346  21969335.7424   21969326.7544
        46.2504         37.2504
 -17084091.19848 -13294426.99246  21707976.6024   21707966.6174
        50.0004         40.7504
 -13255538.18747 -10312375.67946  22480124.5784   22480114.0084
        46.2504         39.5004
 10  7 31  2 21 30.0000000  0  9G04G14G23G02G17G12G30G20G31
 -18531696.61848 -14410210.29747  21194919.0394   21194910.0514
        51.5004         43.7504
   -452252.63746   -340605.47243  24975172.6564   24975163.3754
        39.5004         20.5004
 -10399573.31347  -8074077.48445  23142093.8054   23142082.1804
        47.0004         33.7504
  -8235662.63547  -6407567.84045  23517077.8364   23517066.6214
        46.0004         33.2504
  -5207542.86247  -4028928.94645  23914084.7424   23914074.8754
        44.0004         31.5004
 -13507536.76148 -10515813.65446  22343961.2504   22343951.2074
        48.7504         41.0004
 -14464760.77647 -11249522.29846  21963331.5704   21963322.8754
        46.0004         37.2504
 -17029505.77348 -13251892.91146  21718364.2814   21718353.8284
        50.2504         40.7504
 -13288230.48847 -10337850.21746  22473903.0554   22473893.0124
        47.7504         40.0004
 10  7 31  2 22  0.0000000  0  9G04G14G23G02G17G12G30G20G31
 -18560592.51648 -14432726.53547  21189420.4924   21189411.2114
        50.5004         44.2504
   -342086.69046   -254761.87543  24996136.6174   24996127.4534
        39.7504         20.2504
 -10494748.42047  -8148239.89745  23123982.7424   23123971.2934
        46.5004         34.0004
  -8337377.94847  -6486826.53745  23497722.1094   23497710.8364
        46.0004         31.7504
  -5100185.32747  -3945273.79745  23934514.1804   23934504.6644
        44.5004         32.0004
 -13466837.93148 -10484100.29546  22351705.7734   22351696.2584
        49.7504         40.2504
 -14495626.63747 -11273573.55946  21957458.3834   21957448.8674
        46.0004         37.5004
 -16974369.49348 -13208929.61146  21728855.7344   21728845.6334
        50.0004         40.5004
 -13320323.64847 -10362857.87146  22467796.0554   22467785.6604
        46.7504         39.7504
 10  7 31  2 22 30.0000000  0  9G04G14G23G02G17G12G30G20G31
 -18588864.44648 -14454756.56147  21184040.3834   21184031.2194
        52.5004         44.0004
   -231738.96346   -168776.68143  25017135.3674   25017126.2034
        39.7504         19.7504
 -10589570.24447  -8222126.99045  23105938.7424   23105926.9414
        46.7504         35.0004
  -8438824.34547  -6565875.66645  23478418.0474   23478406.2464
        46.0004         33.0004
  -4992591.49647  -3861434.55945  23954988.2974   23954978.8984
        42.2504         30.0004
 -13425540.59548 -10451920.62946  22359564.3444   22359554.3014
        48.0004         40.0004
 -14525806.49647 -11297090.28246  21951714.8984   21951705.7934
        46.5004         37.5004
 -16918683.06648 -13165537.64546  21739452.8754   21739442.6564
        49.5004         41.0004
 -13351816.23348 -10387397.53146  22461803.2274   22461793.1254
        48.5004         39.7504
 10  7 31  2 23  0.0000000  0  8G04G23G02G17G12G30G20G31
 -18616518.88048 -14476305.45147  21178777.9534   21178768.9064
        51.5004         43.5004
 -10684043.59047  -8295742.53845  23087961.0314   23087948.9384
        46.5004         34.0004
  -8540006.90547  -6644719.21845  23459163.1954   23459151.5704
        45.7504         32.7504
  -4884771.16047  -3777418.84244  23975505.8674   23975496.2934
        42.2504         28.5004
 -13383653.34948 -10419281.22746  22367534.9844   22367525.5274
        48.5004         41.0004
 -14555306.52147 -11320077.30146  21946101.4224   21946092.6684
        46.2504         38.0004
 -16862455.71648 -13121724.15346  21750152.6174   21750142.2234
        50.0004         40.7504
 -13382714.50447 -10411474.08846  22455923.8134   22455913.4184
        46.5004         39.7504
 10  7 31  2 23 30.0000000  0  8G04G23G02G17G12G30G20G31
 -18643544.89948 -14497364.64947  21173635.0314   21173626.0434
        53.0004         44.0004
 -10778155.47447  -8369076.38945  23070051.5554   23070040.3404
        46.0004         34.2504
  -8640913.06947  -6723347.37445  23439960.7504   23439949.8874
        45.7504         32.0004
  -4776716.89747  -3693220.80744  23996067.9454   23996058.2544
        44.0004         29.5004
 -13341167.94948 -10386175.71846  22375620.1094   22375609.7154
        48.0004         41.0004
 -14584115.45848 -11342525.81046  21940619.6254   21940609.9924
        50.2504         38.0004
 -16805679.49248 -13077482.97246  21760957.0474   21760946.4184
        49.0004         40.7504
 -13413007.50148 -10435079.00746  22450158.8524   22450148.3404
        50.0004         40.5004
 10  7 31  2 24  0.0000000  0  8G04G23G02G17G12G30G20G31
 -18669945.96148 -14517936.89147  21168611.4924   21168601.5664
        50.0004         44.0004
 -10871908.37447  -8442130.60045  23052211.6334   23052199.5394
        47.2504         34.7504
  -8741545.21047  -6801762.03445  23420811.5164   23420800.2424
        44.5004         32.5004
  -4668435.67347  -3608845.81545  24016673.8834   24016663.7234
        43.7504         31.2504
 -13298090.09748 -10352608.58146  22383817.5394   22383807.9654
        49.5004         40.7504
 -14612236.70647 -11364438.46146  21935267.8834   21935258.6604
        46.2504         38.0004
 -16748360.57548 -13032818.89746  21771864.2034   21771854.0434
        49.7504         40.2504
 -13442698.49948 -10458214.84146  22444508.9694   22444498.9264
        50.0004         40.5004
 10  7 31  2 24 30.0000000  0  8G04G23G02G17G12G30G20G31
 -18695720.60048 -14538021.00047  21163705.5554   21163697.5044
        50.0004         44.5004
 -10965298.74947  -8514902.35845  23034439.7894   23034427.7544
        47.0004         34.2504
  -8841899.95047  -6879960.53045  23401714.5864   23401703.1954
        45.5004         32.7504
  -4559929.99047  -3524295.92845  24037321.4694   24037311.6604
        44.0004         31.7504
 -13254420.82948 -10318580.59646  22392127.6334   22392117.9414
        49.2504         40.0004
 -14639668.59547 -11385813.93746  21930047.5704   21930038.6414
        46.2504         38.0004
 -16690500.43948 -12987733.10446  21782874.6334   21782864.3554
        49.5004         40.5004
 -13471785.80748 -10480880.27646  22438974.1414   22438963.9804
        48.5004         40.5004
 10  7 31  2 25  0.0000000  0  8G04G23G02G17G12G30G20G31
 -18720867.92248 -14557616.28947  21158920.7584   21158911.5354
        52.0004         44.0004
 -11058324.35647  -8587389.88545  23016737.3914   23016725.6484
        46.0004         34.5004
  -8941974.80247  -6957940.86945  23382671.2194   23382659.5354
        46.0004         33.0004
  -4451202.09147  -3439572.83945  24058011.2504   24058002.0864
        42.2504         30.7504
 -13210161.76748 -10284093.01446  22400549.9384   22400540.3054
        49.0004         40.5004
 -14666409.89248 -11406651.29246  21924959.0234   21924950.0944
        49.5004         37.2504
 -16632100.79348 -12942226.88546  21793987.8834   21793977.7814
        49.5004         40.2504
 -13500268.54448 -10503074.60646  22433553.6724   22433543.7464
        48.7504         40.0004
 10  7 31  2 25 30.0000000  0  9G04G13G23G02G17G12G30G20G31
 -18745387.72348 -14576722.62747  21154254.9224   21154245.6994
        52.7504         43.7504
    133950.93256    118560.56753  24890069.3754   24890059.0984
        38.7504         22.5004
 -11150982.21947  -8659590.79445  22999105.6094   22999093.7504
        46.5004         34.7504
  -9041767.99247  -7035701.75845  23363681.2894   23363669.4884
        46.5004         33.0004
  -4342254.72846  -3354678.87245  24078743.2344   24078733.6604
        39.7504         30.0004
 -13165314.87248 -10249147.33246  22409083.9224   22409073.7624
        49.7504         39.7504
 -14692460.06348 -11426950.11046  21920001.8204   21919992.1884
        49.5004         37.0004
 -16573164.21248 -12896302.31346  21805202.9144   21805192.7544
        49.5004         40.5004
 -13528146.02648 -10524797.30946  22428248.8984   22428238.5044
        49.0004         40.5004
 10  7 31  2 26  0.0000000  0  9G04G13G23G02G17G12G30G20G31
 -18769280.46648 -14595340.36247  21149708.3914   21149698.9924
        52.7504         43.7504
     12158.70746     23657.42943  24866893.7584   24866883.0124
        38.5004         21.7504
 -11243271.28747  -8731504.34045  22981543.4224   22981531.6804
        46.5004         34.7504
  -9141278.14847  -7113242.05845  23344744.7814   23344733.2734
        47.0004         33.2504
  -4233092.05846  -3269617.14144  24099516.6254   24099506.9344
        39.7504         28.2504
 -13119883.17348 -10213745.96146  22417729.3674   22417719.3244
        48.2504         40.0004
 -14717819.48148 -11446710.70746  21915176.1804   21915166.8984
        49.7504         37.5004
 -16513693.99248 -12849961.91146  21816519.8984   21816509.8554
        49.0004         40.5004
 -13555418.58347 -10546048.65546  22423059.0084   22423048.6724
        46.7504         40.5004
 10  7 31  2 26 30.0000000  0  9G04G13G23G02G17G12G30G20G31
 -18792542.41648 -14613466.58747  21145281.5864   21145272.0124
        50.2504         44.0004
   -109517.89446    -71155.58243  24843739.2114   24843729.5204
        39.5004         21.2504
 -11335186.56447  -8803126.60745  22964052.4144   22964040.6134
        47.0004         34.7504
  -9240500.16547  -7190557.82045  23325863.7734   23325851.7974
        46.7504         33.5004
  -4123713.82747  -3184387.34544  24120330.5634   24120320.6954
        42.2504         28.2504
 -13073865.50848 -10177888.03046  22426486.1024   22426476.2934
        50.2504         40.5004
 -14742484.12247 -11465929.88146  21910482.6954   21910473.5314
        46.5004         37.2504
 -16453689.05648 -12803204.85046  21827938.3914   21827928.2894
        49.2504         40.5004
 -13582082.49948 -10566825.73446  22417984.7194   22417975.1454
        48.5004         40.2504
 10  7 31  2 27  0.0000000  0  9G04G13G23G02G17G12G30G20G31
 -18815174.85248 -14631102.28547  21140974.7274   21140965.6214
        50.2504         44.2504
   -231077.76346   -165877.65843  24820606.6954   24820597.0634
        37.7504         20.5004
 -11426726.81247  -8874456.65945  22946632.9384   22946621.3714
        47.2504         35.2504
  -9339433.79847  -7267648.95045  23307037.4534   23307025.5944
        47.0004         34.2504
  -4014124.70446  -3098993.22844  24141184.1804   24141174.8984
        41.5004         27.7504
 -13027265.13948 -10141576.00146  22435353.9694   22435344.2194
        50.0004         40.0004
 -14766454.68647 -11484608.20746  21905921.2344   21905912.1294
        46.5004         38.2504
 -16393153.26248 -12756034.12246  21839458.1414   21839447.8634
        50.0004         40.5004
 -13608138.61248 -10587129.21146  22413026.3444   22413016.2424
        50.5004         40.2504
 10  7 31  2 27 30.0000000  0  9G04G13G23G02G17G12G30G20G31
 -18837175.87148 -14648245.98147  21136788.0864   21136778.9804
        51.0004         44.2504
   -352517.13646   -260505.77343  24797497.8364   24797487.5594
        36.5004         20.2504
 -11517888.33447  -8945491.61645  22929285.7034   22929273.5514
        47.7504         34.5004
  -9438075.35647  -7344512.48045  23288266.1484   23288254.4654
        47.2504         34.7504
  -3904326.15547  -3013435.94244  24162078.8834   24162068.9574
        42.0004         27.7504
 -12980083.00448 -10104810.66246  22444332.2034   22444322.1024
        50.0004         40.7504
 -14789729.42347 -11502744.31746  21901492.1334   21901482.9694
        46.7504         37.5004
 -16332087.40748 -12708450.34146  21851078.3524   21851068.3094
        50.2504         40.2504
 -13633585.12148 -10606957.65546  22408184.7504   22408174.5314
        48.0004         40.2504
 10  7 31  2 28  0.0000000  0  9G04G13G23G02G17G12G30G20G31
 -18858545.27948 -14664897.51647  21132721.7814   21132712.5004
        53.2504         44.5004
   -473834.02645   -355038.41543  24774411.6174   24774401.8674
        33.5004         19.2504
 -11608669.48648  -9016230.15345  22912010.5004   22911998.5824
        48.5004         35.5004
  -9536422.62447  -7421146.71145  23269551.1804   23269540.0824
        47.0004         34.7504
  -3794320.88146  -2927717.57944  24183011.6334   24183002.5864
        38.2504         27.0004
 -12932321.23948 -10067593.70046  22453420.5474   22453411.1484
        49.7504         40.7504
 -14812308.09348 -11520338.04746  21897195.4304   21897186.0904
        50.5004         38.0004
 -16270493.86248 -12660455.38346  21862799.0554   21862789.3054
        49.7504         40.0004
 -13658421.64748 -10626310.79746  22403457.8834   22403447.6054
        48.0004         39.7504
 10  7 31  2 28 30.0000000  0  9G04G13G23G02G17G12G30G20G31
 -18879282.81049 -14681056.64047  21128775.5944   21128766.0204
        54.0004         44.0004
   -595026.15246   -449473.81243  24751351.4304   24751340.3914
        37.0004         20.7504
 -11699067.62148  -9086670.19045  22894807.7974   22894796.5234
        48.7504         35.2504
  -9634474.03047  -7497550.37645  23250892.9144   23250881.6414
        46.7504         34.5004
  -3684112.37745  -2841840.96944  24203983.0554   24203975.0044
        35.0004         24.7504
 -12883982.37048 -10029927.22246  22462619.3054   22462609.7894
        50.5004         40.7504
 -14834190.01848 -11537388.89846  21893031.4384   21893022.5084
        50.0004         38.2504
 -16208375.30048 -12612051.31946  21874619.9534   21874609.5594
        50.0004         40.0004
 -13682647.65248 -10645188.19746  22398847.9534   22398837.8524
        49.2504         40.0004
 10  7 31  2 29  0.0000000  0  9G04G13G23G02G17G12G30G20G31
 -18899386.75549 -14696722.03547  21124950.0634   21124940.7814
        54.0004         44.0004
   -716089.74646   -543809.03743  24728312.0084   24728303.0204
        37.0004         22.0004
 -11789079.40848  -9156809.23145  22877679.5084   22877667.4734
        48.2504         35.2504
  -9732225.84947  -7573720.60745  23232290.9534   23232279.8554
        47.5004         35.5004
  -3573701.90146  -2755806.91544  24224994.2814   24224985.4104
        38.0004         26.7504
 -12835066.27548  -9991810.80846  22471927.9064   22471917.9224
        50.2504         40.0004
 -14855373.50648 -11553895.49646  21889000.4774   21888990.9614
        50.2504         37.2504
 -16145732.62448 -12563238.88046  21886540.4304   21886530.6214
        50.0004         40.0004
 -13706261.58348 -10663588.67946  22394354.4304   22394344.0354
        50.7504         39.5004
 10  7 31  2 29 30.0000000  0  9G04G13G23G02G17G12G30G20G31
 -18918857.44048 -14711893.97547  21121244.9924   21121235.4774
        52.0004         44.5004
   -837022.70446   -638042.48143  24705299.5164   24705289.8834
        38.5004         23.0004
 -11878703.43848  -9226646.10146  22860624.3674   22860612.4494
        48.5004         36.0004
  -9829676.64647  -7649656.24645  23213746.7274   23213735.3364
        47.2504         35.5004
  -3463093.16746  -2669618.42044  24246042.7664   24246033.5434
        41.0004         29.0004
 -12785575.57948  -9953246.49646  22481345.9384   22481335.7194
        50.0004         40.0004
 -14875858.62447 -11569857.91946  21885102.1484   21885092.9264
        46.5004         37.2504
 -16082568.67248 -12514020.22846  21898560.3134   21898550.1524
        50.0004         39.2504
 -13729263.33148 -10681512.11346  22389977.3204   22389967.0434
        49.2504         40.2504
 10  7 31  2 30  0.0000000  0  9G04G13G23G02G17G12G30G20G31
 -18937693.81048 -14726571.62347  21117660.2344   21117650.9534
        50.2504         44.2504
   -957822.44046   -732172.13843  24682311.9694   24682302.0434
        38.5004         21.5004
 -11967936.65348  -9296178.48145  22843644.1564   22843632.0044
        49.2504         35.7504
  -9926824.15147  -7725355.57046  23195260.7274   23195248.9844
        47.2504         36.0004
  -3352288.17346  -2583276.85944  24267128.3524   24267118.5434
        41.2504         28.5004
 -12735512.60448  -9914236.46046  22490872.4144   22490862.8404
        49.0004         39.7504
 -14895644.08447 -11585275.15346  21881337.2424   21881327.9024
        46.5004         37.5004
 -16018885.61248 -12464397.14146  21910678.6174   21910668.2234
        50.0004         39.0004
 -13751651.44548 -10698957.39146  22385717.2424   22385706.7304
        51.0004         40.0004
 10  7 31  2 30 30.0000000  0  9G04G13G23G02G17G12G30G20G31
 -18955894.90348 -14740754.27147  21114196.8834   21114187.6604
        52.5004         44.0004
  -1078485.30946   -826195.16943  24659351.6174   24659340.2274
        38.7504         21.0004
 -12056775.58748  -9365403.60346  22826738.7344   22826726.7584
        49.7504         36.2504
 -10023664.78147  -7800815.78846  23176832.1024   23176821.0044
        46.5004         36.2504
  -3241289.21346  -2496784.18544  24288250.7814   24288240.9734
        41.7504         27.0004
 -12684877.98048  -9874780.91246  22500507.8594   22500497.9924
        49.0004         40.0004
 -14914728.38548 -11600146.02846  21877705.4144   21877696.0164
        49.5004         37.7504
 -15954684.54848 -12414370.34646  21922896.3984   21922885.8284
        50.5004         40.0004
 -13773424.82848 -10715923.65446  22381573.9694   22381563.5744
        48.0004         40.2504
 10  7 31  2 31  0.0000000  0  9G04G13G23G02G17G12G30G20G31
 -18973462.29748 -14754443.11347  21110853.5864   21110844.5394
        50.5004         44.7504
  -1199011.14946   -920111.37843  24636415.2274   24636404.8914
        37.0004         19.5004
 -12145220.09448  -9434321.39146  22809908.3594   22809896.0904
        48.7504         36.2504
 -10120198.07947  -7876036.39546  23158462.3674   23158451.4454
        45.7504         36.2504
  -3130101.09746  -2410144.12743  24309408.7034   24309398.8364
        41.0004         22.5004
 -12633675.66548  -9834882.86646  22510251.6334   22510241.1804
        49.5004         40.0004
 -14933113.15447 -11614471.83546  21874207.3594   21874197.9614
        46.5004         37.5004
 -15889969.81648 -12363943.30746  21935210.7584   21935200.8324
        50.0004         40.0004
 -13794585.15248 -10732412.21746  22377547.4384   22377537.0434
        50.2504         40.0004
 10  7 31  2 31 30.0000000  0  9G04G13G23G02G17G12G30G20G31
 -18990392.26248 -14767635.24747  21107632.3524   21107623.0704
        53.0004         44.7504
  -1319393.92446  -1013916.10942  24613507.8834   24613496.9024
        38.0004         17.7504
 -12233264.49848  -9502927.34646  22793153.9384   22793142.0784
        49.7504         36.2504
 -10216419.30747  -7951013.98946  23140151.9924   23140140.7194
        45.2504         36.2504
  -3018723.15346  -2323356.14143  24330603.2114   24330593.9884
        38.7504         22.0004
 -12581904.73848  -9794541.85446  22520102.7814   22520092.7974
        48.7504         39.7504
 -14950794.31547 -11628249.34446  21870842.2344   21870833.3054
        47.7504         38.0004
 -15824740.44148 -12313115.20846  21947623.5394   21947613.6134
        49.7504         39.7504
 -13815128.59548 -10748420.09546  22373637.8984   22373627.9144
        50.5004         40.0004
 10  7 31  2 32  0.0000000  0  9G04G13G23G02G17G12G30G20G31
 -19006685.26649 -14780331.05347  21104531.6174   21104522.3954
        54.5004         44.2504
  -1439631.86646  -1107607.95343  24590626.9774   24590616.6994
        41.5004         20.2504
 -12320907.36148  -9571220.47746  22776475.8914   22776463.9144
        48.2504         36.0004
 -10312326.37447  -8025746.66546  23121901.5784   23121890.1294
        45.5004         36.5004
  -2907158.75446  -2236422.83444  24351833.7424   24351823.7584
        40.5004         26.5004
 -12529567.86047  -9753759.83946  22530062.1414   22530052.2154
        47.7504         39.5004
 -14967772.58948 -11641479.15946  21867611.4454   21867602.2234
        50.7504         37.7504
 -15758999.70248 -12261888.69246  21960133.7894   21960123.5704
        49.7504         39.7504
 -13835055.10048 -10763947.22346  22369845.8674   22369835.7664
        50.2504         40.0004
 10  7 31  2 32 30.0000000  0  9G04G13G23G02G17G12G30G20G31
 -19022343.21348 -14792531.99447  21101551.8364   21101542.6134
        53.2504         44.7504
  -1559724.45647  -1201186.47043  24567774.0554   24567763.6024
        43.5004         22.5004
 -12408148.59248  -9639200.65246  22759874.2424   22759862.7934
        48.5004         36.0004
 -10407919.73147  -8100234.95146  23103710.8834   23103699.3164
        45.7504         36.0004
  -2795413.32947  -2149348.52544  24373098.0784   24373088.7974
        42.2504         28.5004
 -12476669.40248  -9712540.25946  22540128.4064   22540118.4224
        48.0004         38.7504
 -14984049.39948 -11654162.40146  21864514.1484   21864504.6914
        50.0004         37.7504
 -15692751.73348 -12210266.95946  21972740.0634   21972729.6684
        50.2504         39.5004
 -13854366.59948 -10778995.13446  22366170.8984   22366160.6804
        49.5004         40.7504
 10  7 31  2 33  0.0000000  0  9G04G13G23G02G17G12G30G20G31
 -19037362.90148 -14804235.61147  21098693.5084   21098684.4614
        53.5004         44.5004
  -1679666.62447  -1294647.82744  24544950.5784   24544939.7734
        43.7504         25.2504
 -12494982.53448  -9706863.46146  22743350.3594   22743338.3244
        48.7504         36.2504
 -10503193.82947  -8174474.43046  23085580.4924   23085568.9264
        45.2504         36.0004
  -2683486.48547  -2062132.84544  24394397.1954   24394387.6804
        44.2504         29.2504
 -12423208.08847  -9670882.04746  22550301.9774   22550291.8754
        46.7504         39.2504
 -14999621.39348 -11666296.47246  21861550.9384   21861541.9494
        50.0004         37.5004
 -15625995.78348 -12158249.36746  21985443.6724   21985433.4534
        50.2504         39.2504
 -13873059.67948 -10793561.16046  22362613.7114   22362603.6684
        50.0004         40.2504
 10  7 31  2 33 30.0000000  0  9G04G13G23G02G17G12G30G20G31
 -19051743.36948 -14815441.12147  21095957.1884   21095947.7894
        53.5004         44.5004
  -1799454.87147  -1387989.24544  24522154.7974   24522145.1644
        44.5004         26.5004
 -12581406.61048  -9774206.90045  22726904.0554   22726892.5474
        49.0004         35.2504
 -10598146.17947  -8248463.29346  23067511.7034   23067500.5474
        46.0004         36.0004
  -2571380.23547  -1974777.38144  24415730.6804   24415720.9304
        44.5004         27.7504
 -12369185.59247  -9628786.54046  22560582.1484   22560572.1054
        47.2504         39.0004
 -15014487.33848 -11677880.37346  21858722.0864   21858712.9224
        50.2504         37.7504
 -15558733.54948 -12105837.23446  21998242.9534   21998232.4414
        50.0004         38.7504
 -13891133.40548 -10807644.56646  22359174.6174   22359164.2814
        48.7504         40.7504
 10  7 31  2 34  0.0000000  0  9G04G13G23G02G17G12G30G20G31
 -19065487.84048 -14826151.09147  21093341.3834   21093332.2194
        53.5004         44.5004
  -1919089.98747  -1481211.33944  24499388.9384   24499378.6604
        43.5004         24.0004
 -12667421.66848  -9841231.59346  22710536.1334   22710524.5084
        50.0004         36.7504
 -10692777.80747  -8322202.24846  23049503.7344   23049493.0474
        46.0004         36.0004
  -2459100.53047  -1887286.59444  24437096.2194   24437087.1134
        44.0004         27.7504
 -12314607.40147  -9586258.02746  22570967.9304   22570957.7114
        46.2504         39.5004
 -15028650.38548 -11688916.54146  21856027.1094   21856017.4184
        50.7504         37.7504
 -15490971.02248 -12053035.28146  22011137.5394   22011127.3204
        49.7504         39.0004
 -13908590.63048 -10821247.58746  22355852.3204   22355842.1024
        50.5004         39.7504
 10  7 31  2 34 30.0000000  0  9G04G13G23G02G17G12G30G20G31
 -19078592.15848 -14836362.24647  21090848.0474   21090838.7074
        53.5004         44.5004
  -2038565.62647  -1574309.18243  24476653.1724   24476643.1294
        42.0004         22.0004
 -12753021.19248  -9907932.49946  22694246.5944   22694236.0234
        49.2504         36.5004
 -10787082.46647  -8395686.34646  23031558.4844   23031546.9774
        46.5004         36.5004
  -2346646.59047  -1799660.10644  24458495.2274   24458486.3554
        42.2504         24.5004
 -12259471.83247  -9543295.24546  22581459.6804   22581449.8134
        47.7504         39.0004
 -15042106.54248 -11699401.90246  21853466.5704   21853457.1724
        50.5004         37.2504
 -15422706.47148 -11999842.19046  22024128.6484   22024118.1954
        50.0004         39.5004
 -13925426.69948 -10834366.59146  22352648.8524   22352638.3984
        50.0004         40.2504
 10  7 31  2 35  0.0000000  0  9G04G13G23G02G17G12G30G20G31
 -19091055.25948 -14846073.74347  21088476.6094   21088467.0354
        53.0004         44.7504
  -2157878.76846  -1667280.36743  24453949.1024   24453936.9494
        41.5004         19.0004
 -12838202.90448  -9974307.87246  22678037.8204   22678026.0204
        49.2504         36.5004
 -10881057.29147  -8468913.41446  23013675.5944   23013663.7344
        45.5004         36.2504
  -2234020.78946  -1711899.77643  24479927.3444   24479917.8284
        40.0004         22.7504
 -12203780.32847  -9499899.19146  22592057.4224   22592047.2624
        46.5004         39.0004
 -15054854.82648 -11709335.66846  21851040.2974   21851031.7774
        50.5004         38.0004
 -15353941.82948 -11946259.41446  22037213.4694   22037203.7194
        50.0004         39.2504
 -13941641.04548 -10847001.14146  22349563.1884   22349552.5594
        50.0004         40.5004
 10  7 31  2 35 30.0000000  0  9G04G13G23G02G17G12G30G20G31
 -19102881.40448 -14855288.91747  21086225.8364   21086216.2624
        51.7504         44.5004
  -2277030.63446  -1760126.02942  24431274.8054   24431263.5314
        41.2504         17.2504
 -12922968.10148 -10040358.65646  22661907.7034   22661895.2584
        49.2504         37.2504
 -10974704.39247  -8541885.13646  22995855.0004   22995843.6684
        45.0004         36.2504
  -2121229.44046  -1624010.41743  24501390.8594   24501381.4614
        39.5004         22.5004
 -12147539.00348  -9456074.74546  22602759.9844   22602749.7074
        48.5004         38.5004
 -15066898.59848 -11718720.39646  21848748.6564   21848739.4344
        50.7504         38.5004
 -15284683.26048 -11892291.67446  22050393.3204   22050382.8674
        49.7504         39.0004
 -13957237.43348 -10859154.16946  22346595.2344   22346585.0744
        48.2504         40.2504
 10  7 31  2 36  0.0000000  0  9G04G13G23G02G17G12G30G20G31
 -19114066.04848 -14864004.18947  21084097.4534   21084087.9964
        52.5004         44.7504
  -2396014.94646  -1852841.05843  24408632.7974   24408622.0514
        41.7504         20.0004
 -13007310.58648 -10106080.08846  22645857.4144   22645846.0824
        49.7504         36.7504
 -11068017.32247  -8614596.52046  22978098.1094   22978086.7194
        45.2504         37.0004
  -2008271.25846  -1535990.97444  24522886.0394   24522876.9344
        39.7504         25.2504
 -12090746.24447  -9411820.67646  22613567.0944   22613557.2854
        46.2504         39.0004
 -15078233.76848 -11727552.96746  21846591.4304   21846582.7934
        50.5004         39.0004
 -15214929.03948 -11837937.76246  22063666.8204   22063656.9534
        49.7504         38.2504
 -13972211.38348 -10870822.18546  22343745.6804   22343735.5784
        49.2504         40.5004
 10  7 31  2 36 30.0000000  0  9G04G13G23G02G17G12G30G20G31
 -19124610.70648 -14872220.78747  21082090.6414   21082081.5944
        53.5004         45.0004
  -2514830.10647  -1945424.28743  24386022.9534   24386012.9104
        43.2504         23.2504
 -13091229.51148 -10171471.46346  22629888.5164   22629876.5394
        49.5004         37.0004
 -11160995.28447  -8687046.87246  22960404.8754   22960393.6604
        45.2504         36.5004
  -1895150.99246  -1447845.22844  24544412.5704   24544402.7624
        41.0004         29.2504
 -12033405.30448  -9367139.44646  22624478.6174   22624468.8674
        48.2504         39.0004
 -15088861.46548 -11735834.29546  21844569.6884   21844560.4064
        49.7504         38.7504
 -15144682.91048 -11783200.56746  22077034.5554   22077024.3954
        49.5004         38.7504
 -13986563.75448 -10882005.84346  22341014.5944   22341004.4344
        50.7504         40.0004
 10  7 31  2 37  0.0000000  0  9G04G13G23G02G17G12G30G20G31
 -19134514.75149 -14879938.28247  21080206.5634   21080197.2234
        54.0004         45.0004
  -2633473.28546  -2037873.48344  24363446.2034   24363435.9844
        41.0004         25.5004
 -13174721.97348 -10236530.58746  22614000.0554   22613988.1374
        49.7504         36.5004
 -11253635.49147  -8759234.01146  22942776.3364   22942764.5944
        45.5004         36.7504
  -1781870.46746  -1359574.59344  24565968.8594   24565959.3444
        41.7504         29.0004
 -11975518.47747  -9322032.82846  22635494.2114   22635484.4614
        46.7504         39.0004
 -15098780.67648 -11743563.50446  21842681.0944   21842671.8714
        50.2504         38.0004
 -15073947.21048 -11728081.85146  22090494.7894   22090484.7464
        49.7504         38.7504
 -14000293.96448 -10892704.71146  22338401.8914   22338391.5554
        50.0004         40.0004
 10  7 31  2 37 30.0000000  0  9G04G13G23G02G17G12G30G20G31
 -19143777.59549 -14887156.11847  21078443.6254   21078434.8134
        54.2504         45.2504
  -2751941.53646  -2130186.38743  24340902.3834   24340892.1054
        38.5004         22.7504
 -13257784.87648 -10301254.94246  22598193.7114   22598182.0274
        50.0004         37.2504
 -11345935.15347  -8831155.78846  22925212.2584   22925200.8094
        46.2504         36.7504
  -1668432.04546  -1271180.86644  24587555.0474   24587545.8244
        39.2504         28.0004
 -11917087.01947  -9276501.82446  22646613.3524   22646603.7194
        47.7504         39.5004
 -15107991.03548 -11750740.33646  21840928.6254   21840919.9884
        51.0004         38.0004
 -15002723.61348 -11672582.88246  22104048.5314   22104038.7234
        49.5004         38.7504
 -14013401.34048 -10902918.23346  22335907.5554   22335897.3364
        50.7504         40.5004
 10  7 31  2 38  0.0000000  0  9G04G13G23G02G17G12G30G20G31
 -19152399.10448 -14893874.14447  21076803.0234   21076793.8594
        53.5004         44.5004
  -2870232.14746  -2222360.79743  24318391.7584   24318381.6564
        36.2504         20.5004
 -13340416.93948 -10365643.58146  22582469.2344   22582457.7854
        50.0004         37.5004
 -11437892.54747  -8902810.90246  22907713.0474   22907701.8914
        46.7504         37.2504
  -1554838.54246  -1182666.31644  24609171.0234   24609161.5084
        36.0004         26.2504
 -11858113.48447  -9230548.43546  22657835.6414   22657825.7154
        46.0004         39.0004
 -15116492.62248 -11757364.91646  21839311.1254   21839301.9614
        50.0004         38.5004
 -14931014.69448 -11616705.77946  22117693.9064   22117683.9224
        50.0004         38.5004
 -14025885.85148 -10912646.41346  22333532.3054   22333521.5594
        51.2504         40.5004
 10  7 31  2 38 30.0000000  0  9G04G13G23G02G17G12G30G20G31
 -19160378.80549 -14900092.14747  21075284.6414   21075275.1844
        54.2504         44.7504
  -2988342.12946  -2314394.51143  24295916.1484   24295906.3404
        36.7504         21.2504
 -13422614.73848 -10429693.83746  22566827.9064   22566816.1644
        51.2504         38.0004
 -11529504.46147  -8974196.78646  22890279.7814   22890268.5664
        47.0004         37.5004
  -1441092.19245  -1094032.77843  24630816.4774   24630807.3134
        31.5004         22.0004
 -11798599.11847  -9184173.58646  22669160.6644   22669151.1484
        46.5004         39.2504
 -15124284.26848 -11763436.26646  21837828.2424   21837819.0204
        50.2504         38.0004
 -14858822.02448 -11560451.73846  22131432.1954   22131421.3914
        50.0004         38.7504
 -14037746.31948 -10921888.33246  22331275.1024   22331264.5904
        51.5004         40.5004
 10  7 31  2 39  0.0000000  0  9G04G13G23G02G17G12G30G20G31
 -19167716.05548 -14905809.55847  21073888.4384   21073879.0984
        53.0004         44.7504
  -3106268.22646  -2406284.93843  24273475.8134   24273465.2424
        39.0004         22.0004
 -13504375.16748 -10493403.29046  22551269.2274   22551257.3094
        50.2504         37.2504
 -11620768.36847  -9045311.47746  22872913.0164   22872901.3914
        47.7504         37.5004
 -20232235.13955 -15736481.81953  24652489.9224   24652480.5234
        31.5004         22.0004
 -11738545.85947  -9137378.86446  22680588.6334   22680579.1174
        47.2504         39.0004
 -15131365.80748 -11768954.30246  21836481.0704   21836471.9064
        50.7504         38.5004
 -14786147.53748 -11503822.25446  22145261.4384   22145251.0434
        50.0004         38.2504
 -14048982.45748 -10930643.76146  22329136.6254   22329126.3484
        49.5004         40.5004
 10  7 31  2 39 30.0000000  0  9G04G13G23G02G17G12G30G20G31
 -19174411.66148 -14911026.93347  21072614.3134   21072604.9144
        52.5004         44.5004
  -3224008.78346  -2498030.82143  24251070.6724   24251060.3954
        38.5004         22.5004
 -13585696.95548 -10556770.78946  22535794.3204   22535782.5204
        50.0004         37.5004
 -11711682.95948  -9116153.97946  22855612.4064   22855600.7814
        48.5004         37.5004
 -20118191.09045 -15647616.25444  24674191.9614   24674182.2704
        34.7504         25.5004
 -11677956.85847  -9090166.66546  22692118.2584   22692108.4494
        47.2504         38.7504
 -15137737.97148 -11773919.59546  21835268.3054   21835259.0824
        51.0004         38.2504
 -14712994.38148 -11446819.79646  22159181.9774   22159171.6414
        50.0004         38.0004
 -14059594.62348 -10938912.97846  22327117.4144   22327107.1954
        48.7504         40.5004
 10  7 31  2 40  0.0000000  0  9G04G13G23G02G17G12G30G20G31
 -19180464.87549 -14915743.68247  21071462.1334   21071452.9694
        54.5004         44.7504
  -3341560.19446  -2589629.31443  24228700.7424   24228691.1684
        36.7504         22.5004
 -13666577.71148 -10619794.72746  22520402.9454   22520391.4964
        50.5004         38.0004
 -11802245.39247  -9186722.14646  22838379.2194   22838367.8284
        47.0004         37.5004
 -20004002.41046 -15558638.07644  24695921.2344   24695911.4264
        38.5004         24.5004
 -11616833.71547  -9042538.23346  22703749.5554   22703739.8054
        47.2504         39.2504
 -15143399.81048 -11778331.39446  21834190.7894   21834181.5084
        50.5004         39.0004
 -14639364.85348 -11389446.15746  22173193.4064   22173183.3634
        49.2504         37.2504
 -14069582.05748 -10946695.39646  22325216.6724   22325206.7464
        50.7504         40.0004
 10  7 31  2 40 30.0000000  0  9G04G13G23G02G17G12G30G20G31
 -19185876.10648 -14919960.20247  21070432.6174   21070423.3954
        53.5004         44.5004
  -3458920.31945  -2681078.68843  24206367.6564   24206358.1414
        35.7504         22.2504
 -13747014.91648 -10682473.05846  22505096.4304   22505084.4534
        50.0004         37.5004
 -11892453.19648  -9257013.79246  22821212.9694   22821201.1094
        48.5004         37.5004
 -19889671.30846 -15469548.94044  24717678.1954   24717667.8594
        39.5004         27.5004
 -11555178.99047  -8994495.59646  22715482.2814   22715472.1804
        47.2504         38.7504
 -15148351.41148 -11782189.76646  21833248.4774   21833239.1374
        50.0004         37.5004
 -14565261.41548 -11331703.25446  22187294.6094   22187284.6844
        49.2504         37.5004
 -14078944.78148 -10953991.02046  22323435.1644   22323424.5944
        51.0004         40.2504
 10  7 31  2 41  0.0000000  0  9G04G13G23G02G17G12G30G20G31
 -19190644.57148 -14923675.82047  21069525.3364   21069515.7624
        53.2504         44.7504
  -3576085.82746  -2772376.49244  24184072.4224   24184062.9654
        37.7504         24.7504
 -13827005.71948 -10744803.57246  22489874.7114   22489862.8524
        50.5004         37.7504
 -11982303.82448  -9327027.20846  22804115.1564   22804103.6484
        48.7504         37.7504
 -19775200.22446 -15380350.76844  24739460.6644   24739451.6174
        39.5004         27.2504
 -11492994.03248  -8946039.78046  22727315.6884   22727305.7624
        48.2504         39.0004
 -15152592.16148 -11785494.22846  21832441.5164   21832432.4104
        50.5004         38.2504
 -14490685.73548 -11273592.35146  22201485.9144   22201476.1054
        49.5004         38.0004
 -14087682.20848 -10960799.42146  22321772.4844   22321762.6764
        50.7504         40.5004
 10  7 31  2 41 30.0000000  0  9G04G13G23G02G17G12G30G20G31
 -19194770.69048 -14926890.93247  21068739.8204   21068730.4804
        53.2504         45.0004
  -3693054.38746  -2863520.86644  24161814.3754   24161804.5084
        39.7504         27.0004
 -13906548.13248 -10806784.65046  22474738.7274   22474726.7504
        51.0004         38.0004
 -12071795.37248  -9396760.85946  22787085.4384   22787073.5784
        48.2504         37.2504
 -19660592.19446 -15291045.76944  24761269.5704   24761259.8794
        40.7504         26.5004
 -11430281.73948  -8897173.05446  22739249.2814   22739239.7074
        48.2504         38.7504
 -15156122.57348 -11788245.19946  21831769.6334   21831760.2344
        49.7504         37.5004
 -14415640.47148 -11215115.56646  22215766.6644   22215756.3284
        49.5004         37.5004
 -14095794.38648 -10967120.61246  22320228.8284   22320218.1414
        50.7504         40.2504
 10  7 31  2 42  0.0000000  0  9G04G13G23G02G17G12G30G20G31
 -19198254.21948 -14929605.37447  21068077.0944   21068067.8134
        53.5004         45.0004
  -3809822.66546  -2954509.19544  24139594.5474   24139583.9184
        41.5004         25.2504
 -13985639.44048 -10868414.20346  22459687.7114   22459675.7344
        50.2504         38.0004
 -12160925.16548  -9466212.64546  22770124.2814   22770112.6564
        48.2504         37.7504
 -19545849.53046 -15201636.09944  24783105.3364   24783095.2934
        41.0004         26.7504
 -11367043.71548  -8847896.66346  22751283.2584   22751273.3914
        49.0004         38.5004
 -15158941.97848 -11790442.12246  21831233.0474   21831223.7664
        49.0004         38.5004
 -14340127.44548 -11156274.28446  22230136.3524   22230126.2504
        48.7504         37.5004
 -14103280.56948 -10972953.99746  22318804.2894   22318793.9534
        49.7504         40.5004
 10  7 31  2 42 30.0000000  0  9G04G13G23G02G17G12G30G20G31
 -19201095.35348 -14931819.29547  21067536.4694   21067527.4224
        51.0004         45.0004
  -3926388.54746  -3045339.83544  24117412.4144   24117402.2544
        41.2504         24.2504
 -14064277.78248 -10929690.79746  22444723.5394   22444711.5634
        50.5004         38.0004
 -12249691.01248  -9535380.81946  22753232.8594   22753221.3524
        48.5004         38.0004
 -19430974.38046 -15112122.94344  24804965.1334   24804955.6764
        41.5004         25.5004
 -11303282.60047  -8798212.66846  22763416.2664   22763406.8674
        47.7504         38.2504
 -15161050.63547 -11792085.22246  21830831.7034   21830822.7154
        46.7504         37.5004
 -14264149.43748 -11097070.66346  22244594.5554   22244584.3364
        49.2504         37.2504
 -14110141.13448 -10978299.89346  22317498.7194   22317488.2664
        50.7504         40.7504
 10  7 31  2 43  0.0000000  0  9G04G13G23G02G17G12G30G20G31
 -19203292.58548 -14933531.46247  21067118.4304   21067109.2074
        50.7504         45.0004
  -4042747.55946  -3136009.27243  24095269.6564   24095259.3794
        39.5004         22.5004
 -14142459.21048 -10990611.40646  22429845.7734   22429834.0904
        51.0004         38.7504
 -12338089.37148  -9604262.70846  22736411.1254   22736399.9104
        48.5004         38.0004
 -19315969.68346 -15022509.47944  24826850.5164   24826840.5904
        41.0004         24.2504
 -11238999.26448  -8748121.71746  22775648.7504   22775639.5274
        48.5004         38.5004
 -15162447.29047 -11793173.53146  21830566.2814   21830556.7664
        47.0004         38.0004
 -14187707.69548 -11037505.72746  22259140.8364   22259130.9104
        49.0004         37.5004
 -14116374.48548 -10983157.05446  22316312.4144   22316302.1954
        50.2504         40.7504
 10  7 31  2 43 30.0000000  0  9G04G13G23G02G17G12G30G20G31
 -19204847.82748 -14934743.43147  21066822.6174   21066813.4534
        52.0004         45.0004
  -4158898.50446  -3226516.54444  24073167.4924   24073157.6844
        38.7504         24.7504
 -14220182.95248 -11051175.32946  22415055.2034   22415044.0474
        50.0004         39.0004
 -12426119.35647  -9672857.52846  22719659.4924   22719648.1024
        47.0004         37.5004
 -19200837.23646 -14932795.84244  24848759.2664   24848749.7504
        40.2504         26.0004
 -11174197.66347  -8697626.94646  22787980.3204   22787971.0984
        47.2504         38.2504
 -15163133.48947 -11793708.21146  21830435.5234   21830425.8914
        47.0004         38.0004
 -14110805.71648 -10977582.11946  22273774.7584   22273764.7734
        49.5004         37.0004
 -14121982.18448 -10987526.69646  22315245.6884   22315235.2344
        50.2504         40.5004
 10  7 31  2 44  0.0000000  0  9G04G13G23G02G17G12G30G20G31
 -19205760.22248 -14935454.34647  21066648.9924   21066639.5354
        50.7504         45.0004
  -4274838.21646  -3316859.23244  24051104.3444   24051095.2384
        41.0004         27.0004
 -14297446.37948 -11111380.58946  22400352.5864   22400340.9614
        50.5004         39.0004
 -12513777.85347  -9741162.77046  22702978.6024   22702967.5634
        47.5004         37.7504
 -19085579.56746 -14842984.38644  24870691.8054   24870682.3484
        39.7504         25.0004
 -11108879.51247  -8646729.66846  22800410.1254   22800400.6094
        47.0004         37.5004
 -15163108.88547 -11793689.01746  21830440.1724   21830430.8324
        47.0004         38.0004
 -14033445.78148 -10917301.70046  22288495.7504   22288485.8834
        49.0004         37.0004
 -14126963.49848 -10991408.24246  22314297.4534   22314287.1764
        51.7504         40.5004
 10  7 31  2 44 30.0000000  0  8G04G13G23G02G12G30G20G31
 -19206026.04948 -14935661.49547  21066598.2814   21066588.8244
        52.0004         45.5004
  -4390559.99147  -3407032.11344  24029083.9454   24029073.6684
        42.5004         28.5004
 -14374243.29148 -11171222.37046  22385739.0004   22385727.0824
        50.5004         38.7504
 -12601059.05147  -9809174.03846  22686369.5234   22686358.0744
        46.2504         38.0004
 -11043042.88247  -8595428.38946  22812938.3284   22812928.6374
        47.7504         37.7504
 -15162369.57148 -11793112.91646  21830580.5004   21830571.6294
        48.0004         37.7504
 -13955626.14148 -10856663.05246  22303304.6724   22303294.2774
        49.0004         37.0004
 -14131314.11547 -10994798.33846  22313469.7034   22313459.4264
        47.7504         41.5004
 10  7 31  2 45  0.0000000  0  8G04G13G23G02G12G30G20G31
 -19205651.97248 -14935369.99647  21066669.3134   21066660.1484
        53.5004         44.7504
  -4506067.51146  -3497038.06544  24007103.4844   24007093.4414
        41.5004         24.7504
 -14450577.60548 -11230703.64546  22371212.5784   22371201.2464
        50.5004         38.5004
 -12687966.71747  -9876894.28746  22669831.5084   22669820.4104
        46.7504         38.5004
 -10976697.03748  -8543730.33346  22825563.0944   22825553.7544
        48.0004         38.0004
 -15160922.10548 -11791985.00846  21830856.0004   21830846.8954
        49.5004         38.0004
 -13877355.68348 -10795673.14846  22318199.0394   22318188.8794
        49.0004         36.7504
 -14135040.75848 -10997702.20846  22312760.5554   22312750.2774
        50.5004         41.0004
 10  7 31  2 45 30.0000000  0  8G04G13G23G02G12G30G20G31
 -19204635.38548 -14934577.88947  21066862.8204   21066853.3054
        53.0004         45.5004
  -4621355.44646  -3586872.92843  23985164.5784   23985155.0044
        39.2504         22.5004
 -14526444.24848 -11289820.48346  22356775.9534   22356764.1524
        51.0004         39.0004
 -12774496.30847  -9944319.91646  22653365.5394   22653354.2664
        46.0004         38.0004
 -10909840.73948  -8491634.56446  22838285.5474   22838275.9734
        48.7504         38.2504
 -15158763.76848 -11790303.15946  21831267.2034   21831257.6884
        48.5004         38.2504
 -13798633.91748 -10734331.54946  22333178.8984   22333169.0904
        49.0004         36.5004
 -14138140.69948 -11000117.74746  22312170.4774   22312160.1994
        49.2504         40.0004
